GFSGBSN_sfc_thetae_000.txt.gz
Theta_e
321 319 317 316 315 316 315 315 314 315 315 315 316 316 315 315 315 316 317 317 317 318 318 318 318 319 314 303 302 313 324 326 324 330 325 317 310 307 303 304 305 302 305 307 308 306 303
321 320 319 316 315 315 316 315 315 315 315 316 316 316 315 315 315 315 315 316 317 317 317 318 318 319 308 295 311 314 314 317 322 327 325 318 311 312 307 306 304 305 304 303 303 304 303
321 320 319 318 315 315 315 316 316 315 315 315 315 315 315 315 315 315 315 315 316 317 317 317 318 314 306 300 310 313 313 317 325 325 321 319 316 312 309 305 308 304 299 301 302 302 302
322 321 320 318 315 315 315 316 315 315 316 316 315 314 315 315 315 315 315 316 316 316 316 318 319 311 299 311 312 311 315 314 321 326 325 322 320 313 311 307 301 296 296 292 298 301 302
322 320 319 319 316 316 316 316 315 316 316 316 315 315 315 313 312 314 315 315 316 316 317 318 310 305 296 318 309 311 312 311 318 321 325 324 318 309 308 300 295 293 289 290 294 300 300
321 320 320 320 318 316 316 315 315 315 316 316 316 316 316 316 314 315 315 315 315 315 314 314 310 300 304 303 311 313 314 314 315 317 317 316 312 304 300 296 289 289 289 290 290 295 297
322 320 320 320 319 317 315 315 315 315 315 315 315 315 316 316 316 316 313 310 302 299 306 299 299 300 303 310 314 312 317 313 316 312 305 311 304 299 300 299 296 294 290 289 293 298 297
323 321 320 319 320 317 315 315 315 315 315 315 315 315 315 316 316 316 313 305 304 304 296 302 303 303 310 310 303 310 319 310 307 302 308 304 299 304 304 299 296 294 291 289 294 298 295
322 322 321 320 318 318 315 315 315 316 315 315 315 315 316 316 315 314 309 308 313 309 295 299 304 301 306 309 305 307 314 311 304 302 304 300 303 307 302 296 295 292 290 290 293 296 296
321 322 320 320 318 318 316 314 315 315 316 317 316 316 316 315 309 312 309 313 314 312 292 292 298 302 307 310 303 313 314 311 306 300 304 300 301 302 300 296 294 290 296 296 295 291 287
320 321 320 319 318 317 317 316 315 315 316 317 317 316 315 315 311 307 311 315 315 308 280 294 298 311 309 304 306 305 312 310 303 302 299 299 298 299 296 296 296 294 298 295 293 289 287
320 320 321 320 319 318 317 317 317 316 316 316 317 316 315 313 313 314 315 315 310 291 281 292 301 300 297 303 302 305 306 310 310 301 299 296 300 298 297 298 298 299 294 292 290 288 283
320 320 321 320 319 318 318 316 316 316 316 316 317 316 314 315 308 316 314 308 290 286 295 293 295 299 297 297 299 302 300 300 298 291 291 295 292 293 297 293 293 293 289 284 282 282 283
321 320 320 320 320 319 318 317 316 316 316 315 315 316 314 312 317 314 310 299 288 292 293 299 298 298 294 298 297 299 297 294 297 293 289 288 287 291 294 294 291 290 290 285 281 281 284
321 320 320 320 320 319 317 316 315 316 315 315 314 310 309 311 316 313 303 293 291 295 297 296 297 293 294 298 297 296 295 295 296 296 291 288 287 293 294 293 295 290 288 292 288 285 284
320 320 320 320 319 319 318 316 316 315 315 315 305 304 308 313 314 309 302 296 298 302 300 300 292 295 292 293 293 294 293 300 300 301 299 292 285 291 293 294 292 291 293 287 287 282 280
319 319 320 319 319 318 317 317 316 316 316 314 303 301 309 313 314 306 296 298 301 303 304 301 298 295 293 293 293 294 295 299 302 301 300 295 291 289 292 290 290 290 287 287 288 286 282
318 318 319 319 318 317 317 317 316 316 315 306 302 296 311 313 298 298 297 302 303 303 306 303 301 298 297 299 296 295 295 298 303 303 298 298 292 286 289 293 293 291 291 289 285 283 283
318 318 318 319 317 316 317 317 316 315 313 301 297 302 311 310 296 294 299 300 302 302 302 303 302 303 303 299 295 297 298 303 303 301 299 299 292 286 287 291 293 291 292 291 290 288 285
317 317 317 318 317 316 316 316 315 315 314 303 298 295 299 299 297 296 296 296 297 303 301 302 301 303 300 297 299 296 296 301 302 301 303 301 292 290 288 289 292 290 293 292 289 285 285
316 316 316 317 317 317 316 315 315 315 313 304 296 294 296 294 293 293 295 297 295 296 300 301 299 299 298 294 295 294 296 297 300 302 298 296 289 290 290 291 291 291 292 292 290 288 286
316 315 316 316 316 317 315 315 315 314 312 300 295 294 295 293 294 293 292 292 293 294 296 297 295 296 296 293 294 295 296 296 296 297 296 295 289 289 286 289 289 287 289 289 289 291 291
316 315 315 315 315 316 315 314 314 313 308 297 298 298 294 294 291 291 291 292 293 296 296 296 297 295 292 292 295 296 298 298 298 296 293 292 289 286 282 288 288 286 288 288 287 288 288
314 314 314 314 314 315 315 315 314 313 308 300 300 298 292 290 291 292 294 293 293 293 293 293 295 293 295 295 294 294 294 294 294 293 294 289 287 286 282 285 280 288 292 293 290 291 291
313 313 313 314 315 315 314 314 315 314 312 301 301 298 293 289 291 292 292 291 291 291 291 291 292 292 293 292 289 288 288 289 290 292 292 290 287 284 282 281 286 289 291 292 290 289 293
312 313 313 313 314 313 313 314 314 314 312 303 301 301 296 292 290 294 291 290 288 288 288 289 292 294 293 292 290 285 284 286 284 287 291 290 289 286 279 279 280 287 292 294 292 284 294
311 312 312 312 312 312 313 313 313 313 312 307 303 303 301 293 294 294 290 291 291 289 287 287 289 290 293 290 288 284 286 287 285 285 284 284 283 282 282 280 284 291 294 294 284 284 293
311 311 311 311 311 311 311 312 313 313 311 308 304 304 302 296 296 298 298 293 293 291 291 291 292 292 290 288 288 285 285 286 284 285 285 284 281 281 282 279 278 293 294 289 291 293 293
310 310 310 309 310 310 311 312 312 313 312 311 303 306 305 301 299 302 302 302 298 299 293 291 293 290 292 289 287 286 285 283 284 283 287 285 289 286 286 285 293 293 293 294 295 293 292

GFSGBSN_sfc_thetae_003.txt.gz
Theta_e
323 322 320 318 317 316 316 316 315 315 315 315 316 316 316 316 315 316 317 318 318 319 319 319 319 319 312 303 301 312 321 323 320 320 319 319 307 305 302 303 304 300 304 306 307 306 304
324 322 321 320 318 316 316 316 316 315 315 315 316 315 316 316 316 316 316 317 318 318 318 318 319 319 307 294 310 312 311 314 317 316 321 320 310 309 305 304 303 305 305 305 303 303 302
323 323 321 320 318 316 315 316 316 315 316 316 315 315 315 315 316 316 316 316 316 317 318 318 318 313 304 300 309 311 311 311 317 318 320 322 316 311 307 304 308 304 299 300 301 303 301
323 322 321 320 319 317 316 316 317 316 316 316 315 315 315 315 315 315 316 316 316 316 317 317 318 309 299 311 312 310 311 312 316 321 324 323 317 313 307 307 300 296 295 292 298 299 301
322 321 320 320 320 318 317 316 316 316 315 316 316 315 316 316 315 315 315 315 315 316 317 317 308 305 297 313 307 309 310 309 311 317 323 324 317 310 307 300 294 296 288 289 294 298 297
323 321 320 320 320 320 318 316 316 316 316 315 314 315 316 316 317 316 315 315 314 313 312 311 309 299 302 300 307 310 311 310 312 312 315 315 311 302 301 299 294 290 289 290 290 294 295
323 323 321 321 320 320 318 316 315 315 315 315 315 315 315 316 317 317 313 307 300 299 303 298 300 299 301 306 311 307 310 308 311 310 304 310 302 298 300 300 300 294 291 289 291 295 293
322 322 322 321 320 319 318 316 315 315 316 315 315 314 314 316 316 316 311 302 303 303 295 303 302 302 305 309 302 305 311 304 304 299 306 303 299 304 304 301 296 294 290 290 293 296 293
321 321 322 320 320 318 318 316 315 315 316 316 317 315 316 316 315 313 306 304 313 310 296 297 301 301 303 306 301 304 308 307 300 299 303 299 302 308 305 300 296 292 290 290 290 295 294
321 321 321 321 319 319 317 317 315 315 316 316 317 316 316 315 309 311 306 312 313 312 287 290 296 300 303 304 299 311 311 308 301 297 303 302 304 305 302 297 301 296 296 294 293 290 286
321 321 321 321 320 319 318 317 317 316 316 316 317 316 315 314 311 306 310 313 313 307 273 293 297 310 306 299 302 304 313 310 298 299 302 297 300 301 301 300 298 295 296 293 292 288 285
322 321 321 320 320 320 318 318 317 316 316 316 316 317 316 313 313 313 315 314 308 289 280 291 298 296 297 300 302 305 307 310 307 302 300 298 305 305 303 301 297 297 293 291 288 287 282
322 322 322 321 320 320 319 318 317 317 316 316 316 316 315 315 307 316 315 307 289 284 292 291 291 296 295 296 298 302 301 300 296 293 293 293 293 297 297 294 294 292 289 283 282 282 282
321 321 321 321 320 320 320 318 317 316 316 315 315 315 314 313 317 315 309 295 284 290 290 298 297 295 291 297 298 300 299 296 300 295 293 287 288 291 293 293 290 289 290 284 280 280 282
320 320 320 321 320 320 319 318 317 317 316 315 315 308 309 312 316 314 301 287 291 294 297 295 294 290 293 296 298 298 296 296 298 298 292 287 287 291 292 292 295 288 287 291 287 283 282
320 320 319 320 320 319 318 318 318 317 316 315 307 302 306 313 315 309 298 294 296 300 300 297 291 294 291 293 294 294 294 298 297 297 295 291 284 291 291 293 291 291 293 287 285 281 279
319 319 319 320 320 319 318 318 318 317 316 313 301 299 309 315 315 304 296 296 298 302 303 298 295 294 294 293 294 293 294 298 302 300 299 292 289 287 290 289 288 287 286 286 287 284 280
319 318 318 319 319 318 317 317 317 317 315 305 300 295 310 313 300 301 297 302 301 300 306 303 299 296 292 293 292 293 293 296 302 302 296 295 290 285 286 292 292 289 288 287 284 282 282
319 318 318 318 318 317 316 317 317 316 313 300 296 302 311 309 295 296 301 301 303 302 302 301 297 298 299 295 294 294 296 300 302 300 299 298 290 285 285 290 291 289 289 288 288 286 282
318 317 317 317 317 317 316 316 316 316 314 304 297 295 299 303 298 298 295 298 298 303 301 301 301 302 298 296 297 294 295 299 301 300 303 300 291 288 285 287 290 288 290 289 288 284 283
317 317 317 316 316 316 316 315 315 315 314 303 295 293 295 291 293 296 296 297 296 296 301 301 300 300 298 293 294 293 295 296 299 301 297 295 289 289 288 289 290 290 291 289 287 287 285
317 317 316 316 316 316 316 314 315 314 312 299 294 293 294 292 294 294 294 292 292 293 298 297 298 297 299 295 295 294 296 296 296 296 293 293 287 287 283 287 287 285 287 290 289 289 288
317 316 316 315 314 315 315 314 314 314 308 297 297 297 294 293 291 290 291 293 294 294 295 298 297 295 294 293 294 295 296 295 295 294 292 290 287 284 280 285 285 283 287 286 286 287 288
316 316 315 314 314 314 315 314 314 313 306 300 299 297 292 289 290 291 292 292 294 293 293 293 294 293 294 296 295 297 295 295 295 293 292 288 286 285 282 284 279 287 292 292 289 291 291
316 315 314 314 314 314 315 314 314 314 311 299 299 297 292 288 290 290 291 290 291 290 290 291 291 292 294 292 291 290 290 290 291 292 290 291 288 285 284 283 285 288 291 290 290 290 293
316 314 314 313 314 314 314 314 314 314 311 301 300 300 294 291 289 292 290 289 288 287 287 289 291 293 293 291 290 285 283 286 285 288 291 290 289 287 281 280 281 288 292 295 293 285 293
315 314 313 313 314 313 313 313 313 313 311 305 301 302 298 291 293 292 290 290 291 289 287 287 288 289 292 289 287 282 285 287 284 284 284 284 285 284 284 282 286 291 293 294 284 284 292
314 313 313 313 313 313 312 313 313 313 311 307 303 302 301 294 294 297 297 292 291 291 290 290 291 291 289 288 288 286 286 286 285 285 284 284 282 282 283 281 281 292 292 289 290 292 292
313 312 312 312 312 312 312 312 312 313 312 309 302 304 303 298 297 300 300 299 297 297 291 289 292 290 292 288 286 286 285 284 285 284 287 286 288 286 286 285 292 292 292 293 293 292 292

GFSGBSN_sfc_thetae_006.txt.gz
Theta_e
325 324 322 321 320 318 317 317 316 316 316 316 315 316 316 316 316 316 316 317 318 319 319 319 319 319 312 302 300 309 319 317 318 317 315 316 308 304 301 302 303 299 302 305 305 306 304
324 323 323 322 321 320 317 316 316 316 316 316 316 316 315 316 316 316 316 316 317 318 318 319 319 318 305 295 307 311 311 309 313 314 314 317 312 307 304 303 303 304 304 305 304 304 302
324 322 322 321 321 319 318 316 316 317 317 316 317 316 316 315 315 315 316 316 316 317 317 318 318 312 304 299 307 310 312 308 310 314 311 318 319 310 308 303 306 304 299 301 300 301 301
324 321 321 320 320 320 318 316 316 317 317 317 317 317 316 316 315 315 316 316 316 317 316 317 317 307 297 309 310 308 309 310 312 316 315 322 323 312 309 307 300 297 295 291 298 298 299
324 323 321 320 320 320 320 319 316 316 317 316 316 315 315 316 316 317 315 315 316 315 315 315 308 304 296 312 305 308 308 305 311 313 317 323 316 310 309 301 296 296 292 289 293 297 297
323 323 323 321 320 320 320 320 317 316 316 316 316 315 314 315 316 316 316 314 314 312 311 310 308 297 299 299 305 307 308 308 308 310 310 314 310 304 301 297 292 293 292 289 290 294 294
322 322 322 322 321 320 319 319 317 316 316 316 317 316 314 314 315 317 315 309 299 297 302 297 296 297 300 304 309 305 307 305 307 305 301 308 302 298 299 303 297 295 291 291 292 294 291
321 321 321 321 320 320 318 318 317 316 316 316 317 317 315 314 316 317 311 301 300 303 293 300 302 300 304 306 300 303 308 302 302 292 303 304 297 303 302 302 300 295 293 289 294 295 291
321 321 321 321 321 320 318 317 317 316 315 316 317 316 315 315 316 314 306 303 312 308 295 296 300 300 301 304 299 300 305 303 298 292 299 298 302 306 303 298 297 294 293 291 292 293 293
321 321 321 321 321 320 319 318 317 317 316 317 317 315 314 315 310 310 305 310 312 309 288 290 294 298 302 303 296 306 307 304 299 292 299 301 305 304 302 299 299 294 296 296 292 289 285
322 322 322 321 320 320 320 319 318 317 317 317 317 316 316 316 309 306 310 312 312 305 275 291 295 306 303 297 299 301 307 304 296 295 301 298 300 301 300 300 301 297 298 296 294 288 284
322 322 322 322 321 321 320 319 319 318 317 316 316 317 316 313 312 312 314 312 306 287 277 288 296 294 294 296 299 303 303 308 305 298 299 297 303 303 303 303 301 300 295 293 290 286 281
322 321 322 322 321 321 320 320 319 318 317 317 316 316 314 315 307 315 312 304 286 281 291 288 289 294 294 292 296 298 296 295 294 290 291 292 299 299 303 296 296 296 292 285 283 281 281
322 321 321 320 321 321 320 319 319 318 317 316 315 315 314 313 316 314 307 293 282 288 287 295 293 293 290 294 295 296 296 295 299 292 293 289 288 292 295 297 294 293 291 283 280 279 281
321 320 320 320 319 320 320 319 318 318 317 316 315 309 309 312 316 311 297 285 287 291 294 294 293 288 289 294 295 296 295 294 298 296 289 289 288 291 293 293 299 289 288 290 285 281 281
320 320 319 319 319 320 320 318 318 318 317 315 306 302 304 314 316 306 293 288 293 300 297 295 288 292 289 291 293 293 293 300 298 298 295 290 284 291 290 294 292 291 293 286 285 280 279
320 319 319 319 319 319 319 317 317 318 317 314 303 297 309 314 313 301 290 290 298 301 299 296 293 291 293 290 294 292 293 298 300 295 294 290 287 288 290 288 288 287 286 286 287 284 280
319 319 318 319 318 318 318 317 317 317 315 305 298 295 311 312 299 300 294 301 301 301 304 301 300 297 294 293 294 293 293 295 301 300 294 294 288 284 288 290 291 288 287 287 284 281 280
319 318 318 318 317 316 317 317 316 316 313 299 295 303 311 309 295 296 301 300 301 300 301 301 295 299 297 294 293 296 297 300 301 299 296 296 288 284 287 289 290 288 287 287 286 285 280
319 318 317 317 316 316 316 316 315 315 314 300 299 295 302 304 302 298 297 297 298 303 302 302 298 298 297 295 296 293 294 299 301 299 303 300 290 287 285 286 289 287 288 287 287 282 282
318 318 317 317 316 316 316 315 315 315 314 302 295 296 298 292 295 296 298 299 297 296 301 301 298 297 295 292 292 292 294 295 297 301 296 296 289 288 286 289 290 289 290 287 287 287 286
318 317 317 317 316 316 315 315 314 314 312 299 294 294 295 292 294 295 294 294 294 295 297 298 296 297 296 295 293 292 294 294 293 294 293 294 288 287 283 287 286 286 289 288 287 287 285
317 317 317 316 315 315 314 314 314 314 308 297 296 299 296 293 292 292 293 294 294 295 296 297 297 297 293 294 293 295 294 293 295 295 291 289 287 286 282 284 284 282 285 288 287 288 289
317 317 316 315 315 314 313 314 314 314 308 299 298 297 292 290 292 292 294 294 293 293 293 293 295 296 294 295 296 296 296 294 293 291 291 288 286 284 280 282 276 284 290 288 288 288 289
316 316 316 315 314 313 313 314 314 314 311 298 298 296 292 288 289 289 290 290 290 290 291 291 292 293 296 294 292 292 290 291 290 290 290 290 287 283 282 280 284 287 289 289 289 288 292
316 316 316 315 313 313 313 314 314 314 312 299 298 298 293 290 289 291 289 289 287 286 287 289 291 293 294 293 291 287 286 288 285 286 289 289 289 286 279 279 279 286 291 293 294 287 294
316 316 315 314 313 313 314 313 313 313 312 303 299 301 296 290 291 291 289 290 289 287 285 286 288 290 292 289 287 285 285 287 284 284 284 285 284 283 284 282 285 291 293 294 285 286 293
313 315 314 313 313 313 313 313 313 313 311 306 301 301 299 292 293 296 296 291 290 290 288 288 290 290 289 288 287 285 285 286 284 285 283 283 281 281 282 281 281 292 292 289 290 291 292
312 314 313 312 312 313 313 313 313 313 312 308 300 302 302 296 296 299 299 299 296 296 290 289 291 289 291 288 287 286 285 284 285 284 287 285 287 285 286 286 291 291 291 293 293 292 291

GFSGBSN_sfc_thetae_009.txt.gz
Theta_e
326 324 324 323 322 321 319 317 316 317 316 316 316 315 316 316 317 316 316 316 317 318 319 319 320 320 312 304 302 310 317 316 314 318 313 313 312 307 305 305 304 301 304 306 306 306 306
326 324 322 323 322 322 320 317 316 316 316 317 316 316 316 316 316 317 316 316 316 317 318 318 319 318 306 296 308 312 310 310 309 314 313 314 314 309 306 305 306 306 306 307 307 307 305
325 323 321 321 320 320 320 318 316 316 317 317 317 317 317 316 316 316 316 316 316 316 317 318 318 312 304 300 309 310 311 309 309 312 310 315 318 310 308 304 307 306 303 304 304 305 305
323 324 322 321 321 320 320 319 317 316 317 317 317 317 317 316 316 316 316 316 316 316 316 317 316 308 298 310 311 309 308 307 310 312 314 315 318 314 309 308 304 302 300 298 303 302 302
323 323 324 322 321 320 320 320 319 317 317 317 317 317 315 314 316 317 317 316 316 316 315 314 307 304 296 311 306 307 307 304 308 313 314 316 314 312 309 301 296 297 294 294 298 302 302
321 322 323 323 322 321 321 319 320 318 317 316 317 318 317 315 315 315 317 316 314 313 311 310 307 298 301 299 305 307 307 307 304 309 309 309 308 305 304 300 292 291 294 294 294 298 297
320 322 322 322 322 321 321 319 319 318 317 317 318 317 317 315 314 315 314 310 300 299 302 296 297 296 300 303 308 305 307 304 303 306 296 304 300 298 300 303 300 296 296 295 297 298 295
320 322 322 322 322 321 320 319 318 318 316 316 318 317 317 316 315 315 314 301 300 301 292 300 300 300 303 306 300 303 306 298 298 295 298 299 296 303 304 303 299 296 294 293 296 297 296
320 321 322 322 321 321 320 319 318 317 317 316 317 317 315 313 315 314 308 305 310 308 293 296 298 299 301 302 298 299 302 300 298 294 295 295 300 306 303 300 299 296 294 293 294 295 296
321 322 323 322 321 321 321 320 319 317 317 317 317 317 316 314 310 310 305 310 310 307 287 290 292 297 302 303 295 304 305 301 299 292 294 298 304 303 301 298 300 295 297 298 295 294 290
320 322 322 322 322 321 320 320 320 319 318 317 317 317 316 314 309 306 309 310 309 302 276 292 293 305 302 296 298 299 306 302 296 293 297 297 301 300 299 300 301 297 301 299 297 293 289
321 322 322 322 322 321 320 320 320 319 318 317 317 316 316 312 311 311 312 311 306 285 276 288 295 294 294 296 297 300 300 304 305 295 298 299 305 305 303 303 303 297 296 294 292 290 285
320 321 322 322 321 321 320 320 320 319 318 317 317 316 313 313 306 314 311 303 285 280 290 287 289 293 292 290 293 295 294 293 291 287 288 296 300 303 305 297 298 297 295 287 284 283 284
320 320 321 321 320 320 320 320 320 319 319 317 316 315 313 311 314 312 307 292 281 288 285 293 292 291 289 292 293 294 292 288 296 293 289 289 290 296 302 298 295 296 295 287 282 282 284
319 320 320 320 320 319 320 320 319 318 317 317 315 309 308 310 315 311 296 284 285 289 290 291 291 286 288 291 293 292 291 290 294 295 288 289 289 294 297 298 300 292 292 294 286 285 284
319 319 320 320 319 319 319 319 318 318 317 316 306 303 305 313 313 304 289 287 290 293 295 293 285 288 284 289 288 291 290 296 296 299 296 293 285 291 291 296 294 295 297 289 288 283 281
319 319 319 320 319 318 318 318 317 317 317 313 304 296 309 315 309 297 287 288 293 300 297 292 291 289 290 288 290 290 289 298 301 298 294 290 288 287 291 290 288 290 290 289 289 287 283
318 319 319 319 318 317 317 318 317 316 313 307 296 296 311 310 296 295 291 295 299 298 300 297 296 295 291 291 289 293 292 297 303 299 291 292 288 284 286 291 292 291 290 291 286 283 283
316 318 319 318 317 316 316 317 316 315 313 298 295 302 312 309 291 291 296 298 300 298 300 299 295 297 296 293 291 296 296 301 302 299 294 294 288 284 288 291 292 289 288 289 288 286 282
314 318 318 318 317 316 315 316 316 315 313 301 299 297 302 302 302 297 297 296 297 303 302 302 297 298 295 293 295 293 296 299 302 301 303 299 290 287 285 287 289 287 287 287 290 285 284
311 317 318 317 317 316 315 315 315 314 314 304 296 293 300 294 296 297 299 298 296 296 302 302 298 297 296 291 293 292 296 296 299 302 298 297 289 288 286 290 290 290 289 287 288 290 288
310 314 317 317 317 316 315 315 314 314 313 302 293 291 293 294 294 297 296 297 296 296 297 297 296 297 297 295 294 291 294 296 294 295 295 294 288 287 284 288 289 288 289 290 289 287 288
309 311 316 317 317 316 315 314 314 314 310 297 295 296 294 295 292 294 294 296 296 297 298 296 298 296 296 294 294 297 298 296 298 294 291 292 288 286 284 286 286 284 287 288 289 289 291
308 309 311 317 316 315 314 313 313 314 308 299 297 296 292 292 292 293 294 295 295 295 297 293 295 295 294 295 295 296 295 294 297 291 292 290 288 286 281 284 278 287 290 291 290 289 290
307 309 310 316 315 314 314 313 314 314 311 300 298 296 292 289 291 291 292 291 291 292 291 292 292 293 296 295 295 293 293 291 290 290 290 290 288 284 282 280 284 288 289 288 289 288 291
307 308 309 316 315 314 313 313 314 314 313 300 298 298 292 290 289 290 290 289 289 287 289 290 293 296 297 295 291 288 287 289 286 287 290 290 290 288 282 280 280 287 292 294 294 287 294
306 308 309 315 314 313 312 312 314 314 312 304 299 300 294 290 291 289 288 290 290 288 288 289 290 292 296 292 288 285 286 288 285 284 285 285 285 284 285 282 285 291 293 294 285 288 294
304 305 307 314 314 313 313 313 313 313 312 307 301 300 297 293 293 294 294 290 290 289 288 289 292 291 291 290 290 287 287 286 285 285 285 285 283 283 283 281 281 293 293 289 292 292 293
304 305 306 312 313 312 312 313 313 313 312 309 300 301 301 295 296 298 298 296 295 294 289 288 290 289 291 288 286 286 284 284 285 284 287 285 287 285 286 285 291 291 292 293 293 292 292

GFSGBSN_sfc_thetae_012.txt.gz
Theta_e
326 327 324 324 325 323 322 320 318 317 318 317 317 316 316 316 315 316 316 316 316 318 319 320 320 320 316 305 304 318 317 316 316 319 315 311 312 313 309 312 312 308 310 311 312 312 311
325 326 324 323 323 323 322 322 319 317 317 317 318 317 316 316 316 315 316 316 317 316 318 319 319 319 309 297 313 315 316 314 311 315 314 313 313 315 312 312 310 312 311 311 312 312 312
323 324 324 323 322 321 321 321 319 317 317 317 319 317 318 317 316 316 315 316 316 316 317 318 318 315 306 302 312 313 312 311 312 311 311 314 316 314 313 310 315 313 307 310 311 311 310
323 324 324 324 322 321 321 321 320 319 317 317 318 318 318 317 316 316 316 316 316 317 316 316 316 312 299 311 315 311 312 310 313 312 314 316 316 312 310 314 311 307 308 302 309 310 311
322 323 323 323 324 322 321 321 321 320 319 317 318 319 318 316 316 316 317 317 317 316 316 316 310 306 298 311 306 311 311 306 310 310 311 313 312 308 310 302 301 306 298 301 303 310 309
322 322 323 323 323 323 322 321 321 320 320 318 318 318 319 318 316 315 315 316 317 315 313 312 310 300 303 300 306 308 310 308 304 308 305 307 304 302 305 300 293 297 298 300 301 305 304
321 321 323 322 323 322 322 321 321 319 320 319 318 318 318 318 317 314 313 310 301 299 303 298 298 298 301 306 310 306 308 305 304 303 295 303 295 293 300 305 303 302 300 300 303 305 302
322 322 322 322 322 323 322 321 320 319 319 319 318 318 318 318 317 316 313 302 302 303 295 302 301 301 305 306 300 303 309 299 298 292 297 297 292 300 305 305 303 303 299 298 303 302 301
322 321 322 323 323 323 322 321 320 319 318 319 317 317 317 316 314 312 310 307 310 308 293 296 300 299 301 303 298 300 304 300 295 293 292 293 295 303 302 302 301 301 298 299 299 301 303
321 322 322 322 322 322 322 322 321 320 319 318 317 317 317 316 309 312 307 308 308 307 286 290 294 297 302 303 296 304 306 299 297 292 293 295 300 300 301 300 303 296 304 302 300 298 295
321 321 321 321 321 321 321 321 321 320 319 318 317 317 317 315 309 305 308 309 308 302 278 293 293 304 301 297 298 299 307 300 294 295 293 292 295 299 299 300 304 300 305 303 301 298 296
320 321 320 321 321 320 321 321 320 320 319 318 317 317 316 313 312 311 311 309 304 285 278 289 294 293 294 296 296 300 301 302 302 296 295 296 304 300 304 305 305 303 301 300 299 295 292
319 320 320 320 321 320 320 320 320 320 319 318 317 316 314 313 306 315 310 302 285 281 291 288 289 293 292 290 293 294 294 292 289 288 288 292 297 304 307 300 300 302 298 290 288 288 290
317 318 320 320 320 320 320 320 320 320 319 318 317 316 314 313 315 314 305 292 282 287 287 293 292 292 288 292 292 293 292 289 294 293 289 286 289 300 306 302 295 297 300 293 285 288 291
313 318 318 319 320 320 319 319 319 319 318 317 316 312 310 313 315 310 296 284 286 289 291 290 291 287 287 291 290 292 291 290 291 294 289 287 289 300 304 302 302 296 294 299 292 292 291
311 313 318 318 319 319 319 319 319 319 317 317 307 305 305 312 313 305 290 288 290 295 292 294 287 290 286 289 288 290 290 293 292 297 300 293 286 296 297 302 297 300 303 292 294 287 286
310 313 317 318 318 318 318 318 318 318 317 314 307 299 309 313 309 295 287 289 293 298 295 293 290 289 290 290 289 290 290 295 297 298 301 298 295 288 295 295 295 298 296 297 297 293 290
310 311 316 317 317 317 318 317 318 317 314 309 305 297 310 309 293 293 289 292 297 297 298 296 296 294 291 292 288 290 291 295 300 302 296 299 297 291 291 296 300 302 298 298 293 289 292
309 310 313 317 317 317 317 317 317 317 312 303 300 302 308 306 290 290 293 294 295 296 295 294 296 297 296 292 289 292 296 300 302 301 299 299 295 289 289 293 295 297 298 301 299 295 292
309 309 311 315 316 316 316 316 316 316 315 306 302 296 301 303 301 295 292 293 294 302 299 300 300 301 296 293 296 293 297 301 304 303 304 301 297 294 290 293 297 294 296 299 299 293 293
309 309 310 311 316 316 316 315 315 315 314 306 301 299 301 292 294 296 297 296 295 296 301 303 299 299 296 292 294 295 299 299 303 304 302 301 294 296 295 296 297 296 295 295 295 297 293
307 308 309 310 313 316 315 314 315 315 313 304 299 297 300 301 301 297 295 296 296 297 298 297 297 299 299 296 297 296 298 299 298 302 300 300 294 293 291 294 295 294 296 296 297 298 297
306 307 308 310 311 316 315 314 314 314 311 302 303 302 300 299 296 296 296 296 297 299 298 299 301 299 297 300 303 304 305 305 303 300 299 299 296 293 290 291 292 290 294 295 296 298 297
305 307 307 309 310 314 315 314 314 314 310 305 303 303 298 295 295 295 297 299 297 299 298 295 299 299 298 299 302 304 303 299 302 298 303 298 296 293 289 289 284 295 296 300 297 299 299
305 305 307 308 309 314 315 314 313 314 312 305 303 304 299 295 296 294 294 295 295 294 293 293 293 296 301 299 298 294 293 294 293 294 296 299 296 291 288 288 291 292 293 293 295 296 299
304 305 305 306 307 312 314 313 313 314 313 306 303 306 300 295 295 295 292 297 293 292 291 292 295 297 302 297 298 290 288 291 288 290 293 294 298 294 288 286 286 292 296 298 299 292 298
303 304 305 306 306 308 313 313 313 313 312 306 304 306 302 296 297 296 295 295 295 294 290 291 293 296 300 295 291 291 289 293 289 289 289 290 291 290 291 287 291 295 298 299 290 293 298
303 303 304 306 307 307 313 312 312 313 312 308 305 306 305 298 300 300 299 294 293 295 292 292 296 295 295 294 293 290 290 293 290 292 291 290 290 289 292 288 286 297 296 294 297 299 300
302 302 304 305 305 307 313 312 312 313 312 310 304 306 306 302 301 302 303 302 299 298 295 292 298 296 299 294 294 293 290 290 292 288 292 290 295 291 293 292 296 297 297 298 302 299 298

GFSGBSN_sfc_thetae_015.txt.gz
Theta_e
323 326 327 325 324 324 324 323 321 319 318 318 318 318 317 317 317 317 317 316 315 316 318 319 320 320 317 307 306 319 318 316 319 321 316 313 308 309 306 310 312 308 310 312 313 313 312
323 324 326 326 324 323 323 323 323 320 318 318 318 318 318 317 317 317 317 316 316 315 316 318 320 320 311 298 314 317 317 316 314 315 315 315 309 311 308 308 308 312 312 311 312 312 312
324 322 325 326 325 323 322 322 322 321 319 318 318 319 318 318 318 318 317 316 316 315 315 317 318 316 306 303 313 315 314 312 313 312 311 315 314 311 311 306 311 311 306 309 310 311 310
323 322 324 325 325 325 323 322 322 321 320 318 318 318 320 318 318 317 317 317 316 316 315 316 316 313 301 313 316 312 313 310 312 313 311 315 316 310 308 313 308 305 306 300 308 310 311
322 323 324 324 324 325 324 323 322 321 321 320 318 318 320 318 318 317 317 317 317 316 316 316 311 308 299 313 307 311 312 307 309 311 311 312 312 306 307 302 300 303 298 300 304 310 309
320 323 324 324 324 323 324 324 323 322 321 321 320 319 319 319 318 317 315 316 317 316 314 313 310 301 304 301 307 309 312 310 305 306 304 305 304 299 300 299 291 297 297 300 300 306 308
321 322 323 322 323 323 323 323 323 322 321 322 320 319 319 318 318 317 313 310 302 299 304 300 300 300 302 307 309 307 309 306 305 302 296 301 294 291 297 298 301 301 300 300 304 307 306
321 322 322 322 323 323 323 323 323 322 321 321 320 318 318 318 318 317 312 303 303 304 295 303 303 303 305 307 300 304 309 300 298 293 297 295 290 298 300 300 300 301 299 300 303 306 304
322 322 322 322 322 323 323 322 322 322 321 320 319 318 318 318 316 313 308 306 310 308 294 296 300 300 301 304 298 301 304 301 296 293 292 291 294 300 298 297 298 300 299 299 299 304 304
321 321 321 321 322 321 321 321 321 321 321 319 319 318 317 316 308 310 307 312 311 308 286 290 294 298 301 301 295 304 307 301 296 292 293 292 297 292 296 294 298 295 303 302 301 300 294
318 319 320 320 321 321 320 321 321 321 320 319 318 318 317 316 312 307 308 309 308 303 279 294 294 304 302 295 298 299 305 302 294 293 292 290 293 292 294 295 302 298 305 302 302 300 298
313 314 318 318 320 320 320 320 321 321 319 319 318 318 317 314 312 311 309 308 304 285 279 289 294 293 293 296 296 300 299 303 301 294 294 293 298 298 298 301 302 305 303 302 301 298 291
309 311 314 318 318 319 319 319 320 320 319 318 318 317 315 312 306 314 309 302 285 281 292 288 289 292 292 291 293 295 293 292 289 285 286 290 290 298 302 299 302 301 297 289 288 288 289
310 310 310 312 318 318 319 319 319 320 319 318 317 317 314 311 315 311 304 291 281 288 288 292 291 291 288 291 292 292 291 288 293 290 287 285 284 291 300 299 295 297 298 291 285 287 291
309 310 310 311 312 318 318 319 319 319 318 317 317 314 311 311 315 310 296 283 286 290 292 291 291 288 288 291 291 291 290 290 292 292 286 287 287 299 302 303 301 295 295 300 294 296 293
308 311 310 311 312 318 318 318 318 318 317 317 310 305 305 315 315 305 291 287 290 295 294 293 286 291 286 287 288 289 290 294 292 294 294 291 286 294 299 302 300 300 304 294 296 287 287
308 310 310 310 313 317 317 318 318 318 318 316 306 299 310 315 311 296 285 288 293 298 296 291 291 290 290 288 290 289 290 294 295 294 296 294 287 288 296 296 295 297 296 299 299 296 290
308 308 310 310 310 316 317 317 318 318 317 310 304 294 310 311 294 292 288 291 296 296 298 295 296 294 291 292 291 291 290 293 298 297 292 298 294 287 291 299 304 302 298 299 294 291 294
307 308 309 309 309 310 316 317 317 317 313 304 299 302 309 306 289 289 292 292 294 294 295 295 294 296 296 293 290 293 294 298 301 296 297 299 294 288 289 294 297 297 300 302 301 300 294
306 307 309 309 309 310 316 316 316 317 314 306 300 296 298 301 299 294 291 291 291 298 296 298 296 297 295 294 296 292 293 299 302 299 304 303 296 294 290 294 296 294 297 300 298 294 294
305 306 307 308 308 311 314 315 316 316 315 306 300 299 300 292 294 295 295 294 293 294 297 298 297 297 295 291 293 293 295 298 301 302 301 301 295 297 297 298 299 297 298 298 297 299 295
305 306 307 307 307 309 311 315 315 315 314 304 298 298 303 299 298 296 295 292 292 294 298 297 295 299 298 295 294 294 297 299 298 302 300 302 295 296 294 297 297 296 298 299 299 300 299
304 305 306 307 309 308 309 314 314 314 312 303 303 305 302 300 300 297 295 293 295 298 301 302 301 300 298 299 302 305 305 305 304 301 299 297 297 294 291 295 295 291 296 297 298 300 300
303 304 305 305 306 308 308 312 314 314 312 306 303 303 300 293 296 297 297 298 296 298 298 300 302 298 304 306 307 307 302 300 302 304 304 298 297 296 291 293 285 296 299 301 299 300 302
303 304 304 305 305 306 307 311 314 314 313 306 304 302 301 295 299 297 296 298 296 298 297 294 299 298 305 304 299 295 293 293 293 295 301 301 298 294 290 290 295 297 295 297 298 297 302
302 304 304 304 305 306 307 308 314 314 314 308 304 306 303 297 297 297 297 298 294 293 292 292 297 303 304 298 297 290 287 290 288 291 295 299 301 296 293 288 286 294 298 300 302 293 304
301 303 303 304 304 305 307 307 313 313 313 308 305 306 304 298 301 299 297 297 298 295 292 293 296 300 304 297 294 294 292 296 290 289 288 290 292 289 289 289 295 298 299 301 290 295 300
300 302 303 303 304 306 306 307 312 313 313 309 305 306 305 302 303 302 301 296 295 297 294 294 297 299 300 295 294 294 294 294 295 297 294 292 290 290 292 289 286 300 298 294 299 301 301
300 302 302 303 303 305 307 307 312 312 312 311 304 307 310 304 303 305 305 304 301 299 296 294 298 297 301 296 297 296 292 294 295 289 295 293 297 295 296 295 298 300 300 301 304 302 302

GFSGBSN_sfc_thetae_018.txt.gz
Theta_e
325 326 326 325 326 327 326 326 324 322 321 319 319 318 318 317 317 317 317 317 317 317 319 319 320 320 316 306 305 319 319 318 318 319 315 312 308 305 303 307 309 307 310 311 311 311 310
322 325 326 325 326 326 324 324 324 324 322 320 318 319 319 318 317 317 317 317 317 317 317 318 319 320 310 298 313 316 317 315 314 313 314 313 309 308 304 304 304 309 310 311 311 310 310
322 322 324 325 325 326 325 324 323 323 323 321 319 319 320 318 318 318 317 317 316 317 317 317 318 315 306 302 313 313 314 312 313 311 307 313 313 309 307 302 309 307 303 308 309 309 308
322 321 323 324 324 325 325 325 323 322 322 321 319 319 319 320 318 318 317 317 317 317 317 317 318 312 300 313 314 312 312 310 311 311 310 311 313 309 305 308 306 303 303 297 306 309 309
323 322 322 324 324 324 325 324 324 323 321 321 321 320 319 320 320 319 317 316 317 318 317 316 310 307 297 315 307 310 311 306 308 309 309 310 308 305 305 299 296 300 293 296 300 308 307
323 323 323 323 324 324 324 324 324 323 322 322 322 321 320 320 319 318 316 314 315 316 315 313 309 300 303 300 307 309 311 310 305 305 304 303 301 298 299 295 286 291 294 296 297 304 305
320 322 322 323 323 323 323 323 323 324 323 322 321 321 319 319 319 318 314 311 303 300 304 299 300 299 302 307 309 306 308 306 304 301 293 298 293 290 293 296 296 296 296 296 300 306 303
317 319 321 322 322 322 323 323 323 322 322 322 321 320 319 319 318 317 313 303 304 305 295 303 303 303 305 307 299 303 308 299 297 292 295 293 289 294 297 297 296 296 295 296 301 304 303
314 317 319 321 321 321 322 322 322 322 322 321 320 319 319 318 316 313 309 306 311 308 294 298 301 301 302 304 299 300 304 300 295 291 291 288 292 297 295 293 293 293 294 295 296 302 303
312 315 316 315 319 320 320 321 320 321 320 320 320 319 318 316 309 309 305 311 312 309 287 290 294 299 301 301 295 304 305 300 295 290 292 291 295 293 292 291 294 289 298 298 299 296 291
310 312 312 313 314 317 318 319 319 320 320 319 319 319 317 315 311 306 309 311 309 303 278 293 295 305 302 295 297 297 305 301 293 292 292 288 291 290 290 292 295 292 300 298 298 296 296
309 311 311 311 311 311 316 318 319 319 319 319 318 318 317 313 311 311 311 309 304 285 277 289 294 293 294 295 295 299 298 302 300 293 293 291 297 295 293 295 295 297 297 297 298 296 289
308 310 310 310 310 309 311 317 318 319 319 318 318 318 315 313 304 311 309 302 284 280 292 288 289 292 291 291 292 293 292 291 288 284 283 289 290 294 296 292 295 295 292 286 286 286 284
308 309 309 310 308 309 312 316 318 319 318 318 317 317 315 311 312 310 305 291 279 288 288 293 291 291 288 291 291 291 290 287 292 290 285 282 281 290 294 290 292 293 289 286 281 282 285
307 308 309 310 309 310 311 313 317 317 317 317 317 314 311 311 312 308 297 282 285 289 292 290 290 287 287 290 290 290 289 288 290 291 284 285 284 295 295 294 298 293 286 295 291 290 287
307 308 309 309 310 309 311 315 317 317 317 317 311 308 307 313 311 303 292 287 289 295 294 293 287 289 285 287 287 288 287 292 291 294 294 288 283 294 295 298 298 298 299 291 292 284 283
306 307 308 309 309 309 310 312 317 317 317 316 306 299 308 312 308 297 285 287 291 296 296 291 290 289 289 287 289 287 288 292 295 293 293 290 286 289 294 294 291 293 293 296 296 292 286
305 306 307 308 308 309 309 310 317 317 317 311 304 294 311 311 295 294 289 291 294 294 297 294 294 293 291 291 288 288 288 292 297 295 289 291 288 285 288 296 300 297 296 295 289 287 289
304 305 306 307 308 309 310 311 316 317 315 306 299 300 310 307 289 289 292 290 293 294 295 294 293 294 296 291 288 290 292 298 297 295 292 292 287 285 288 292 299 295 298 298 297 294 289
303 304 306 307 308 308 309 309 314 317 315 308 300 294 299 301 299 294 290 288 289 296 294 297 295 297 294 291 293 291 292 298 299 297 302 301 293 287 287 291 295 294 296 298 296 289 289
302 304 305 306 307 309 309 309 310 316 313 308 300 296 298 290 292 294 293 292 290 290 296 297 294 294 293 289 291 291 293 296 298 299 298 295 292 292 292 297 297 296 296 297 294 295 289
301 303 304 306 306 306 307 309 310 315 313 305 297 295 299 298 296 294 294 291 290 293 296 294 292 298 297 291 293 291 294 296 295 298 295 295 292 294 292 296 296 295 297 297 297 296 295
301 302 304 305 306 306 306 307 308 313 311 303 304 303 300 298 298 294 294 293 293 295 296 298 297 295 297 296 300 300 301 301 301 297 295 296 294 292 287 292 293 288 294 296 297 298 298
300 301 303 305 305 305 305 307 308 312 313 307 303 303 298 292 294 295 298 297 296 295 295 301 302 298 303 305 306 304 302 300 299 300 301 294 293 293 287 288 280 291 295 298 296 297 299
300 301 303 304 305 305 305 306 308 314 313 306 304 302 299 294 297 295 298 297 298 298 298 297 300 301 302 301 297 293 292 294 294 296 298 298 295 291 285 286 291 292 292 292 293 294 298
300 300 302 303 304 304 304 306 307 308 314 308 304 307 301 296 294 297 296 297 294 293 292 294 298 299 301 299 296 288 286 290 289 291 297 298 297 293 288 282 281 289 294 297 297 288 297
299 300 302 303 303 304 304 305 307 308 313 309 305 308 303 296 300 298 295 295 299 295 292 293 294 297 303 295 292 290 290 294 288 288 288 292 291 290 289 286 290 295 295 297 287 289 296
299 300 301 303 303 304 304 305 307 308 313 310 305 307 304 299 301 302 301 296 296 296 292 294 295 297 297 292 292 292 291 292 292 293 290 290 288 289 289 287 284 296 295 291 295 296 297
299 299 300 302 302 303 304 305 307 308 312 311 304 307 307 302 302 304 305 304 301 301 296 295 296 298 301 296 294 293 290 291 290 288 296 290 293 292 292 292 297 297 297 298 300 297 297

GFSGBSN_sfc_thetae_021.txt.gz
Theta_e
324 324 325 324 325 326 327 326 326 325 323 321 320 319 319 318 317 317 316 316 317 316 317 319 319 320 316 305 304 317 320 320 318 318 315 312 306 302 298 302 304 304 307 310 311 311 310
325 324 324 324 325 325 325 326 326 325 324 323 321 319 319 319 318 317 317 316 316 316 316 316 318 319 309 296 311 314 316 313 313 315 313 312 308 308 302 300 300 305 306 307 310 311 310
324 325 324 324 324 325 325 325 325 324 323 324 322 320 320 319 318 318 318 318 316 316 316 316 316 315 306 301 310 311 315 312 311 309 306 311 313 309 307 300 306 305 301 303 304 308 308
322 323 325 323 324 324 324 325 324 324 323 323 322 321 320 320 319 318 318 317 317 317 316 316 316 310 299 312 312 310 310 308 309 308 308 308 309 307 305 306 301 299 301 294 301 305 309
317 319 322 324 323 323 324 324 324 324 324 322 323 321 320 320 320 320 318 316 316 316 318 316 309 305 296 315 307 309 309 305 306 306 306 308 305 304 302 297 292 296 289 292 297 305 305
314 315 318 320 322 322 323 323 323 323 324 323 322 322 320 320 320 319 317 314 314 314 315 314 310 299 303 299 307 308 308 308 303 303 303 301 297 293 293 293 285 288 289 291 293 299 302
311 313 314 318 319 322 322 322 322 323 323 322 322 321 320 319 319 318 312 307 300 299 305 299 299 298 301 306 308 306 307 304 304 299 293 296 290 287 290 294 293 292 290 290 295 302 300
311 310 312 314 317 319 321 321 321 322 322 321 321 321 320 319 319 318 309 300 303 304 295 304 304 302 305 307 299 303 307 298 296 292 293 290 287 292 295 295 295 292 290 290 295 300 299
309 310 310 311 314 314 317 320 320 321 321 320 320 320 320 318 318 312 307 304 309 308 296 298 301 301 302 304 298 299 303 299 294 291 291 287 290 295 293 292 291 291 289 289 290 297 300
308 309 310 310 312 312 315 316 318 319 319 319 319 319 318 317 308 307 304 309 308 308 288 290 294 299 302 302 295 305 305 300 295 290 292 290 293 291 291 290 291 286 293 293 292 293 289
307 308 308 309 310 311 313 313 314 317 318 318 319 319 318 314 305 303 307 310 310 305 275 291 295 305 302 296 297 298 306 301 292 291 291 287 289 289 288 289 292 288 295 293 292 291 291
306 307 308 309 310 310 311 311 313 316 317 317 318 318 316 310 309 310 310 309 304 286 274 289 294 293 293 296 296 299 298 302 300 294 293 290 295 293 291 293 293 294 291 291 292 292 284
305 307 308 308 309 309 310 309 313 314 317 317 318 318 314 312 302 310 308 300 285 279 290 288 289 292 290 291 292 293 292 291 288 284 284 288 289 293 295 290 292 291 286 278 280 281 281
305 306 307 308 309 310 310 309 312 315 316 317 317 317 314 311 311 309 304 292 279 285 286 293 291 291 288 290 291 291 290 287 292 288 285 280 276 288 293 290 288 288 286 281 273 280 284
304 305 306 307 308 309 310 309 310 312 315 316 316 314 311 310 311 308 296 283 282 286 292 290 290 287 287 290 289 289 287 288 289 290 281 280 281 292 293 294 292 287 283 290 286 288 286
304 305 306 306 308 309 308 308 310 313 315 316 311 309 308 311 310 304 291 286 287 295 294 292 286 288 284 286 286 288 285 289 289 292 292 287 281 290 291 295 293 292 295 284 285 281 280
304 304 305 306 307 308 308 308 308 314 316 316 307 301 309 311 309 298 285 288 292 297 296 291 289 289 288 286 287 285 286 290 292 292 293 291 286 286 289 288 287 290 287 291 290 287 283
303 303 304 305 306 307 308 309 310 313 316 313 304 295 309 309 294 293 289 292 295 294 297 294 293 292 290 290 287 286 286 289 296 295 289 291 287 282 286 296 297 295 291 291 284 286 289
302 303 303 305 305 307 308 309 309 310 314 307 299 301 308 305 288 289 293 292 294 293 293 293 292 294 294 291 286 288 290 297 296 294 291 291 286 280 286 291 296 292 294 295 292 293 289
302 302 303 305 305 307 306 307 309 310 314 308 300 293 300 301 299 294 291 289 290 294 293 295 294 295 293 291 292 289 290 296 297 296 298 295 289 286 285 289 294 291 292 293 291 289 289
302 301 302 303 305 306 306 307 308 309 314 307 300 296 297 290 292 294 294 292 289 288 294 295 292 293 291 287 289 288 292 293 296 299 297 294 286 289 290 292 295 295 293 293 293 294 289
301 301 302 302 304 305 306 306 307 308 313 305 296 296 298 295 296 294 293 291 290 291 293 293 291 294 293 289 291 289 293 292 292 296 292 294 286 292 291 296 295 294 296 296 296 296 294
301 300 301 302 304 305 305 305 306 308 309 304 303 303 300 298 295 292 292 292 292 293 295 297 295 294 292 296 299 298 299 298 298 295 292 292 291 292 285 294 294 290 294 295 296 296 297
301 300 301 302 303 304 305 305 306 308 308 307 304 303 297 293 295 294 296 295 293 294 293 297 297 295 299 304 302 304 302 299 300 300 297 292 292 293 287 287 280 290 296 299 297 297 298
301 300 300 301 303 304 305 305 306 308 308 306 304 303 300 293 297 296 294 296 297 297 296 296 300 298 302 301 296 293 293 294 294 295 296 296 292 291 284 284 288 290 291 291 292 292 295
301 301 300 301 302 303 304 305 306 307 308 307 304 307 302 296 294 297 292 295 293 293 293 296 299 298 302 298 295 286 285 287 289 292 296 298 297 292 285 280 280 288 293 294 294 287 294
301 301 300 300 302 303 304 304 305 307 307 308 305 308 303 296 299 299 294 294 299 295 293 293 295 296 302 295 291 289 288 293 288 289 288 291 292 285 287 285 287 293 294 295 285 287 294
300 300 299 300 301 303 303 304 305 307 308 309 305 308 304 298 300 301 299 294 297 296 292 295 295 296 296 292 292 292 290 291 288 293 289 289 289 289 289 286 281 294 292 288 293 294 294
300 299 299 299 301 302 303 304 305 306 308 310 303 307 308 301 301 304 302 302 301 303 298 296 296 297 299 295 292 294 291 289 289 287 292 290 293 291 290 291 296 295 294 296 297 295 294

GFSGBSN_sfc_thetae_024.txt.gz
Theta_e
321 324 325 324 323 324 325 326 326 326 326 324 322 320 319 319 318 317 317 316 316 316 316 318 319 320 314 304 304 315 320 321 318 320 315 311 305 302 297 299 301 299 303 308 310 310 310
319 320 323 324 325 324 323 325 325 326 326 324 323 321 320 319 319 318 317 316 316 316 316 315 317 319 308 295 311 313 316 312 313 314 313 312 307 306 301 299 298 300 302 304 306 307 309
315 316 317 320 323 324 324 324 324 325 324 324 324 323 321 320 319 318 318 318 317 316 316 316 316 314 305 299 309 310 311 310 311 309 307 313 312 307 305 299 303 302 298 301 301 302 304
314 314 315 316 318 321 323 323 324 324 324 325 324 323 321 320 319 319 319 318 316 316 316 316 316 310 297 311 311 309 309 308 308 308 307 307 307 302 301 304 299 296 295 290 298 302 304
312 313 313 314 314 317 321 322 322 323 323 324 323 323 322 320 320 320 319 317 316 315 317 317 309 303 294 313 307 308 308 305 305 305 306 308 303 299 300 297 292 292 285 288 294 302 302
310 310 311 311 312 314 318 319 322 322 322 323 322 322 321 320 320 319 319 316 313 313 314 315 310 300 302 299 306 307 307 307 303 302 301 299 296 292 292 292 284 288 285 288 289 297 299
310 310 310 311 312 312 313 317 317 322 321 321 321 320 320 320 319 319 313 306 299 298 305 301 299 298 300 305 308 306 307 304 302 298 290 295 289 286 289 291 292 290 288 287 291 297 295
308 309 309 310 311 311 312 314 315 318 321 320 320 320 320 320 319 318 307 298 300 301 294 302 303 302 304 306 299 303 306 297 295 290 292 291 288 291 292 292 292 291 288 287 291 295 295
305 307 308 308 309 310 311 312 314 315 320 320 319 319 319 319 318 313 307 304 307 305 295 298 301 300 302 304 298 299 302 298 293 291 291 286 289 293 292 290 289 290 289 288 289 293 294
307 305 307 308 309 309 310 311 312 314 317 318 318 318 318 318 309 306 303 307 307 307 287 290 294 299 302 303 296 305 305 300 295 290 291 290 293 291 290 288 290 285 293 292 291 288 282
306 305 306 307 308 308 309 311 311 313 315 316 317 318 318 315 304 302 304 308 308 304 270 290 294 305 302 297 298 298 306 300 292 291 291 287 288 289 287 289 292 287 293 290 290 288 287
305 305 306 306 308 308 309 310 311 311 313 314 316 317 317 311 309 309 310 309 303 279 270 288 294 292 293 296 296 299 298 302 300 294 293 290 295 293 291 292 293 294 290 290 287 286 280
305 304 305 306 307 307 307 309 310 310 312 313 314 317 314 310 304 310 308 300 281 272 289 287 289 291 290 291 292 294 292 291 288 284 282 288 289 293 295 290 292 291 286 278 277 276 276
305 304 305 305 306 307 307 308 310 310 311 313 313 316 314 310 310 309 304 291 274 283 286 293 291 291 287 290 290 292 290 287 291 289 285 282 279 288 293 290 288 287 286 278 270 273 276
304 304 304 304 306 307 307 309 309 309 309 312 313 313 310 309 311 307 296 283 278 285 291 289 290 286 286 290 289 289 289 287 289 291 283 282 281 291 292 293 291 287 283 288 280 283 280
304 303 304 304 305 306 306 309 308 309 309 311 308 309 306 310 310 303 291 286 286 294 294 292 285 289 284 286 287 286 285 288 289 291 292 284 277 287 290 293 293 290 291 281 282 273 274
303 304 303 303 305 305 306 308 309 309 310 313 307 300 307 311 308 295 285 288 291 296 295 291 289 289 288 286 286 284 284 289 291 290 291 288 283 284 288 286 285 287 284 287 285 283 277
303 303 303 303 305 305 306 306 308 309 311 310 305 291 307 309 293 292 288 291 295 294 297 294 293 292 290 290 285 284 284 287 293 293 286 290 287 280 283 291 293 290 287 287 281 280 286
303 303 303 302 305 305 306 307 307 309 310 307 300 299 307 305 286 287 293 292 294 293 294 292 291 293 294 290 286 287 288 294 296 293 290 291 286 280 282 287 290 287 290 290 291 289 283
303 302 302 302 304 306 305 306 306 308 310 308 299 290 298 300 299 292 290 290 290 295 294 294 293 295 292 289 292 288 289 294 297 295 298 295 289 284 281 287 292 288 289 291 290 284 284
303 302 301 301 303 305 305 306 307 307 309 307 300 294 297 290 292 294 294 293 290 290 293 295 291 292 291 287 288 288 291 292 296 298 296 292 286 288 289 289 289 292 291 291 285 289 285
302 302 301 301 302 304 305 305 306 307 309 304 297 296 298 294 296 294 293 292 290 291 292 290 290 293 294 288 288 287 291 292 291 295 292 293 285 285 285 290 290 290 293 293 290 289 288
302 301 301 301 302 303 305 306 306 307 308 304 303 302 299 295 294 292 292 292 292 294 295 296 294 293 291 292 295 296 297 297 297 293 291 291 287 286 286 293 292 289 293 288 288 293 291
302 301 301 301 301 302 304 305 305 306 307 304 304 301 296 293 294 293 295 295 294 294 293 296 297 294 296 301 301 300 301 297 298 296 297 290 289 291 287 290 280 290 295 300 296 297 297
301 301 301 301 300 302 303 304 305 306 308 304 304 303 299 293 296 296 296 294 295 296 295 296 298 299 300 301 295 292 292 293 294 296 298 294 291 288 286 283 287 289 291 291 293 293 293
301 301 301 301 300 301 303 304 305 306 307 305 304 306 301 296 294 298 294 296 292 292 293 296 299 300 302 299 295 287 283 285 288 291 295 295 295 290 283 280 280 287 292 292 292 286 293
301 301 300 300 299 301 302 303 304 305 307 306 305 308 303 296 299 299 295 294 297 295 292 294 296 295 301 295 291 287 285 291 287 288 288 291 289 286 284 285 286 292 293 293 284 286 292
301 301 300 299 299 301 302 303 304 305 306 306 305 306 305 299 300 301 299 296 297 296 292 295 295 295 296 292 291 292 290 290 287 292 286 289 288 287 286 281 279 293 292 287 291 293 292
300 300 300 299 299 300 301 303 304 305 306 307 303 307 309 302 300 305 304 303 301 302 298 297 296 297 299 295 294 291 291 287 287 284 289 287 291 288 289 288 293 293 293 295 295 294 292

GFSGBSN_sfc_thetae_027.txt.gz
Theta_e
316 316 317 317 319 322 325 324 325 325 324 325 325 323 321 319 319 318 318 317 317 316 316 318 319 319 313 304 304 313 322 320 318 321 315 311 303 300 295 297 300 297 301 305 307 309 308
315 315 315 315 316 318 319 322 324 324 324 325 326 324 322 321 319 319 318 317 316 316 316 315 317 318 306 294 309 312 313 312 313 316 313 312 307 306 301 298 296 299 300 301 303 304 306
313 313 313 314 314 314 316 318 321 323 323 323 324 324 323 321 319 319 318 318 317 316 316 315 316 313 304 299 308 309 310 308 309 312 310 312 311 306 305 299 301 300 295 298 300 301 301
311 312 312 312 313 313 313 316 318 320 322 322 323 323 323 321 320 319 318 319 318 316 315 316 316 309 296 310 310 308 308 306 307 309 307 308 312 304 302 305 298 294 292 288 295 300 302
309 310 311 311 311 312 312 312 316 318 320 322 322 322 322 321 320 320 319 318 317 315 316 316 308 302 293 310 306 308 308 304 304 304 305 308 306 300 301 297 293 292 284 286 292 300 300
308 308 308 309 310 311 311 312 312 314 316 319 321 321 321 321 320 319 318 317 314 312 313 315 309 299 301 298 306 307 307 307 302 301 300 299 298 295 295 293 283 285 285 284 287 294 296
308 307 307 307 309 309 310 311 312 312 315 317 319 319 320 320 319 319 315 307 299 296 303 300 300 298 300 305 307 305 306 303 301 297 289 294 287 285 289 290 290 289 286 285 290 295 292
307 308 308 306 307 309 309 309 310 312 313 315 317 319 319 319 320 318 308 299 298 301 293 302 303 301 303 306 298 302 306 297 295 289 291 290 286 290 291 290 290 289 287 287 290 293 291
306 307 306 306 307 308 308 309 310 311 312 313 314 318 318 319 319 313 307 304 306 304 292 296 300 300 302 304 298 299 302 297 292 289 289 286 288 293 291 289 287 287 286 287 287 291 292
306 306 306 306 307 307 308 308 309 310 311 313 313 318 317 318 311 309 304 308 306 305 283 287 294 298 302 303 296 304 304 299 295 289 290 289 293 290 288 287 288 284 290 290 289 287 281
306 306 306 306 306 306 307 308 308 309 309 310 312 312 317 316 306 304 304 307 306 300 268 289 294 305 303 297 298 297 305 300 292 291 290 286 288 288 286 288 291 287 292 290 289 285 283
306 306 306 305 306 305 306 308 308 308 308 310 311 312 315 309 308 306 308 308 304 282 270 287 294 293 294 296 297 299 298 302 300 294 293 289 293 291 290 292 292 293 290 290 288 285 277
306 305 305 305 305 306 307 307 307 307 309 309 311 313 314 310 303 309 309 301 284 274 287 286 288 291 290 290 291 294 291 291 289 284 284 289 289 291 294 289 292 291 286 278 276 277 274
305 305 305 304 305 305 306 306 307 310 310 309 311 312 313 311 310 309 304 289 275 282 283 292 290 289 285 289 290 291 290 286 292 290 285 282 281 288 292 290 287 286 286 279 272 272 273
305 305 304 304 304 305 305 306 307 309 309 308 309 307 308 309 310 308 296 282 278 283 289 289 289 286 286 289 290 289 289 287 289 289 283 281 278 289 292 293 291 287 283 288 281 280 278
305 305 304 304 304 304 305 306 308 308 308 308 304 303 304 310 310 303 290 283 284 292 292 291 283 287 284 286 286 287 286 287 288 290 292 285 277 286 289 293 293 289 290 281 282 272 270
304 304 304 304 303 303 305 306 307 308 309 309 303 296 307 311 307 296 285 288 289 295 294 290 288 289 288 286 287 285 284 287 290 289 292 289 283 280 288 286 284 286 284 285 284 279 271
304 304 304 303 302 303 304 306 307 308 309 307 300 288 307 308 292 291 287 291 295 294 295 294 293 291 289 289 287 285 283 286 292 291 287 290 285 279 282 290 292 290 286 286 279 276 279
304 304 303 303 302 304 305 306 306 307 308 303 295 296 306 304 284 286 292 292 294 293 294 293 292 293 294 290 287 286 287 293 293 291 288 291 285 279 281 286 289 286 288 289 288 286 279
303 303 303 302 302 303 305 305 306 307 308 304 296 288 297 297 296 290 290 290 290 295 294 295 293 294 291 290 292 287 287 293 294 293 297 294 288 284 279 284 286 284 286 288 287 281 282
303 303 302 302 302 302 304 306 307 306 307 305 299 291 294 288 291 290 292 292 290 290 294 295 291 292 291 288 288 288 289 291 295 297 295 292 285 287 287 288 288 287 288 287 285 287 283
303 302 302 302 302 301 303 305 306 306 308 304 297 295 296 294 295 293 292 291 290 291 292 290 290 292 292 289 289 286 289 290 290 294 293 293 285 285 284 288 288 287 289 290 288 288 289
302 302 302 302 302 301 302 305 306 306 306 301 303 303 298 295 294 292 292 293 292 294 294 296 293 292 291 293 296 295 295 295 296 293 291 289 286 285 282 291 289 284 288 290 291 292 291
302 302 302 301 302 300 301 304 305 306 306 303 303 302 295 291 293 293 294 294 293 295 293 295 296 294 297 299 297 296 296 295 297 296 296 290 287 287 285 288 281 291 296 295 292 292 292
302 302 302 301 300 300 301 303 304 305 306 303 304 302 296 293 295 295 295 295 296 296 295 295 298 299 301 299 292 291 291 292 293 295 294 295 291 287 286 284 288 288 293 291 290 291 294
302 302 302 301 300 299 301 302 304 305 306 303 303 306 300 294 293 298 296 296 294 293 293 294 300 300 300 296 293 286 285 288 287 291 295 296 295 289 286 281 279 286 290 292 295 286 294
301 301 301 301 300 299 300 301 303 305 305 304 303 306 302 295 298 299 295 295 297 294 292 294 295 294 300 293 290 287 285 288 285 287 285 288 290 287 286 284 285 291 293 292 283 285 292
301 301 301 301 300 299 300 300 303 305 305 304 302 306 304 298 299 301 300 297 297 295 291 294 294 295 295 291 289 290 289 288 287 291 289 287 287 287 284 281 278 292 292 287 289 291 291
301 301 300 300 300 299 299 300 303 304 304 305 302 307 308 302 300 305 304 303 302 302 298 297 295 296 298 294 293 293 290 289 285 282 287 286 290 287 287 286 292 292 292 294 294 293 290

GFSGBSN_sfc_thetae_030.txt.gz
Theta_e
313 313 314 314 314 315 315 316 318 320 324 324 324 324 323 322 320 319 318 318 317 316 316 318 319 319 312 304 304 312 322 318 317 320 315 312 302 299 295 296 298 296 299 303 304 304 306
311 312 313 313 312 313 313 314 315 317 320 322 323 324 323 323 320 319 319 318 317 316 316 315 317 318 305 292 306 310 310 310 313 318 314 312 308 305 299 297 295 297 298 299 301 301 302
310 310 310 310 311 312 312 312 313 313 316 320 322 322 322 322 321 319 319 318 317 316 316 315 316 312 302 298 307 308 309 306 307 313 311 313 311 305 304 297 301 298 294 296 298 299 299
310 309 310 309 309 310 311 311 312 313 314 316 318 321 321 321 321 320 319 318 318 317 316 316 316 307 294 308 308 308 307 305 306 307 307 308 313 305 301 302 300 297 294 286 294 298 299
310 309 309 309 310 308 309 310 311 312 313 314 316 318 320 321 321 320 320 319 318 317 316 316 306 300 292 309 305 307 306 302 303 304 304 308 305 298 297 295 291 294 287 286 290 297 297
308 308 308 308 309 308 309 310 310 311 310 312 313 316 318 320 320 319 320 317 316 312 312 314 308 296 299 298 304 306 306 306 301 301 300 298 297 294 294 292 281 283 287 289 288 292 293
307 306 307 308 308 308 308 308 309 310 310 311 312 315 315 319 319 319 315 308 300 295 302 298 300 298 299 304 307 304 305 303 300 296 289 293 288 287 290 291 292 290 287 288 290 293 290
308 308 308 307 307 307 308 308 309 309 310 311 311 313 314 317 319 319 310 300 300 299 291 300 301 301 303 305 298 301 305 296 294 289 291 289 285 289 291 290 289 289 287 287 289 292 290
308 308 307 307 307 307 307 307 308 308 309 310 310 311 313 315 318 313 307 303 306 303 290 295 299 300 301 304 298 298 301 296 291 288 288 285 286 292 290 288 286 285 284 284 284 288 290
308 307 307 307 306 306 306 307 307 308 308 309 309 309 311 312 313 309 304 307 307 303 278 286 293 297 301 302 294 303 303 297 292 287 289 288 292 290 288 286 287 283 289 288 287 285 279
306 307 307 306 306 305 305 307 307 307 307 307 308 308 310 311 309 304 306 306 307 295 268 289 294 305 303 295 297 296 304 299 291 289 289 286 287 287 286 287 289 286 291 288 288 285 283
307 307 306 306 305 305 306 306 307 307 306 308 309 309 310 309 310 308 309 309 301 278 273 287 293 293 294 296 297 298 299 302 300 293 292 290 293 291 288 291 291 292 289 289 289 285 278
307 307 306 306 305 305 305 306 306 307 307 309 309 309 309 310 303 309 309 301 282 277 286 285 288 291 291 290 292 294 292 292 289 284 284 288 290 293 293 287 291 290 286 278 277 277 275
306 306 305 305 305 305 304 305 307 307 309 309 308 310 309 310 310 309 304 289 274 282 283 292 289 289 286 289 289 290 290 287 292 290 285 282 276 289 292 288 285 286 286 279 272 272 272
306 306 305 305 305 304 304 305 307 308 307 308 308 306 306 309 310 308 295 280 279 282 289 288 289 284 284 288 289 289 289 285 289 290 284 281 279 288 291 292 290 287 283 288 281 281 278
306 305 305 305 304 304 303 305 307 307 307 308 300 301 302 310 310 303 290 282 283 290 291 290 282 286 284 286 286 287 286 287 289 291 293 286 279 285 289 291 292 289 290 281 282 274 272
305 305 304 304 304 303 303 305 306 307 307 308 301 295 304 310 307 295 285 286 287 294 293 289 286 285 286 285 287 286 283 286 289 288 290 289 284 280 288 285 284 286 284 286 283 280 270
304 304 304 304 303 303 302 304 306 307 307 305 297 289 306 308 290 291 288 290 295 292 294 293 291 290 289 288 287 286 283 286 291 290 286 289 286 280 282 290 291 289 286 285 278 276 278
304 304 304 303 303 303 303 304 306 307 307 301 294 295 307 302 284 286 291 291 293 292 292 292 291 293 293 290 286 288 286 292 292 290 287 289 285 277 279 285 289 285 287 288 286 285 278
303 303 303 303 302 302 303 303 306 306 307 303 293 289 294 297 295 290 288 290 289 294 294 295 293 294 291 290 292 288 287 292 292 292 296 294 287 282 278 283 286 284 285 287 285 280 280
303 303 303 303 303 302 302 304 305 306 307 304 296 289 292 285 288 291 292 290 289 289 294 296 292 291 290 287 288 289 289 290 293 294 293 291 285 286 287 288 287 286 287 286 284 285 281
302 303 303 303 302 302 301 303 305 306 307 302 295 294 296 291 293 291 292 290 290 291 292 290 291 292 292 289 288 286 288 288 288 292 292 293 285 285 284 288 287 285 287 288 287 287 286
302 302 303 303 302 301 301 302 304 306 306 298 302 303 299 293 292 291 290 291 291 293 294 294 293 292 291 292 296 295 295 294 292 292 291 289 286 285 282 287 287 285 287 288 288 290 288
302 302 302 302 302 301 300 301 303 306 306 301 301 302 297 290 292 291 294 294 293 293 292 295 295 294 297 300 299 297 292 293 294 293 295 289 288 286 283 286 281 290 297 294 291 292 292
302 302 302 302 302 301 300 301 302 304 306 302 303 301 298 292 295 294 294 294 294 296 295 295 297 299 301 299 293 287 287 289 291 294 294 294 291 286 285 284 288 290 293 290 288 289 294
302 302 302 301 301 301 300 300 301 304 305 303 302 305 301 294 293 297 295 295 293 293 294 296 299 302 300 295 292 284 283 288 287 290 294 294 293 289 285 282 280 288 291 295 294 287 294
302 301 302 301 301 301 300 300 301 303 305 302 302 306 303 295 296 297 294 295 297 294 292 294 295 294 299 292 288 287 284 289 285 286 287 289 290 287 286 284 285 291 293 292 284 285 292
301 301 301 301 301 301 300 300 301 303 304 302 300 304 303 297 297 299 300 297 296 296 290 294 293 295 294 290 289 289 288 289 286 289 288 287 287 286 286 283 278 292 291 286 289 291 292
301 301 301 301 301 301 300 300 301 303 303 303 299 305 309 302 300 304 303 303 303 302 298 297 295 296 297 291 292 293 291 288 284 282 286 284 289 286 287 285 291 292 292 293 293 292 289

GFSGBSN_sfc_thetae_033.txt.gz
Theta_e
312 312 311 311 311 310 312 312 313 313 315 317 320 322 323 323 323 321 320 318 317 317 316 317 318 319 312 305 305 313 320 317 319 320 316 311 304 301 297 299 301 300 301 304 305 303 304
311 311 311 311 311 311 310 310 311 312 313 314 317 319 320 322 323 322 320 318 318 317 316 315 317 317 306 292 306 309 310 310 316 319 315 313 308 305 301 299 298 300 300 300 302 302 303
310 311 310 310 310 309 309 309 310 310 311 313 314 316 318 321 322 321 320 319 318 317 316 315 316 312 302 298 308 309 309 307 309 317 312 315 312 306 305 300 303 301 296 298 299 300 300
309 309 309 309 309 309 309 308 309 311 311 311 311 314 316 318 320 321 320 319 318 318 317 316 316 307 294 308 309 308 308 306 307 309 311 315 314 309 304 302 299 297 296 290 296 299 300
308 308 309 309 310 309 308 308 309 309 310 311 311 312 313 316 318 320 320 320 319 318 317 316 306 300 293 308 304 308 306 303 304 305 307 311 306 300 300 295 290 293 286 288 291 298 298
309 309 309 309 309 309 309 308 308 309 310 310 311 311 313 314 315 319 319 318 317 313 313 313 309 297 299 298 304 305 307 306 301 301 300 300 298 294 295 291 281 285 286 288 289 294 294
311 310 309 308 308 308 308 307 307 308 309 309 310 310 311 313 314 317 316 309 300 298 303 296 299 297 299 304 307 304 306 303 301 297 291 294 290 287 291 291 291 289 288 287 292 295 292
309 307 308 308 308 308 307 307 307 307 308 309 309 309 310 311 314 315 311 301 300 300 291 299 301 302 303 305 297 301 305 297 295 289 292 290 286 291 292 292 291 290 288 287 290 293 291
308 309 309 308 308 307 307 307 306 307 308 308 308 308 309 309 312 311 306 303 305 303 290 294 298 298 301 303 297 297 301 297 292 289 289 286 288 293 291 288 287 287 286 286 285 289 290
309 309 308 308 307 307 307 306 306 307 307 307 307 307 307 309 305 310 304 307 307 303 279 286 293 297 301 303 295 304 303 298 293 288 289 288 292 290 288 287 288 283 289 288 287 285 280
308 308 308 307 307 306 306 306 306 306 306 307 307 307 308 308 304 304 307 308 305 299 268 288 293 305 302 295 296 297 303 299 291 289 290 286 288 287 287 288 289 286 291 288 288 285 284
308 308 307 307 306 306 306 306 305 306 307 307 309 310 309 305 306 305 309 307 300 282 270 287 293 293 294 295 297 298 298 302 299 292 291 288 293 291 289 291 291 292 289 289 288 286 279
307 307 307 306 306 305 305 305 305 306 308 307 308 309 307 306 300 310 309 301 282 275 287 286 287 292 292 290 292 294 292 291 288 283 283 289 290 293 293 288 290 290 287 278 277 278 276
307 306 306 306 305 305 305 304 304 307 308 307 308 308 307 307 309 310 304 290 277 282 283 291 290 290 287 290 290 291 290 288 292 290 285 281 278 289 293 290 286 287 286 279 273 274 276
306 305 305 305 305 305 304 304 304 307 307 306 306 301 301 305 310 308 294 281 278 283 288 288 288 285 284 288 289 289 288 288 290 292 284 282 280 289 291 292 291 286 283 288 281 282 279
305 305 305 305 305 304 304 304 304 306 307 307 301 300 301 308 310 302 289 284 284 289 291 290 282 285 282 285 285 287 286 288 288 291 291 286 278 285 289 292 292 289 290 281 282 274 273
304 304 304 304 304 304 303 304 304 306 307 307 299 294 302 309 307 293 284 285 288 293 293 288 286 285 285 285 286 286 284 287 290 289 292 290 285 281 288 285 284 286 284 286 285 282 276
305 304 304 304 304 303 303 303 304 306 307 304 298 287 303 308 287 286 287 290 295 292 294 292 291 290 287 287 287 286 284 285 290 290 286 289 286 280 281 288 290 289 287 286 280 278 280
304 304 304 304 303 303 303 303 304 305 307 300 294 295 304 300 283 286 292 291 293 291 291 291 290 292 292 289 285 288 286 291 291 290 286 289 284 278 278 284 288 285 287 288 287 285 279
304 303 304 303 303 303 302 302 304 305 307 303 294 288 289 296 295 290 288 289 289 294 293 294 293 294 291 290 291 288 288 291 291 291 295 293 286 281 277 282 287 283 285 287 285 280 281
303 303 303 303 303 303 302 301 303 305 307 303 295 290 292 285 288 290 291 290 288 288 293 295 291 291 289 286 288 288 290 290 292 294 294 291 285 285 286 287 287 286 285 286 283 284 280
303 303 303 303 303 303 302 301 303 305 307 300 294 293 293 290 293 291 290 289 289 290 290 290 289 291 291 288 289 286 289 288 288 291 290 292 285 286 284 288 288 285 287 287 286 286 285
303 303 303 303 303 302 301 301 302 304 305 297 299 302 298 292 291 290 289 290 290 293 293 293 293 292 290 292 295 296 293 294 293 291 290 290 287 285 282 288 287 284 288 290 289 289 287
303 303 303 303 302 302 302 300 301 303 305 300 300 299 295 289 291 290 291 293 292 293 292 294 295 293 297 300 299 297 295 294 294 293 294 290 287 286 283 286 280 291 297 294 291 291 291
303 302 302 302 302 302 302 301 301 302 305 301 302 298 298 291 293 293 293 292 294 295 294 295 297 299 302 298 292 288 288 288 290 292 292 293 290 286 284 284 287 290 291 292 291 290 294
302 302 302 302 302 301 302 301 301 302 304 301 300 304 300 294 292 297 293 295 292 292 294 296 300 302 300 295 291 284 283 284 286 290 294 294 293 289 285 282 279 288 292 295 294 287 295
302 302 302 302 302 302 301 300 300 302 304 301 299 304 301 295 296 298 295 294 297 295 292 294 295 295 299 291 287 286 284 287 284 285 287 288 288 285 285 285 285 291 292 293 284 287 293
302 302 302 302 301 301 301 300 300 302 304 301 298 303 301 294 297 298 299 296 296 295 291 294 293 293 293 289 287 289 287 289 286 286 286 287 286 287 287 284 279 291 292 287 290 291 293
302 302 301 301 301 301 300 299 300 302 303 303 296 302 303 301 298 303 304 303 302 301 297 296 295 295 297 292 289 292 287 289 284 281 286 284 288 287 287 286 292 292 293 293 292 291 290

GFSGBSN_sfc_thetae_036.txt.gz
Theta_e
311 311 311 311 310 310 311 310 310 310 312 312 313 315 318 320 322 323 322 320 319 318 317 316 318 318 316 307 307 317 319 319 323 324 318 313 309 307 302 304 305 303 304 306 308 308 307
311 310 310 310 310 310 310 309 309 309 310 312 312 312 315 316 320 321 322 320 319 318 317 315 316 317 308 297 311 313 314 316 321 320 317 316 311 308 304 303 303 304 304 304 306 306 306
310 310 310 310 310 311 311 310 309 309 309 311 312 312 312 314 317 320 321 321 319 318 317 316 317 313 306 301 311 313 313 313 317 319 314 315 312 308 308 303 307 304 300 303 303 304 303
310 310 310 310 310 310 309 309 309 309 309 310 311 312 312 313 314 317 320 321 320 318 317 316 317 310 299 310 314 310 311 311 316 318 318 317 316 309 306 306 302 298 299 294 300 301 303
311 311 310 310 310 310 309 308 308 308 308 309 310 311 311 312 314 315 318 321 320 318 318 317 310 304 298 309 305 308 311 308 311 311 312 316 313 305 304 299 296 297 292 293 296 301 300
312 309 309 309 310 309 309 308 308 308 307 308 309 310 310 311 312 314 316 320 318 317 315 314 309 300 303 300 305 308 310 309 306 307 305 305 303 298 297 295 288 290 291 293 293 297 298
310 309 309 309 310 310 309 308 308 307 307 307 308 309 309 310 311 313 312 310 300 299 305 299 300 299 301 306 310 306 308 306 306 304 296 300 294 291 294 296 296 293 292 292 295 298 295
309 310 310 310 309 309 308 308 308 307 307 307 308 308 309 309 310 311 311 302 302 306 295 303 304 303 305 306 299 303 308 300 299 295 298 294 289 295 296 296 294 293 291 291 294 296 295
310 310 310 309 309 308 308 308 307 307 307 307 307 307 308 308 308 307 305 305 310 307 297 297 301 301 303 304 299 300 304 300 297 293 294 291 292 295 294 293 291 292 290 290 290 293 294
310 309 309 309 309 307 307 307 307 307 306 307 308 308 308 308 303 304 302 310 308 307 291 290 295 298 302 304 297 305 305 300 296 292 293 293 296 292 292 290 292 287 293 291 289 288 285
309 309 308 308 308 307 306 307 306 306 306 307 308 309 309 309 302 300 307 309 308 303 280 292 294 306 303 297 299 299 306 300 293 292 293 290 291 291 289 290 293 289 293 291 290 288 287
307 308 307 307 307 306 306 306 306 305 307 307 308 307 309 307 305 305 310 307 303 286 279 288 294 294 294 296 297 300 299 302 300 294 294 293 296 294 293 294 294 294 291 290 290 287 280
306 307 306 306 306 306 305 305 305 305 307 307 307 307 307 307 299 308 309 300 284 282 290 286 288 293 292 291 293 295 293 291 289 285 285 291 292 295 295 290 294 292 287 281 279 279 280
306 305 305 306 306 305 305 305 305 305 305 307 307 308 307 305 309 309 304 289 281 285 287 292 291 292 288 291 291 292 291 288 294 291 288 285 284 291 295 291 288 288 287 283 276 279 282
306 306 305 305 305 305 305 305 305 304 307 307 307 306 306 307 310 307 293 284 284 287 291 289 289 286 286 289 290 290 289 289 292 293 285 285 283 292 294 294 293 288 284 291 283 285 280
306 306 305 305 305 305 305 304 304 304 307 307 300 302 301 309 309 302 288 286 287 293 293 292 285 288 284 286 287 287 288 292 291 295 296 289 283 289 291 294 294 291 293 283 284 276 276
305 305 305 305 304 304 304 304 303 305 306 307 299 295 302 310 303 292 285 287 291 295 295 291 288 287 288 287 288 287 288 291 294 293 296 292 287 285 289 286 287 287 285 287 287 285 279
305 305 304 304 304 304 304 303 303 305 306 303 297 289 303 307 288 288 287 292 295 293 297 294 294 292 290 290 288 288 288 290 294 295 290 292 288 282 285 292 293 292 289 288 282 280 283
305 305 304 304 304 304 304 302 303 305 306 301 294 293 303 304 286 288 290 292 294 293 294 293 292 294 294 290 287 290 290 294 295 294 291 293 286 281 285 288 290 287 289 289 289 287 282
304 304 304 304 304 303 303 302 303 305 307 305 294 288 292 295 295 291 290 290 290 297 295 296 294 295 293 290 292 289 289 293 294 294 296 295 289 285 282 287 290 285 287 288 286 281 283
304 304 304 303 304 303 303 302 303 305 307 304 297 291 294 287 290 293 294 292 290 290 296 296 293 293 291 288 289 289 291 292 294 294 294 292 285 288 288 289 289 288 287 287 284 285 282
304 304 304 303 303 303 303 302 302 305 306 299 293 294 296 292 293 293 293 291 291 292 293 292 291 293 293 289 290 288 290 290 290 293 291 293 286 287 285 289 289 286 289 289 288 288 286
304 303 303 303 303 303 302 302 301 304 305 297 299 301 298 292 292 291 292 292 292 295 295 296 295 293 292 293 296 296 297 296 295 293 292 291 287 285 283 288 289 287 290 291 291 291 289
303 302 303 303 303 302 302 302 301 303 304 300 299 298 294 289 292 291 293 294 293 294 293 296 296 294 297 302 300 299 297 296 297 296 296 291 288 287 284 286 281 293 297 296 292 293 293
303 303 303 303 303 302 302 302 301 302 304 301 300 297 296 290 293 292 294 294 296 296 295 295 298 299 303 298 292 290 289 290 292 294 295 295 290 286 284 284 288 293 295 292 290 291 295
303 303 303 302 303 302 302 302 300 302 304 302 300 303 300 295 292 296 295 296 293 293 294 296 301 303 301 295 291 285 283 287 287 291 295 293 292 287 286 282 282 292 296 297 297 288 295
301 302 302 302 302 301 302 301 300 301 303 302 299 303 298 297 300 299 295 295 298 297 293 295 296 297 300 292 288 287 287 292 287 287 289 289 288 285 286 284 289 296 298 297 288 288 295
301 301 301 301 301 301 301 300 300 300 302 301 298 302 297 297 301 301 302 299 298 298 292 295 294 294 293 289 289 289 289 292 291 292 291 289 288 287 288 286 284 297 300 293 296 298 297
300 299 299 299 299 299 299 299 299 300 301 301 296 301 301 298 302 306 306 306 304 303 299 297 295 295 295 292 292 294 290 294 292 288 294 289 294 293 292 293 298 299 299 300 298 296 296

GFSGBSN_sfc_thetae_039.txt.gz
Theta_e
311 311 311 312 311 311 312 312 311 310 310 310 311 313 313 313 316 318 322 323 321 320 318 317 318 319 316 307 309 322 319 320 324 325 319 315 310 308 304 305 306 304 305 307 309 309 309
310 311 311 311 311 311 311 311 310 310 310 310 310 311 313 313 313 315 319 322 321 320 318 317 317 318 310 301 314 317 316 317 319 321 318 316 311 311 307 305 304 306 306 306 307 307 308
311 312 312 311 311 310 310 311 310 310 310 310 310 310 311 312 313 314 316 321 321 320 318 317 318 315 307 303 312 315 315 316 321 319 316 317 316 310 309 304 308 306 301 304 305 306 304
311 314 311 311 311 310 311 310 310 310 310 309 309 310 310 311 312 313 316 319 321 320 318 317 318 311 302 312 315 311 314 315 320 322 319 319 316 310 306 307 304 300 301 296 303 304 304
313 311 310 311 311 310 310 310 309 309 309 309 309 309 310 311 311 312 314 316 319 319 318 317 311 307 301 310 305 310 312 311 314 316 318 319 313 306 305 300 298 299 294 296 299 304 302
311 311 311 311 311 310 310 310 309 309 308 308 308 308 309 309 310 311 312 315 318 317 315 314 310 302 305 301 306 308 312 313 309 309 309 308 305 300 301 298 291 294 294 296 295 300 300
310 311 311 310 311 310 310 309 309 308 308 308 308 308 308 308 310 310 310 309 305 303 306 301 301 300 303 307 309 306 309 309 308 305 297 301 295 292 296 298 298 296 294 293 297 300 298
311 311 311 310 310 310 310 309 308 308 308 308 307 308 308 308 309 309 307 300 302 304 296 304 304 304 306 307 300 303 309 301 301 295 298 295 291 298 299 298 296 295 293 293 296 298 296
311 311 309 310 309 309 308 308 308 307 307 307 306 308 308 308 308 307 303 300 309 308 297 299 303 302 303 305 300 300 304 302 298 295 295 293 295 297 296 294 292 293 291 292 292 295 296
309 308 308 308 308 307 307 307 307 307 307 306 307 308 308 308 302 305 301 306 309 307 289 290 295 300 304 304 298 306 307 302 298 295 296 295 298 294 293 292 294 289 295 293 291 290 286
307 308 308 307 307 307 307 307 307 306 306 306 306 308 308 308 302 300 304 309 308 303 280 293 295 306 304 298 300 300 307 302 295 294 295 292 293 293 291 292 295 291 294 292 292 289 288
307 307 307 307 306 306 306 306 306 306 306 307 306 307 308 306 307 306 309 309 303 283 280 288 295 294 294 297 298 300 300 303 301 295 295 295 298 296 295 295 296 295 292 290 290 287 281
306 308 307 307 306 306 306 306 305 305 305 307 307 308 306 307 301 310 308 301 283 280 291 287 289 293 292 291 293 296 294 292 291 285 286 292 292 295 296 292 294 293 288 283 281 279 280
307 307 307 306 306 306 305 305 305 305 305 307 307 308 308 308 309 308 299 289 281 287 288 293 292 293 289 291 292 293 293 288 293 292 289 285 285 292 295 292 290 289 288 283 278 280 284
306 306 306 305 306 305 305 305 305 304 306 307 307 305 306 307 310 304 292 283 286 289 291 290 291 287 288 291 292 292 291 289 293 294 288 286 285 294 295 296 293 289 284 291 284 285 281
306 306 305 305 305 305 305 305 304 304 306 306 301 300 303 309 309 301 289 286 289 294 294 293 286 289 285 288 289 289 289 294 291 296 297 291 285 291 294 295 295 292 294 283 284 276 277
306 306 306 305 305 305 305 305 303 304 306 306 300 293 304 310 308 294 285 289 292 296 296 292 290 288 288 287 289 288 289 293 296 295 296 293 289 287 291 288 288 289 286 288 288 285 280
306 306 305 305 304 304 304 304 303 305 306 305 297 287 304 305 290 289 288 292 295 294 297 295 295 293 291 291 289 290 290 292 297 296 290 293 289 283 287 293 294 293 289 288 281 282 284
305 305 305 304 304 304 304 304 303 305 307 303 291 293 304 303 287 287 291 293 295 294 295 295 293 295 295 292 288 291 292 296 296 295 292 293 287 282 285 289 292 289 290 291 290 288 282
305 305 305 304 304 304 303 304 303 305 307 305 293 288 295 300 298 293 291 291 291 298 297 298 296 297 294 292 294 290 291 294 296 296 297 297 290 286 283 288 291 287 289 291 287 283 284
304 304 304 304 304 304 303 304 303 305 307 304 298 292 295 289 293 294 295 293 291 291 297 298 294 295 293 290 291 290 293 293 296 296 295 293 286 288 289 290 291 290 289 290 286 287 282
303 303 303 303 304 304 303 303 302 305 306 301 292 294 297 294 295 294 294 292 291 293 295 293 293 294 294 291 292 290 292 291 290 294 292 293 286 288 284 290 290 288 291 291 291 290 289
304 304 304 303 303 303 303 303 302 304 305 297 299 300 298 293 293 292 293 294 294 296 296 297 296 295 292 294 297 297 297 297 296 293 291 291 287 285 283 290 289 287 292 292 292 293 292
304 304 304 303 303 303 302 303 301 303 304 301 299 297 294 290 292 292 294 295 295 296 294 297 298 295 298 303 302 300 298 296 296 296 296 291 288 286 285 288 282 293 299 297 293 294 295
303 302 303 303 303 302 302 302 301 302 304 301 301 297 295 292 294 293 294 295 296 297 296 297 298 301 304 300 293 290 290 290 293 295 295 295 291 287 283 284 289 294 296 294 292 291 296
302 302 302 302 302 302 302 301 301 301 303 301 300 302 298 294 293 297 295 295 293 294 295 297 302 304 301 296 291 286 283 288 287 290 295 295 294 288 286 282 281 293 298 299 298 289 296
301 301 300 301 301 301 301 300 300 301 302 300 300 302 297 295 300 300 295 295 299 297 295 297 297 298 300 292 288 287 287 293 288 288 289 288 288 284 285 283 289 298 299 299 289 290 298
301 300 299 299 299 299 299 299 299 300 301 300 298 302 296 293 301 303 303 300 300 300 293 297 294 294 293 289 289 290 289 292 291 293 292 290 288 286 287 285 284 300 301 294 298 300 299
300 300 299 299 298 298 298 299 300 299 300 300 295 300 300 295 302 306 307 307 305 304 300 299 296 295 296 291 291 294 291 294 293 288 296 290 294 292 293 293 302 304 302 302 300 298 298

GFSGBSN_sfc_thetae_042.txt.gz
Theta_e
312 313 313 313 312 312 311 312 311 312 312 312 311 310 311 312 314 314 315 317 321 323 321 319 318 319 314 308 308 322 325 324 326 324 318 314 307 305 301 302 304 302 304 306 307 307 306
313 312 315 312 312 312 312 312 312 311 311 311 311 311 310 311 312 313 314 315 318 322 320 319 318 319 309 298 316 319 317 317 318 320 318 316 310 310 306 304 302 304 304 304 305 305 305
314 314 312 313 312 312 312 312 311 311 311 311 311 310 310 310 310 312 313 315 317 321 320 319 317 314 305 302 312 316 315 315 318 318 316 318 316 309 309 303 307 305 299 302 303 303 302
313 314 313 312 313 312 313 311 311 311 310 310 310 309 309 309 310 311 312 314 315 318 320 319 317 311 301 313 314 311 314 314 318 320 319 319 317 311 307 307 304 299 299 293 301 303 303
312 312 312 313 313 311 312 311 311 310 310 310 309 309 309 309 310 310 311 312 313 317 320 318 310 307 299 310 306 310 312 310 314 315 318 318 314 306 305 298 296 297 289 292 296 302 300
311 313 311 312 312 312 311 311 310 309 309 309 308 309 309 308 309 309 310 311 313 314 316 314 310 301 303 301 305 308 311 313 309 311 310 309 305 300 300 296 287 290 291 293 293 297 298
311 313 312 310 310 311 310 310 309 308 309 308 308 308 308 308 309 309 308 306 302 300 306 300 300 300 302 307 309 305 309 309 307 306 297 303 296 292 295 298 298 296 292 290 294 298 295
313 310 309 309 310 309 309 308 308 308 308 308 308 307 308 308 309 308 306 297 298 302 297 304 304 304 306 307 299 303 310 302 300 295 298 294 290 296 298 298 295 293 290 290 294 297 294
309 309 309 309 309 309 308 308 308 308 307 307 307 307 307 309 308 305 301 300 308 307 292 298 303 302 302 305 299 300 305 302 298 294 295 291 294 298 296 294 292 291 289 289 289 293 293
310 310 308 309 309 308 307 307 307 307 306 306 306 307 307 308 303 301 298 305 307 307 285 292 296 300 303 304 297 305 306 302 298 293 295 293 297 294 293 292 293 287 294 292 291 287 281
310 308 309 308 308 307 307 307 307 307 306 306 306 306 307 308 301 298 303 307 307 299 276 293 295 307 304 299 299 299 306 302 294 294 295 291 293 292 290 292 294 289 294 291 291 286 284
309 308 308 308 307 307 306 307 306 306 305 306 306 307 307 304 305 304 308 306 301 282 276 289 294 295 295 298 298 300 300 303 301 295 295 294 298 295 294 295 295 295 291 290 288 285 277
308 308 307 307 306 306 306 306 306 306 305 305 306 307 306 306 299 308 307 299 281 277 290 287 289 293 293 292 294 295 293 292 288 284 285 290 291 295 296 291 294 292 287 275 276 277 274
306 307 307 307 306 306 306 306 306 305 305 306 307 308 307 307 309 305 301 289 277 286 287 292 292 292 288 292 292 292 291 288 292 291 287 283 282 291 294 291 289 289 287 276 273 274 277
306 307 307 306 306 306 306 306 305 304 305 307 307 304 305 307 308 303 292 282 283 288 291 290 291 287 287 290 291 291 290 289 291 293 287 285 285 294 295 295 294 287 282 288 282 281 273
306 307 307 306 306 306 306 306 305 305 306 307 301 300 301 308 307 300 288 286 287 294 294 293 286 289 284 287 288 289 289 292 291 294 295 291 283 291 294 295 294 291 292 282 280 267 271
305 306 307 306 306 305 305 305 305 306 307 309 300 291 303 308 305 294 285 285 291 296 296 292 289 287 288 287 289 287 287 293 294 294 295 293 286 286 290 287 286 287 285 287 285 283 273
305 306 306 306 305 305 305 305 305 306 308 304 298 288 304 307 290 289 287 290 296 295 298 296 295 291 289 289 288 288 288 292 297 295 290 293 289 282 284 291 293 291 287 286 279 277 280
305 306 305 305 305 305 304 305 304 306 308 303 292 293 304 302 285 287 289 292 295 294 295 295 293 295 293 290 286 291 291 295 296 293 292 293 286 275 283 286 289 285 288 289 288 286 280
305 305 304 304 304 304 304 304 303 305 308 303 294 288 294 298 297 289 291 291 291 298 297 297 295 296 293 291 293 290 290 294 295 295 298 296 289 282 277 282 287 281 287 288 287 281 281
304 305 305 305 304 305 304 304 303 306 308 305 298 292 295 289 292 292 294 293 290 291 297 298 295 295 293 289 290 289 292 292 294 296 293 291 284 287 287 288 288 287 287 289 286 287 283
304 305 305 305 304 304 303 303 302 306 307 300 292 292 297 293 294 294 293 292 292 294 295 293 293 294 294 291 292 289 292 291 290 292 292 293 283 284 280 287 287 285 289 290 289 290 290
304 303 304 304 304 304 303 303 302 304 305 297 299 300 295 294 293 292 293 293 293 296 296 297 296 294 293 294 296 296 295 295 295 291 290 290 285 284 282 288 287 283 290 291 292 294 292
303 303 303 303 303 303 303 302 302 302 304 300 299 297 293 290 292 292 294 296 295 296 294 296 297 295 298 301 300 298 295 294 295 295 294 288 288 286 282 284 276 291 298 296 293 294 295
303 302 302 301 302 303 302 302 301 302 303 299 300 297 294 291 294 293 294 294 297 297 296 296 298 300 302 298 291 289 289 290 291 293 292 294 289 285 282 280 285 290 294 292 289 290 297
303 302 301 301 300 301 301 301 300 301 302 299 300 301 297 292 293 296 294 294 292 293 294 297 301 304 300 295 291 285 281 286 286 289 294 294 292 287 283 279 278 289 294 297 296 286 295
302 301 301 300 300 299 299 299 300 301 301 299 299 301 296 293 300 298 294 294 298 296 294 297 297 297 300 292 287 286 285 290 286 287 287 287 288 285 284 283 285 293 297 298 285 286 295
302 301 301 300 300 299 299 299 299 300 300 298 297 301 295 292 295 303 303 300 299 299 293 296 294 294 293 289 288 287 285 289 287 292 288 287 286 285 284 283 279 297 298 290 293 295 295
301 301 301 300 300 300 299 299 299 299 299 300 296 300 300 293 297 306 307 307 305 302 300 298 296 294 296 291 291 291 289 289 288 286 293 288 291 289 289 287 297 300 297 297 296 294 293

GFSGBSN_sfc_thetae_045.txt.gz
Theta_e
314 314 315 315 313 313 313 313 313 312 313 313 312 312 312 312 311 311 312 314 316 318 320 322 320 319 315 305 306 322 331 329 325 323 317 314 308 304 298 299 301 298 301 304 305 304 304
314 314 314 314 314 314 314 313 314 313 312 312 312 312 311 310 310 310 311 313 314 316 319 322 320 319 309 298 315 320 320 321 322 319 316 316 308 306 302 301 298 301 301 302 303 303 303
317 313 313 314 313 314 314 313 313 312 312 312 311 310 310 310 310 310 311 312 313 314 316 321 320 314 305 302 310 315 315 314 317 317 314 317 315 306 305 300 305 303 297 299 300 301 300
314 313 314 313 313 313 312 312 312 312 311 310 310 310 310 309 310 310 310 311 312 313 315 320 319 310 299 313 310 311 312 312 316 319 318 319 317 310 306 304 301 297 296 290 299 301 302
312 313 314 314 311 310 311 311 310 310 310 309 309 309 309 309 309 309 310 310 311 312 314 320 311 306 297 311 307 309 310 310 314 317 317 318 314 307 305 298 293 293 286 289 294 300 300
312 314 311 310 311 311 311 310 310 309 309 309 309 308 308 308 308 309 309 310 310 310 313 314 309 300 303 299 306 308 308 311 310 312 310 309 305 299 298 294 285 288 288 288 290 296 297
312 310 310 310 311 311 310 310 309 309 309 308 308 308 308 308 308 308 305 301 295 296 303 297 298 298 302 306 308 305 308 308 309 306 296 302 294 290 293 295 294 293 291 287 291 296 292
310 313 312 309 311 310 309 309 308 308 308 308 307 307 308 308 308 308 304 294 296 300 290 300 303 303 305 306 298 303 308 302 301 295 297 295 290 296 299 298 296 293 288 287 291 294 291
310 311 309 310 310 309 309 308 308 308 308 307 307 307 307 308 308 304 298 297 305 304 289 297 302 301 301 305 298 299 305 302 298 295 294 289 292 297 295 293 291 288 285 286 287 290 289
309 310 309 309 309 308 308 308 307 307 307 307 307 307 307 307 303 301 298 302 305 303 284 289 296 300 303 304 296 304 306 302 298 293 295 293 295 294 292 291 291 285 291 291 289 285 279
310 308 309 308 308 307 307 307 307 307 306 305 306 306 307 307 299 298 301 304 304 298 273 291 296 307 303 299 298 298 306 302 294 294 294 289 291 291 289 291 293 289 293 290 289 284 281
309 308 309 308 308 307 307 307 307 307 305 305 305 307 308 303 303 302 306 304 299 281 273 288 295 295 294 297 297 299 299 302 301 295 295 292 295 293 292 294 293 294 290 288 286 282 275
307 307 308 308 307 307 307 306 306 306 306 306 307 308 306 306 298 304 305 297 278 274 286 286 290 293 293 292 293 295 293 291 286 282 280 288 290 293 295 290 292 292 284 272 278 277 273
306 307 308 308 307 307 306 306 306 306 307 307 307 309 306 307 308 304 300 286 274 283 284 293 293 292 289 292 292 293 291 286 290 288 281 278 276 289 292 289 287 287 285 274 272 273 275
306 307 307 307 307 306 306 305 305 306 308 309 309 301 303 305 307 301 291 279 280 287 290 290 291 287 287 291 291 290 289 287 289 289 282 281 282 293 294 294 291 286 282 287 281 276 269
305 307 307 307 306 306 306 305 306 306 308 309 300 298 298 305 304 296 288 285 286 292 294 292 285 288 284 288 287 288 287 291 290 293 292 290 283 290 294 295 294 287 289 278 275 265 269
305 306 305 305 305 306 305 305 305 306 308 309 293 292 301 306 301 292 283 285 289 296 296 292 287 287 287 286 288 287 287 292 293 292 294 292 286 286 291 286 285 286 286 286 283 279 271
305 306 306 305 305 305 305 305 305 306 308 304 294 287 302 304 288 289 285 287 296 294 297 295 292 290 287 288 286 288 285 290 295 295 289 293 287 282 283 289 291 289 285 284 273 274 277
305 306 307 306 305 305 305 305 304 306 309 296 292 291 302 301 284 285 288 291 295 295 296 295 292 293 293 289 285 289 290 295 296 294 291 292 286 272 282 284 289 284 287 287 285 284 274
305 306 305 305 305 305 304 304 304 305 308 298 294 286 292 296 294 289 290 290 291 298 296 295 292 293 292 290 291 289 289 293 294 295 299 296 287 279 275 279 285 280 285 286 285 279 280
305 305 304 304 305 304 304 304 303 306 308 303 294 290 292 287 290 292 294 292 291 291 295 296 293 293 292 288 289 289 291 290 293 296 292 290 280 284 285 287 286 284 285 286 283 285 281
304 304 303 303 304 304 304 303 303 304 306 295 293 291 293 289 294 292 293 291 291 292 293 292 291 293 293 290 290 288 291 290 287 289 288 290 278 283 276 285 285 282 286 287 287 287 288
304 303 303 302 303 303 303 302 302 303 304 296 298 298 295 290 289 288 289 291 292 294 295 295 294 292 291 293 294 293 294 292 292 289 289 290 285 275 274 285 285 281 286 287 288 290 290
303 303 302 301 301 302 302 302 301 302 303 298 299 296 292 286 289 290 294 295 294 294 292 295 296 294 296 299 298 296 294 293 293 292 292 288 287 281 276 280 275 288 294 294 291 293 294
303 303 302 301 300 300 300 300 300 301 302 297 300 296 293 289 291 290 292 295 296 294 296 296 297 297 299 296 290 289 288 289 290 291 292 292 286 283 279 277 283 290 292 291 289 288 295
303 303 302 301 300 300 299 299 300 301 301 297 299 300 296 291 289 295 293 294 292 290 291 297 299 302 298 294 290 285 280 284 283 288 291 293 291 287 284 276 277 288 293 295 294 285 293
302 303 301 301 300 300 299 299 299 300 300 298 297 300 295 292 297 298 293 292 297 295 292 296 297 297 299 291 285 285 283 288 283 285 286 286 288 284 283 282 283 290 294 297 284 286 293
302 303 301 301 300 300 300 300 299 299 300 297 295 300 294 292 294 299 302 297 297 297 290 294 294 294 293 289 286 286 284 286 286 290 287 285 285 285 286 282 279 293 294 289 292 293 293
302 302 302 301 300 299 300 299 299 298 299 298 293 299 300 292 295 302 304 306 303 299 298 294 293 293 295 291 290 288 286 287 286 285 291 286 288 287 286 285 292 295 295 294 294 293 292

GFSGBSN_sfc_thetae_048.txt.gz
Theta_e
316 318 314 314 314 313 315 314 314 314 314 314 313 313 312 312 311 311 311 310 312 314 315 317 320 320 315 303 304 318 328 328 324 322 316 311 307 304 298 299 301 296 299 302 304 304 302
316 315 314 314 314 315 314 312 313 312 313 312 311 311 311 311 310 310 310 310 311 313 314 317 318 320 308 295 312 318 322 322 321 319 316 314 309 307 300 299 298 300 301 301 302 302 302
314 313 313 315 313 312 312 312 312 311 311 311 311 310 310 310 310 310 310 310 311 311 313 315 316 315 305 300 310 317 320 319 321 319 313 316 315 305 304 300 304 301 297 298 299 300 299
312 314 315 312 311 312 312 311 311 311 311 310 310 309 309 309 309 309 309 310 310 311 312 313 315 312 299 312 311 310 311 311 316 317 318 319 318 309 304 303 300 297 295 290 297 299 300
313 313 312 311 311 312 312 311 310 310 310 309 309 309 308 309 308 308 309 309 310 311 312 313 310 306 296 314 306 309 310 309 314 316 317 320 315 306 303 295 291 292 286 289 293 299 299
313 311 312 312 311 312 311 310 310 309 309 309 308 308 308 308 308 308 309 309 309 309 309 310 311 298 301 299 306 308 307 311 311 312 310 309 306 300 299 294 285 287 287 287 289 294 295
311 311 313 310 311 310 309 309 309 309 308 308 308 307 307 308 308 308 305 298 292 293 301 295 296 298 301 305 308 306 307 307 310 305 298 304 297 293 296 298 294 293 290 287 290 295 290
311 311 311 311 310 309 309 309 309 308 308 307 307 307 307 307 308 308 302 294 293 298 290 299 300 300 304 305 299 303 308 302 302 295 297 297 290 296 299 298 295 292 290 287 290 293 290
310 311 309 310 310 309 309 308 308 308 308 307 306 306 307 307 308 303 297 297 303 301 290 293 298 300 301 304 297 298 304 302 298 294 293 290 292 297 295 294 292 288 285 285 287 289 288
310 308 309 310 309 308 308 308 308 307 307 306 306 306 306 307 300 300 297 303 303 303 284 289 294 300 302 303 296 304 307 302 298 294 294 291 295 294 292 291 290 284 290 290 288 285 279
310 308 309 309 309 308 308 307 307 307 307 307 308 308 308 307 298 295 301 303 303 298 273 291 295 307 303 298 297 299 306 302 293 294 294 288 291 290 289 290 292 288 292 289 287 282 280
308 307 308 309 308 308 307 307 307 306 306 308 308 308 309 305 303 301 305 304 299 278 273 287 296 295 294 295 296 299 300 302 301 296 294 290 295 293 291 293 293 293 288 286 284 280 271
307 307 307 309 308 307 307 307 306 306 307 308 309 310 308 307 298 303 304 296 277 273 285 285 290 294 292 291 292 295 294 291 287 284 284 289 289 292 294 289 291 289 281 270 271 269 272
306 307 308 307 307 307 307 306 306 307 307 309 310 308 305 306 307 303 299 286 273 281 282 292 292 293 289 291 292 293 291 287 290 287 282 280 277 289 292 289 286 285 282 272 270 273 274
305 306 306 306 306 306 307 306 306 306 308 310 307 299 301 305 305 301 291 279 280 283 288 291 291 287 288 290 291 291 289 288 289 289 281 278 281 292 292 292 290 284 277 285 276 275 269
306 306 307 306 306 306 307 306 306 306 309 309 296 295 299 306 304 298 287 284 286 290 294 292 284 287 284 287 287 288 288 290 289 291 291 287 279 291 293 295 293 287 288 276 272 264 269
305 306 307 307 306 305 306 305 305 308 310 307 296 290 301 305 302 292 282 285 288 296 296 291 287 286 287 286 287 286 286 290 292 291 291 289 282 286 291 285 284 285 283 282 280 277 270
306 306 306 306 306 305 305 305 305 307 309 300 291 287 301 305 287 289 285 286 294 294 297 294 291 290 287 288 287 286 285 290 294 293 288 291 285 279 283 288 290 288 285 283 273 273 275
305 306 304 305 305 305 305 305 304 306 308 295 289 289 302 301 283 286 288 290 294 294 293 294 290 292 291 287 284 287 289 295 296 293 290 290 283 274 280 283 287 282 286 286 283 282 271
305 305 304 304 304 304 304 304 304 305 307 296 291 281 288 295 293 289 289 289 291 297 294 293 291 293 290 289 289 287 287 293 296 296 299 295 284 279 275 278 282 277 284 285 282 275 276
304 305 303 303 303 304 304 303 303 304 306 300 290 286 290 287 292 292 292 291 291 290 294 294 292 292 291 287 287 287 289 289 293 296 293 290 281 283 284 285 285 283 283 284 279 284 279
304 304 303 302 302 302 303 302 302 304 305 295 291 290 294 292 294 290 291 290 290 291 292 291 290 293 292 288 289 287 289 287 287 289 287 288 277 283 275 284 284 280 285 285 285 286 286
303 304 302 302 301 301 300 301 302 303 301 296 297 297 295 289 287 286 288 290 291 293 295 295 293 292 291 292 293 292 293 292 291 288 287 289 285 277 274 283 283 278 284 286 286 287 289
302 304 302 302 301 300 300 300 301 302 301 297 298 296 292 285 287 288 291 293 292 293 291 295 296 292 295 298 296 295 293 292 291 292 292 288 285 278 274 279 273 286 293 292 289 290 291
302 304 302 301 301 300 300 300 300 301 302 297 299 296 293 288 288 289 291 292 293 294 294 295 296 296 298 295 289 288 288 288 289 291 291 290 286 277 279 277 282 289 292 290 288 288 292
302 303 303 301 301 300 300 300 300 300 301 297 298 300 295 290 287 293 292 291 288 287 291 296 298 300 296 292 289 283 281 283 283 287 292 292 290 284 283 276 277 287 291 294 292 283 293
301 302 303 301 301 300 300 299 300 299 300 297 296 299 294 291 293 294 293 292 295 291 291 295 296 295 298 289 286 284 282 288 283 284 285 286 287 283 282 281 284 289 291 296 283 285 292
301 302 303 301 301 300 299 299 299 299 299 294 294 300 294 290 293 298 300 293 297 296 291 295 293 294 292 288 287 285 283 286 285 288 286 284 283 284 284 282 277 291 293 289 292 292 292
301 301 302 301 301 301 300 300 300 299 298 297 292 298 300 291 292 298 300 302 301 301 298 296 293 293 295 291 289 286 284 285 284 285 289 284 286 285 287 285 291 292 294 293 293 292 291

GFSGBSN_sfc_thetae_051.txt.gz
Theta_e
315 315 314 314 316 314 313 313 313 312 313 312 312 312 312 312 312 312 311 311 311 311 311 314 316 318 315 303 301 314 324 329 320 319 315 312 306 303 298 299 299 296 298 302 303 303 301
315 314 315 316 313 312 313 313 313 312 312 312 311 311 311 310 310 310 310 310 311 311 312 313 314 316 308 294 309 313 315 321 318 319 315 312 307 306 300 298 299 299 300 301 301 301 300
313 313 314 312 313 313 312 313 312 311 311 311 310 310 310 310 309 310 310 310 310 310 311 312 313 310 304 299 309 313 321 319 321 319 313 314 312 307 302 298 302 300 295 297 299 299 299
313 314 312 314 313 312 312 311 310 310 310 310 310 309 309 309 308 309 309 309 310 310 311 311 312 308 300 311 310 308 313 316 319 319 316 317 317 307 303 301 299 296 294 289 296 299 300
314 312 313 314 312 312 311 310 309 309 309 309 309 308 308 308 308 309 309 309 310 310 311 311 306 302 296 314 306 307 309 308 312 315 316 318 314 305 301 296 291 291 285 288 293 299 297
312 312 312 311 312 312 311 310 309 310 309 309 308 308 308 308 308 308 309 309 308 307 306 307 307 298 301 299 306 307 307 313 311 312 310 310 307 300 296 292 285 287 286 286 288 293 294
312 312 312 310 311 311 310 309 309 309 309 309 308 308 307 308 308 308 304 297 291 291 297 294 298 297 300 305 308 304 306 309 310 305 299 303 297 293 296 295 293 291 289 287 290 293 290
311 311 310 310 311 310 310 309 309 308 308 308 307 306 306 307 308 308 301 294 294 296 288 299 298 299 303 304 299 302 308 303 303 296 299 297 293 297 301 299 297 294 290 289 290 292 289
311 311 309 310 310 310 309 309 308 308 308 307 307 307 307 307 307 301 296 297 301 300 289 292 296 297 300 303 298 298 304 303 299 295 294 292 293 300 298 295 293 290 286 285 286 289 287
310 309 308 309 310 309 309 308 308 307 306 306 308 308 308 308 300 299 295 303 301 301 277 285 291 297 302 302 295 303 306 302 299 291 293 291 295 295 292 292 291 284 290 289 287 284 279
309 309 308 309 309 308 308 308 307 306 307 308 308 309 310 308 300 296 300 301 301 298 271 289 292 306 303 296 297 298 306 302 294 294 293 288 291 290 289 290 291 288 291 288 286 282 279
309 308 308 308 306 307 307 308 306 307 308 309 309 310 308 305 303 302 304 303 298 279 274 286 294 294 294 296 297 300 300 302 301 294 293 290 295 292 290 292 292 292 287 285 283 280 272
307 307 308 307 307 307 307 308 306 307 308 309 310 309 306 307 298 304 304 296 274 273 285 285 289 293 292 292 294 295 294 291 289 285 284 289 289 291 293 288 291 288 281 271 271 270 273
307 307 308 309 307 307 306 306 306 307 309 310 309 306 306 304 303 303 295 282 273 281 281 290 292 292 289 292 292 293 291 287 290 288 283 282 280 288 291 288 286 283 282 273 270 272 274
306 307 308 307 308 306 307 306 306 308 310 310 305 297 299 305 305 301 291 280 280 283 287 290 291 287 288 290 291 291 289 287 289 288 282 278 280 291 291 292 290 284 277 284 275 274 271
306 307 308 306 306 307 306 306 306 308 310 308 294 296 297 306 304 297 287 283 285 289 294 290 284 288 284 287 288 288 288 291 289 290 290 285 279 290 291 294 292 286 288 277 272 265 269
306 306 306 306 305 306 306 306 305 307 309 306 292 290 298 304 299 287 279 285 289 296 296 290 286 286 286 285 287 286 287 290 291 290 290 288 282 285 291 286 284 285 281 281 279 276 269
306 306 305 305 304 305 305 305 305 306 308 299 289 285 301 304 284 288 285 287 293 294 295 293 290 289 286 287 286 286 285 288 293 292 287 289 283 282 284 287 289 287 284 282 274 272 273
305 306 304 304 303 304 304 304 304 306 307 294 288 291 302 297 281 286 290 291 294 293 292 292 289 290 290 287 284 286 287 293 293 291 289 289 281 273 278 283 285 282 285 284 281 277 272
305 305 304 304 303 303 303 303 303 305 307 295 288 281 288 296 294 290 290 290 291 296 293 292 290 292 289 287 289 286 287 293 294 293 298 293 282 279 275 277 280 277 283 284 280 273 275
304 305 304 303 303 302 301 302 303 304 305 297 289 288 291 287 290 293 292 292 288 289 293 293 290 290 290 286 287 286 288 290 293 296 292 289 281 282 283 284 284 283 283 283 277 282 274
303 305 304 303 302 301 301 301 302 303 304 295 291 289 291 291 293 288 289 288 288 290 291 290 290 292 291 287 287 286 288 287 287 291 289 288 280 283 276 283 283 280 284 284 284 284 284
303 303 304 302 302 301 301 300 301 303 300 295 297 297 294 289 287 284 287 291 290 292 294 294 293 292 290 292 292 291 292 291 290 288 286 288 285 278 274 281 282 277 283 284 284 285 287
302 303 304 302 302 301 300 300 300 301 301 297 297 296 291 284 286 286 290 292 291 291 291 294 295 292 294 296 295 295 292 291 291 289 291 286 285 279 274 278 272 284 291 289 287 289 290
302 302 304 302 301 301 300 300 300 300 301 296 297 295 292 287 287 288 290 291 292 293 293 293 295 295 296 293 288 287 288 288 290 291 291 291 287 280 277 278 280 286 291 289 287 288 291
302 302 303 303 301 301 300 300 299 300 300 295 297 299 295 290 285 291 290 290 287 286 288 294 296 298 295 291 287 283 280 282 283 287 292 290 289 283 283 278 275 285 290 293 292 284 292
301 301 302 303 301 301 300 300 299 299 299 293 295 299 294 290 291 291 289 289 292 289 287 291 296 294 295 287 286 283 283 287 282 283 285 286 287 283 283 279 282 289 290 295 283 285 292
301 301 302 303 301 301 301 299 299 299 299 293 290 299 294 290 291 294 298 293 293 294 288 293 292 294 292 288 286 284 282 287 285 287 285 284 283 283 284 281 278 290 292 288 292 292 293
300 301 301 302 300 301 301 301 300 300 298 297 287 298 299 291 291 296 297 299 298 299 297 295 293 293 295 290 289 288 284 284 284 284 288 283 284 283 284 284 291 291 294 295 293 292 291

GFSGBSN_sfc_thetae_054.txt.gz
Theta_e
316 313 314 315 313 315 313 314 313 313 313 313 312 312 311 311 311 311 311 310 311 311 311 311 312 314 312 304 300 312 321 317 319 318 314 312 306 303 299 299 299 296 298 301 303 303 301
315 314 315 313 315 314 313 313 312 312 311 311 311 310 310 310 310 310 310 310 310 310 310 311 312 313 306 296 310 311 311 319 315 315 313 314 307 306 301 299 298 300 300 300 301 300 300
313 315 313 313 313 313 313 313 311 310 310 310 310 310 309 309 309 309 309 310 310 310 310 311 311 308 303 301 310 310 314 318 316 316 311 315 311 306 302 297 301 299 295 296 298 299 298
314 313 313 313 312 313 312 311 311 311 310 310 310 309 308 309 309 309 309 310 310 310 310 310 310 306 297 312 313 309 311 316 319 319 317 316 314 307 302 301 298 295 293 289 296 298 299
313 312 313 313 311 312 312 311 310 310 310 310 309 309 309 309 308 308 309 309 310 310 310 310 303 301 296 313 306 308 307 313 315 316 316 317 312 304 300 294 290 290 284 287 292 298 297
312 312 312 311 311 312 312 311 310 310 309 309 309 309 308 307 307 308 309 309 309 307 305 306 304 296 301 298 306 307 307 314 311 311 309 308 304 299 294 293 284 287 286 285 288 292 293
312 312 312 310 310 312 311 311 309 309 309 309 308 307 307 307 307 308 303 296 290 291 295 292 293 297 300 305 309 304 306 311 310 306 300 303 295 293 295 294 292 291 288 286 289 292 289
311 311 310 310 310 311 310 310 309 309 308 307 306 307 308 308 307 308 300 291 293 296 287 297 297 299 303 305 298 301 308 302 302 297 301 298 290 298 300 297 296 292 288 286 290 291 288
310 310 309 310 310 308 309 309 309 308 307 308 308 309 309 309 309 300 295 295 300 299 287 291 295 296 300 303 298 298 304 303 298 296 296 292 295 301 299 296 294 292 289 286 286 288 286
310 310 308 309 309 309 308 308 309 307 308 308 309 310 310 310 300 298 294 301 300 300 273 285 291 297 301 303 295 303 307 303 299 293 294 292 297 298 295 293 294 287 292 289 287 284 280
309 309 308 308 310 308 307 308 307 308 309 309 310 310 309 307 299 296 298 300 299 296 267 288 292 305 302 297 296 299 306 302 295 294 293 289 293 292 292 292 295 288 291 288 286 282 278
309 308 308 309 309 309 307 307 307 308 310 310 309 309 308 302 303 302 302 300 295 278 273 286 294 294 294 296 296 300 300 302 302 294 293 290 295 293 290 292 293 291 287 284 282 280 272
308 308 308 309 307 308 307 307 307 308 310 310 308 308 305 305 295 302 300 292 276 273 285 285 288 293 292 292 293 295 293 291 290 285 284 288 289 292 293 288 291 289 284 273 270 270 272
307 307 308 307 307 307 307 307 307 308 309 310 308 306 306 304 302 300 296 285 275 281 282 290 292 292 289 292 293 293 291 286 289 288 283 280 279 289 291 288 286 283 282 273 270 272 273
307 307 308 306 306 306 306 306 306 308 310 310 304 297 302 304 304 299 291 276 280 283 286 290 291 287 288 291 292 291 289 286 288 288 283 279 280 290 291 291 288 283 276 282 274 271 270
306 307 307 306 305 306 306 306 306 307 309 309 292 293 294 303 302 294 284 284 286 290 292 290 285 287 283 288 288 287 287 289 288 290 288 284 279 289 290 292 291 286 287 277 271 265 269
306 307 306 306 305 305 305 305 305 307 308 305 292 287 296 305 296 286 281 284 290 296 295 289 285 285 286 285 287 285 285 289 290 289 290 287 283 285 289 284 283 284 280 280 279 276 270
306 306 306 305 304 304 304 304 305 306 307 299 289 282 301 300 285 289 286 288 294 293 294 290 290 288 285 286 284 284 285 287 292 292 287 288 284 282 283 287 288 286 283 281 273 272 273
305 306 306 305 304 303 302 303 304 306 306 296 286 287 298 295 285 287 291 292 293 292 292 290 288 290 289 286 283 285 286 293 293 291 288 289 280 272 279 283 285 282 284 283 280 277 271
305 305 306 304 303 303 302 302 303 305 306 294 287 283 289 296 294 290 290 289 289 294 292 291 290 291 288 287 288 285 286 292 293 292 298 292 282 279 275 277 281 278 283 283 279 275 275
304 304 306 304 303 302 302 302 302 304 305 295 288 289 291 284 290 291 291 290 287 287 292 292 289 289 288 285 286 285 287 288 292 296 291 288 280 282 282 283 284 283 283 282 276 279 274
303 304 305 304 303 302 301 301 302 303 304 294 290 290 292 291 291 287 288 287 287 289 290 289 288 290 290 286 286 285 287 286 286 288 287 287 279 282 275 283 283 280 283 283 283 283 282
303 303 304 304 303 302 301 301 301 302 301 295 297 297 293 287 284 283 285 288 289 291 293 294 293 290 289 290 291 290 290 290 289 287 286 288 284 277 275 281 282 277 282 283 283 284 286
303 303 303 305 302 302 301 301 301 301 300 296 296 296 290 284 284 285 288 292 291 291 290 292 294 290 294 296 294 293 291 290 290 289 290 286 285 282 278 278 271 283 289 288 286 287 288
303 303 303 304 303 301 301 300 300 300 300 293 297 295 292 287 286 286 289 289 290 291 291 292 293 295 295 292 287 286 287 287 289 291 289 291 287 282 278 278 279 285 288 287 286 287 289
302 302 302 303 304 301 301 300 300 300 300 291 297 299 294 289 284 289 289 289 286 285 287 292 294 296 293 289 286 280 279 280 282 287 291 290 288 283 282 278 274 283 288 293 291 283 291
302 302 302 302 304 302 301 300 300 300 299 292 290 298 293 290 290 291 289 291 290 287 286 289 291 292 293 286 285 283 283 285 281 281 285 285 286 281 281 280 280 287 291 293 284 284 291
301 301 302 302 303 302 302 301 300 299 299 293 289 298 293 290 291 294 295 295 291 291 287 290 289 291 291 288 286 285 283 287 284 286 286 284 281 283 282 281 277 290 293 290 293 293 291
302 301 301 301 302 302 300 300 301 299 300 296 286 295 297 289 291 296 295 297 298 296 294 294 290 292 293 289 287 289 285 286 283 284 289 283 284 282 283 282 290 292 292 296 294 293 290

GFSGBSN_sfc_thetae_057.txt.gz
Theta_e
315 314 316 315 314 315 314 314 313 313 312 312 311 311 311 310 311 310 310 310 310 311 311 311 311 311 308 300 302 313 318 317 320 317 312 312 307 306 301 301 300 298 300 302 305 304 304
315 315 314 315 314 314 314 314 313 312 312 311 311 311 310 310 310 310 310 310 310 310 310 311 311 311 302 295 311 313 311 312 316 314 312 313 308 307 303 301 299 301 301 301 303 302 303
315 314 314 313 314 312 314 313 313 312 311 311 311 310 310 309 309 309 309 310 310 310 310 311 310 306 299 298 310 312 311 313 317 315 310 315 312 307 303 299 303 301 297 299 300 301 300
313 314 313 314 313 312 313 313 312 311 311 310 310 310 310 310 309 309 309 309 310 310 310 310 310 304 293 311 313 310 310 314 317 317 316 317 314 307 303 303 300 297 297 291 298 299 300
313 313 314 313 311 312 313 312 311 311 310 310 310 309 309 308 308 308 309 309 310 310 311 310 303 299 293 312 306 310 310 310 313 316 317 317 312 305 302 295 292 293 287 290 293 299 298
312 312 312 311 311 311 311 310 310 310 310 310 309 308 307 307 308 307 309 309 308 306 305 306 302 293 298 298 307 308 309 311 310 311 308 307 305 299 297 294 285 288 288 290 290 294 296
312 312 311 310 311 310 310 309 310 311 309 308 308 309 309 309 309 308 303 296 290 290 295 291 292 294 299 306 310 305 308 311 310 305 297 302 296 291 295 296 293 292 290 289 292 294 292
311 311 311 310 310 310 310 308 309 309 309 310 310 309 310 310 309 308 299 291 294 294 287 296 297 297 303 305 299 302 309 303 302 296 300 296 292 298 299 297 294 292 289 289 292 292 291
311 310 310 310 311 311 310 308 309 309 310 311 311 310 310 310 308 303 295 294 300 299 288 292 295 295 300 303 297 299 305 304 300 297 293 290 295 301 298 296 294 292 289 288 289 290 289
311 310 309 310 310 309 308 308 309 309 311 311 311 310 309 307 300 299 293 300 299 298 278 285 292 296 301 302 296 304 308 303 298 293 292 292 298 298 296 294 296 290 293 290 288 287 283
309 309 309 310 308 308 309 308 309 309 311 310 310 310 308 306 299 296 298 299 299 294 269 288 292 305 301 296 297 299 307 302 294 294 294 288 295 293 292 293 295 290 292 289 287 284 283
309 308 309 309 308 307 308 308 308 309 310 310 309 309 308 301 301 300 300 299 294 274 271 286 293 292 292 296 297 301 301 303 300 294 293 290 296 295 292 297 295 292 287 286 283 282 278
308 308 308 308 307 307 307 307 307 309 309 310 309 308 304 303 295 300 300 292 274 270 284 284 288 292 292 292 294 296 293 292 290 285 284 289 289 292 294 289 292 290 287 277 275 275 276
307 308 308 307 307 306 306 307 307 308 309 310 308 306 306 303 301 300 296 281 272 281 281 290 293 293 290 291 292 292 291 286 290 289 283 281 282 290 292 289 287 285 287 277 273 274 276
307 307 308 307 306 306 306 306 306 307 308 310 304 296 299 302 303 297 286 279 281 283 287 290 291 287 288 291 291 291 288 286 288 288 284 280 282 291 291 291 290 285 281 284 275 275 274
307 306 307 306 306 305 305 305 306 307 307 308 292 292 293 301 300 296 287 285 287 290 292 289 284 286 284 288 288 287 286 288 288 290 290 285 280 289 290 293 291 287 287 279 276 270 272
306 306 307 306 305 304 304 304 305 306 307 305 291 287 295 302 296 290 283 286 290 295 293 288 285 285 286 286 288 285 285 289 290 290 290 288 284 286 290 286 284 285 282 281 280 277 274
305 306 307 305 305 304 304 304 304 306 307 299 288 283 297 298 286 289 285 288 293 292 293 290 289 287 286 285 284 284 284 288 292 292 287 289 286 282 284 288 289 287 284 282 277 275 275
305 305 306 305 304 304 303 303 304 305 307 297 286 286 296 295 285 285 289 291 292 292 291 289 287 289 289 286 283 285 286 293 293 291 288 289 281 278 281 285 287 284 285 283 281 279 275
305 305 305 305 304 303 303 303 303 304 306 295 287 284 288 294 293 289 288 287 288 293 291 290 289 290 287 286 287 285 286 291 293 292 297 292 283 280 278 280 282 279 283 283 281 276 276
305 304 304 306 304 303 302 302 302 303 305 294 288 287 291 283 287 291 291 290 286 287 291 291 289 288 287 284 285 284 287 288 291 296 291 289 282 283 283 284 284 284 283 283 278 280 277
304 304 304 305 303 303 302 302 302 302 303 293 288 290 293 288 289 287 287 289 287 288 289 288 288 289 288 286 285 284 287 286 286 288 287 287 282 279 277 283 283 281 284 284 283 284 283
304 304 304 304 304 303 302 301 301 302 299 294 296 297 293 287 283 282 284 287 288 290 292 293 291 289 287 289 290 290 290 290 290 288 286 288 281 277 276 281 282 278 283 284 284 285 286
303 303 303 303 305 302 302 301 301 301 298 292 295 295 290 283 283 285 287 288 289 289 290 292 292 289 293 294 292 292 290 289 289 289 290 286 285 281 279 278 271 283 288 287 286 287 288
303 303 303 303 303 304 302 301 301 300 300 291 297 294 292 286 285 286 287 288 288 290 290 291 292 295 294 291 288 287 287 288 289 291 289 290 287 280 276 278 279 285 287 286 285 288 289
303 303 303 302 303 304 301 301 300 300 300 291 295 298 293 289 283 288 288 288 286 284 286 290 293 295 292 288 286 281 279 281 282 287 291 290 288 281 279 277 274 283 289 293 292 285 291
303 302 302 302 302 303 302 302 300 299 299 292 290 294 293 289 289 292 289 288 289 286 285 287 290 290 291 285 284 282 282 285 281 280 283 285 285 280 278 277 280 286 290 293 286 286 292
302 302 302 302 302 302 303 301 301 300 299 294 290 295 292 289 289 293 295 294 293 289 286 289 288 289 289 287 286 285 283 286 285 286 284 282 281 281 280 279 274 289 292 291 294 294 293
303 303 302 301 302 302 302 302 301 301 300 296 289 295 296 288 289 295 294 296 297 299 292 290 288 289 290 287 288 288 284 287 283 284 289 283 284 281 282 281 289 292 294 296 296 294 293

GFSGBSN_sfc_thetae_060.txt.gz
Theta_e
315 316 315 315 315 315 313 314 315 314 314 313 312 312 312 311 311 310 310 311 310 310 310 311 311 311 308 299 298 316 318 321 322 319 313 311 309 308 302 304 305 302 303 305 307 307 307
316 314 314 315 315 313 313 314 314 313 313 312 312 311 311 311 311 310 310 310 310 310 311 310 310 310 302 291 308 312 314 313 316 316 312 313 310 311 305 304 303 305 304 304 306 306 305
316 315 315 313 313 313 313 313 312 312 312 312 312 311 311 311 310 310 310 310 310 310 310 311 311 307 299 297 312 315 314 313 317 317 310 314 315 310 309 302 307 304 300 302 303 304 303
313 313 314 313 311 312 312 311 311 311 312 312 311 310 309 309 309 309 308 309 310 310 311 311 310 304 293 306 309 308 312 311 316 318 314 317 317 311 306 307 304 300 300 294 300 303 304
313 314 313 312 311 312 311 311 309 311 312 311 310 310 309 308 308 308 308 309 310 310 310 310 303 299 293 309 305 309 313 309 312 315 315 317 313 307 306 300 296 298 291 293 296 303 301
312 313 312 311 311 312 313 311 309 311 311 311 311 311 310 310 309 309 308 309 308 307 307 306 303 294 298 298 307 309 312 313 310 311 308 307 305 300 301 297 287 291 291 294 293 298 300
312 312 311 311 311 311 311 310 310 311 311 312 311 311 311 311 310 309 306 303 297 297 299 293 293 293 298 306 312 307 308 307 310 306 297 303 295 293 298 299 296 296 294 291 295 297 297
312 312 311 311 311 310 310 311 310 311 312 312 311 311 311 310 309 308 304 296 296 298 289 297 297 297 299 306 300 303 308 303 303 296 299 297 292 299 301 300 297 295 292 292 294 296 297
311 311 311 311 310 309 310 310 311 311 311 311 310 310 309 308 306 304 301 297 304 302 291 293 297 295 298 304 298 298 305 304 299 295 297 293 295 301 299 298 295 295 292 292 292 294 294
310 310 310 311 309 308 309 309 310 310 311 311 310 310 309 306 302 302 298 304 305 303 285 285 291 295 301 302 295 305 307 304 297 294 294 293 297 299 297 296 297 291 296 295 293 292 289
310 309 310 310 309 308 308 309 309 309 310 311 309 309 308 307 301 297 301 305 304 299 275 289 292 303 302 297 297 299 308 302 295 292 294 288 292 296 295 296 299 293 297 294 292 291 289
309 309 309 309 308 307 307 307 308 308 310 310 309 309 307 306 305 303 305 304 301 284 276 287 293 292 294 296 298 301 300 302 301 295 293 290 297 295 294 297 295 294 292 291 291 289 285
308 308 309 308 308 307 306 306 307 308 309 309 310 308 306 306 299 306 305 299 285 280 287 286 289 293 293 293 295 295 295 294 291 287 286 286 289 293 298 290 294 292 291 284 283 283 283
307 308 308 308 307 307 306 306 306 307 308 308 309 307 306 306 308 306 302 291 281 284 285 291 293 293 290 292 292 293 292 291 293 293 288 287 283 290 294 292 290 290 292 287 278 280 282
307 307 308 308 307 306 306 306 306 306 309 308 305 305 305 306 307 305 296 284 283 285 288 291 292 289 289 293 292 291 291 290 291 293 288 286 285 293 293 293 294 289 288 289 283 282 283
307 307 307 307 307 306 305 305 305 306 308 308 302 301 301 307 306 301 294 286 289 292 294 293 286 290 286 289 290 290 290 292 291 293 294 290 284 291 291 295 293 292 292 285 286 279 278
306 306 307 307 306 305 305 305 305 306 308 305 301 299 303 307 304 299 285 288 292 297 296 292 289 289 289 288 290 289 289 292 294 293 295 293 290 287 292 289 289 288 288 286 286 284 281
306 306 306 307 306 305 304 304 305 305 307 304 298 296 304 306 295 292 289 290 295 296 297 294 294 292 290 290 289 289 289 292 296 295 291 292 291 285 286 291 293 291 289 288 285 280 282
305 305 305 307 305 305 304 304 304 305 306 301 296 296 305 304 291 292 294 294 295 295 294 293 291 293 293 290 288 290 290 295 296 295 292 293 287 282 283 287 290 288 289 288 286 286 282
305 305 305 306 306 304 304 303 303 304 305 303 296 293 299 302 299 294 292 292 291 296 294 294 293 294 292 290 292 289 290 294 295 296 296 295 288 285 283 284 288 285 287 287 287 284 284
305 304 305 305 305 304 304 303 303 303 304 302 297 292 293 293 294 294 294 293 290 290 295 295 292 292 291 288 289 288 291 292 295 296 294 293 286 287 286 287 287 287 287 286 284 287 285
304 304 304 304 306 304 303 303 302 302 302 300 293 292 295 293 292 292 292 292 291 292 293 291 291 293 293 290 290 288 291 291 291 293 292 291 285 285 283 286 286 284 287 288 287 288 287
304 304 304 304 304 304 303 302 302 302 300 298 297 298 293 292 291 292 293 292 292 294 295 296 295 293 292 292 295 295 296 295 295 292 290 290 287 285 282 285 285 282 286 287 288 289 290
303 304 303 303 303 305 302 302 302 301 299 298 297 296 291 288 290 291 291 292 293 294 293 296 297 294 296 299 298 298 297 295 295 293 294 290 288 287 283 284 278 287 292 292 290 291 292
304 303 303 303 303 303 303 302 301 301 300 296 299 295 292 286 290 291 291 292 295 296 295 295 297 299 302 297 293 289 289 289 290 293 292 293 290 285 282 281 285 288 289 289 289 292 294
304 303 303 303 302 303 304 302 301 300 299 297 298 298 294 289 289 291 290 293 293 293 294 295 300 301 298 295 291 284 282 284 285 287 292 291 291 287 283 279 278 289 294 297 295 290 297
304 304 303 302 302 302 303 302 302 301 299 297 296 298 294 289 293 293 290 292 294 293 293 295 297 297 297 293 288 285 284 288 283 283 285 286 287 284 284 282 285 291 294 295 288 291 298
304 304 303 303 302 302 302 303 301 301 300 298 295 298 294 289 290 293 295 294 295 294 292 295 295 295 295 290 289 287 286 288 287 289 287 285 284 282 283 281 279 293 296 292 296 299 299
305 304 304 303 302 302 302 302 302 301 301 299 293 297 298 289 288 294 295 297 297 296 294 297 294 294 297 294 293 292 289 290 289 284 292 285 289 287 287 287 293 296 296 299 298 298 299

GFSGBSN_sfc_thetae_063.txt.gz
Theta_e
317 316 316 316 314 314 314 313 314 313 313 313 313 313 312 312 311 311 311 311 310 311 310 311 311 311 307 299 298 312 319 323 322 321 312 309 306 307 303 306 305 302 304 305 307 308 307
315 315 315 315 313 313 313 312 312 312 313 313 313 312 312 311 311 311 310 310 310 310 310 311 310 309 302 292 307 310 312 315 319 317 312 310 308 310 306 305 303 305 305 305 306 307 307
314 315 315 314 313 312 313 314 312 311 312 313 313 312 311 310 309 309 309 309 310 310 310 310 310 308 300 297 307 315 314 312 315 316 310 313 313 308 308 303 308 305 301 303 304 305 304
314 314 313 313 312 313 312 314 311 312 312 313 313 312 312 311 309 309 308 309 308 310 310 311 310 305 295 306 308 306 310 311 315 318 314 315 315 310 307 308 305 300 301 294 301 303 304
313 314 313 313 312 313 311 312 312 312 313 313 312 312 312 311 311 309 308 309 309 310 310 310 305 301 293 308 301 306 310 307 311 315 316 315 314 307 306 299 296 298 291 293 296 303 302
313 313 313 312 312 311 311 312 312 312 313 313 312 312 311 311 311 309 309 309 308 308 308 307 304 296 298 296 303 308 313 311 307 310 308 307 306 300 300 297 288 291 291 294 293 299 300
313 312 312 312 312 311 311 311 312 312 313 312 311 311 310 310 310 308 307 304 299 297 300 294 294 294 297 304 309 307 309 307 308 305 297 303 296 292 296 299 297 296 294 293 296 300 298
312 312 312 312 311 310 310 311 311 311 312 312 311 311 309 310 309 308 305 298 297 299 290 297 298 298 300 302 296 303 309 302 302 295 299 297 292 297 301 299 297 296 294 292 296 298 297
311 311 311 311 310 309 309 309 310 311 311 312 311 310 308 307 306 306 302 299 305 304 291 293 297 297 297 302 298 298 305 303 299 296 296 293 295 299 299 297 294 295 293 293 292 296 297
310 311 311 311 310 309 308 308 309 309 310 311 311 310 309 307 304 304 299 305 306 304 287 288 292 297 301 303 295 304 305 300 299 295 297 295 299 296 296 295 296 291 297 295 294 291 287
310 310 310 310 309 308 308 307 308 309 309 310 310 310 309 309 304 300 302 306 305 301 278 290 293 304 303 297 297 298 307 303 296 293 296 289 295 295 295 297 298 294 299 297 295 293 291
309 309 310 310 309 308 307 307 307 308 308 310 309 310 309 307 307 305 308 307 302 285 278 287 294 294 293 296 297 299 299 303 301 294 292 289 296 295 296 296 299 299 296 295 294 292 286
308 309 309 309 309 308 307 307 307 307 308 309 309 310 308 307 301 308 307 299 286 282 288 287 290 293 294 293 294 296 294 294 290 286 286 287 287 292 295 291 294 295 293 285 283 283 284
308 308 308 309 308 308 307 307 307 307 308 309 309 307 308 307 310 309 303 294 283 286 286 292 293 294 291 294 293 295 293 290 296 293 288 286 283 287 293 292 289 293 293 288 281 282 285
307 308 308 309 308 307 307 306 306 306 308 310 308 308 307 309 310 308 300 285 284 286 290 291 293 290 290 294 293 294 293 291 293 294 288 288 285 292 294 295 295 289 287 292 286 286 285
307 307 307 308 308 307 307 306 306 306 308 309 305 305 306 309 310 305 296 287 291 295 296 295 288 291 287 290 291 292 292 293 293 295 297 292 285 291 293 295 295 294 295 287 288 280 279
306 307 307 308 308 306 306 306 306 306 308 308 305 303 307 310 308 301 287 291 294 298 297 293 291 290 290 290 292 291 291 293 296 294 297 296 291 288 292 291 290 290 289 289 288 286 283
305 306 306 307 308 306 306 305 305 306 307 307 303 299 308 311 299 298 292 293 296 297 298 295 296 293 292 292 291 291 290 294 297 297 292 295 292 286 288 292 294 294 292 291 285 284 285
305 305 305 306 307 306 305 305 305 305 305 302 300 301 311 309 294 295 297 296 297 295 295 294 293 295 295 292 289 292 292 297 297 296 293 295 290 283 284 289 292 289 291 291 289 288 284
305 305 305 305 307 305 305 304 304 304 305 304 300 296 303 305 302 297 294 293 293 298 295 296 294 296 294 292 294 291 292 295 297 297 297 297 290 288 284 286 291 287 289 290 287 284 285
305 304 305 305 305 306 304 304 303 303 304 304 300 296 295 296 297 297 297 295 292 292 296 297 294 294 293 289 290 290 293 294 296 296 296 295 288 289 288 289 289 289 288 289 285 288 286
305 304 304 304 305 305 304 303 303 303 303 303 294 292 296 295 296 295 294 294 293 293 294 293 292 294 294 291 292 290 292 293 292 295 294 295 286 287 285 288 288 286 289 289 289 288 289
305 303 304 304 304 304 304 303 303 302 303 299 299 300 295 295 295 294 295 295 294 296 297 298 296 295 293 295 297 297 298 297 296 293 292 292 289 287 283 286 286 283 287 289 289 291 290
305 303 304 303 303 303 304 303 302 302 300 299 297 296 291 290 293 294 294 295 295 296 294 297 298 296 297 301 300 300 298 297 297 295 296 291 289 288 284 285 279 289 293 293 291 292 293
305 304 304 303 303 303 304 303 302 301 301 298 299 294 293 287 291 292 294 294 297 298 297 297 299 301 302 299 293 289 289 290 292 294 294 295 291 286 283 283 287 289 290 290 290 292 295
305 305 304 304 303 302 303 303 302 301 300 299 299 299 294 289 289 293 292 295 293 294 296 297 301 304 301 297 292 284 282 286 285 288 293 292 293 288 284 280 279 290 295 297 296 290 299
306 305 304 304 303 302 303 303 303 302 301 299 298 299 294 289 292 293 291 292 297 295 294 298 298 298 300 294 288 286 285 290 284 284 286 287 288 285 284 282 286 293 297 296 288 290 299
307 305 305 304 303 303 303 302 302 302 301 299 297 300 294 289 290 292 294 292 294 296 292 297 296 297 296 290 289 287 287 289 288 290 288 286 285 284 285 281 280 295 295 290 297 301 300
307 306 305 304 304 303 302 303 302 302 303 301 294 300 299 291 290 294 293 294 293 293 292 298 296 296 298 294 294 293 289 291 289 284 293 286 290 288 288 288 295 298 298 300 300 300 301

GFSGBSN_sfc_thetae_066.txt.gz
Theta_e
316 316 315 316 315 314 314 315 315 313 313 314 314 314 314 312 312 312 311 311 311 310 310 310 310 310 306 297 296 308 317 319 320 321 313 309 304 305 301 304 304 302 302 304 306 306 305
316 316 315 315 314 314 314 314 313 313 314 314 314 314 313 313 312 310 310 310 310 311 310 309 310 309 301 290 305 307 309 310 315 316 313 310 306 307 303 304 303 304 304 304 305 306 305
315 315 315 314 313 313 313 313 313 313 314 314 314 313 313 313 312 310 309 309 309 309 310 309 310 307 299 295 306 314 313 310 312 315 311 311 310 305 306 302 307 305 299 302 302 304 303
314 315 315 314 314 312 313 312 313 314 314 314 313 313 312 312 312 311 309 308 309 309 310 310 309 305 294 306 307 305 309 307 310 314 316 314 311 310 306 307 304 300 299 293 300 303 304
314 314 314 313 313 312 312 312 313 313 314 314 313 312 311 311 311 311 309 308 309 309 310 310 304 301 292 309 301 303 305 303 306 311 315 316 311 306 305 299 295 297 289 292 296 302 301
313 314 313 313 312 312 311 312 312 312 312 313 313 312 310 311 310 310 308 309 308 307 308 306 304 294 298 295 302 302 311 309 305 308 308 307 304 299 299 296 286 290 289 291 292 298 299
313 313 313 312 311 311 310 311 311 312 312 312 312 311 309 310 310 308 307 305 298 297 299 293 294 294 296 302 306 303 309 305 306 305 298 301 294 290 294 297 296 295 292 290 294 299 297
312 313 312 312 311 311 310 310 310 310 311 311 311 311 310 309 309 308 307 297 297 299 290 297 297 297 301 302 296 302 309 298 299 291 298 296 291 297 299 299 297 295 292 290 294 299 296
312 312 312 312 311 310 310 309 309 310 310 311 311 311 310 310 309 308 301 300 306 304 290 294 298 297 298 297 295 298 303 300 295 292 294 291 294 299 297 295 294 293 290 290 290 294 295
311 311 311 311 311 310 309 308 308 309 309 310 310 310 311 310 304 304 299 305 307 305 285 288 293 297 300 297 294 304 305 301 299 293 295 294 299 296 296 294 296 290 295 295 293 289 284
310 311 311 311 310 310 309 308 308 308 308 309 309 310 311 310 304 299 302 307 306 301 274 291 294 305 303 296 297 297 307 301 294 295 296 289 294 294 291 292 298 292 297 294 293 289 287
310 310 310 310 310 309 308 308 308 308 308 309 309 309 310 308 307 305 308 306 302 283 275 287 294 294 294 296 296 300 300 303 301 295 292 290 296 296 294 297 299 300 295 293 291 289 280
309 309 310 310 310 309 308 308 308 308 308 309 310 310 307 307 301 309 307 300 286 279 289 287 290 294 292 292 293 296 294 293 290 285 285 288 288 292 296 290 295 297 289 281 279 280 278
309 309 309 309 310 309 308 308 307 307 308 309 309 309 309 308 310 308 303 292 280 286 286 294 293 295 291 294 293 294 293 290 295 292 288 285 281 289 293 293 290 290 289 280 275 277 278
308 308 309 309 309 309 308 308 307 307 309 309 309 309 307 310 311 307 297 284 284 286 290 292 293 290 290 293 294 294 292 291 293 294 288 286 285 291 293 294 295 289 286 289 282 281 278
307 308 308 308 309 308 308 307 307 307 308 309 304 305 306 311 311 304 293 287 290 295 296 295 288 291 288 290 291 292 291 294 292 295 296 291 284 290 292 295 294 293 294 284 282 273 275
307 307 308 308 308 308 307 307 306 306 308 310 305 301 306 312 308 299 286 290 294 298 297 293 291 290 290 289 292 290 290 293 296 294 295 294 289 287 291 289 288 288 287 289 285 282 275
306 306 307 307 307 307 306 306 306 306 307 306 304 297 309 311 296 298 291 293 296 296 299 296 296 293 291 291 291 290 290 292 297 296 291 294 289 284 287 292 293 291 290 289 280 280 279
306 306 306 307 307 307 306 306 305 305 306 301 298 299 311 309 293 294 296 296 297 295 295 294 293 295 295 291 288 291 292 297 297 295 292 293 286 278 280 286 290 287 290 290 287 285 281
305 305 305 306 306 307 306 305 305 305 305 303 298 293 300 304 301 296 294 294 293 298 296 296 295 295 293 291 292 290 291 296 297 295 298 296 288 284 278 283 287 282 287 289 284 277 281
305 305 305 305 306 306 306 305 304 305 306 302 299 294 295 291 296 295 296 295 292 292 296 297 294 293 292 288 289 289 292 293 295 296 294 292 284 285 286 288 289 287 287 288 281 284 277
306 305 304 304 305 305 305 304 304 304 305 300 292 290 293 292 296 294 294 294 293 294 294 293 292 294 293 290 291 289 291 291 290 293 290 292 283 283 279 287 286 283 288 288 287 287 286
306 306 304 304 304 304 305 304 304 303 303 296 296 298 293 291 293 292 293 294 294 296 297 297 296 293 292 294 296 295 295 294 293 291 289 289 284 280 277 284 284 278 284 286 287 288 288
306 305 304 304 303 304 304 305 303 302 301 298 296 295 290 286 289 291 293 294 293 296 294 297 298 294 296 298 297 296 293 293 293 292 293 288 287 283 277 280 271 286 292 291 289 290 291
308 306 305 304 304 303 303 304 303 302 301 297 298 294 290 284 287 287 290 292 295 296 296 296 298 299 299 296 291 289 288 289 290 291 291 291 289 282 277 278 284 286 289 288 288 288 293
308 307 306 304 304 303 303 303 304 302 301 298 297 297 293 286 287 289 287 291 290 292 294 297 300 301 298 294 291 283 281 285 285 286 290 291 289 284 282 277 276 288 292 295 293 288 295
309 308 306 305 305 304 303 303 303 303 302 298 297 298 292 285 289 291 287 289 294 294 292 296 296 295 298 290 287 285 284 288 282 283 283 285 285 280 281 281 283 292 295 294 286 288 296
310 308 307 306 305 304 303 303 303 303 303 299 296 299 292 287 288 290 290 287 288 292 290 294 295 294 292 289 288 286 285 288 284 286 286 284 282 281 283 280 275 294 292 288 294 297 297
310 309 308 307 306 305 304 303 303 303 303 303 294 299 298 291 288 293 292 293 292 291 289 292 292 294 295 290 289 289 285 286 285 283 289 283 286 283 284 283 292 294 294 297 297 298 296

GFSGBSN_sfc_thetae_069.txt.gz
Theta_e
316 316 316 316 315 314 314 314 315 314 316 315 315 314 314 313 313 312 310 311 310 310 310 309 309 310 307 297 297 307 315 318 314 319 312 309 301 301 299 302 303 300 302 304 305 305 304
316 316 316 315 315 313 314 314 314 314 315 315 315 314 313 313 313 312 309 309 309 309 310 309 310 309 301 290 304 307 309 308 312 315 311 310 304 305 302 302 301 303 304 304 304 304 303
315 316 315 314 314 313 313 313 314 313 314 314 315 313 312 313 312 311 309 308 309 308 309 309 310 307 299 294 304 310 312 310 312 313 309 311 309 303 303 299 305 304 299 301 300 302 301
315 315 314 314 314 313 312 312 313 313 313 314 314 313 311 313 311 311 309 307 308 308 309 310 310 304 293 306 304 303 307 307 309 311 313 314 311 306 304 303 302 300 297 291 298 301 302
314 315 314 314 313 312 311 311 312 312 313 313 313 312 311 312 312 311 309 308 309 309 309 309 304 300 291 308 301 302 301 300 306 309 313 315 310 302 304 296 292 295 289 290 294 301 301
313 314 314 313 313 312 311 311 311 311 312 312 312 312 311 311 311 310 309 309 309 306 307 307 303 293 297 295 302 302 308 307 303 306 306 307 303 296 296 293 285 289 287 289 290 296 298
313 313 313 313 312 312 311 310 310 310 311 311 311 312 311 311 311 310 307 301 294 293 297 293 294 294 296 302 306 302 308 304 303 302 297 301 295 290 293 295 294 293 291 289 293 298 296
313 313 313 313 312 312 311 310 310 310 310 311 310 311 311 311 311 311 303 294 296 297 290 299 298 298 301 301 295 301 306 297 298 292 297 296 290 294 298 297 296 293 289 288 291 296 296
312 312 312 312 312 312 311 310 309 309 309 310 310 310 311 311 311 303 299 299 304 302 290 294 298 297 298 299 295 295 302 299 296 294 293 291 293 298 297 295 293 293 288 288 288 292 293
311 312 312 312 312 311 310 309 309 309 309 309 310 310 311 311 302 300 297 304 305 302 284 289 293 297 300 298 293 304 305 300 295 292 294 294 298 296 294 293 293 288 294 293 291 288 283
311 311 311 311 311 311 310 309 309 309 308 309 309 310 310 310 300 296 300 304 302 299 275 290 293 304 303 296 296 298 307 301 293 294 295 289 294 293 291 293 296 291 298 294 290 287 285
310 310 310 310 311 310 310 309 309 308 308 308 309 310 310 305 305 304 306 306 298 277 274 287 294 295 294 296 296 300 299 303 301 293 293 291 297 295 293 295 297 299 295 293 290 287 278
309 309 310 310 311 310 310 309 309 308 308 309 309 310 307 306 298 306 306 296 280 274 288 285 290 294 293 292 294 296 295 293 289 283 284 288 289 293 296 290 295 295 290 281 279 276 275
309 309 310 309 310 310 309 309 308 308 308 309 310 311 307 306 305 305 302 287 275 286 285 292 292 294 290 294 293 293 293 290 293 288 285 279 277 290 293 292 288 288 288 278 273 274 277
308 308 309 309 309 309 309 309 308 308 308 309 310 303 301 305 307 303 294 279 281 284 289 291 292 289 288 293 293 292 292 291 293 291 284 282 282 292 293 295 293 290 286 290 281 280 275
307 308 308 308 309 309 308 308 308 308 308 309 298 298 299 307 306 298 286 282 285 293 295 294 287 289 286 288 289 289 288 292 292 294 295 290 282 290 292 296 295 293 295 284 281 274 275
307 307 308 308 308 308 308 307 307 307 308 309 297 295 302 307 302 290 283 282 293 299 296 292 289 290 288 287 288 287 288 291 294 294 294 293 288 287 291 289 288 289 288 287 286 281 274
306 306 307 307 307 307 308 307 307 306 308 301 295 289 304 305 290 287 281 290 296 296 297 294 293 291 289 289 288 287 288 290 295 294 290 292 286 282 286 293 295 293 290 289 279 279 278
306 306 306 306 307 307 307 307 306 306 306 299 291 292 303 303 285 283 292 295 296 294 293 293 291 293 292 288 284 288 290 296 296 294 290 291 284 276 279 284 288 286 289 291 287 283 278
305 306 305 306 306 306 306 306 306 305 306 297 292 286 291 295 294 289 290 291 291 296 295 294 292 293 291 288 290 287 289 294 295 294 298 295 286 282 276 281 284 281 286 288 284 278 281
306 305 304 305 305 306 306 306 305 305 306 297 290 287 289 283 289 290 291 292 291 290 294 294 291 291 290 286 287 287 290 291 293 296 292 291 282 284 286 288 287 285 285 285 280 284 277
307 306 304 304 304 305 305 305 305 305 305 293 286 285 288 286 290 290 290 290 292 292 292 291 289 292 291 287 288 287 290 289 288 291 289 290 279 279 276 286 285 283 286 286 286 285 285
307 306 305 304 303 304 304 305 304 304 300 289 290 291 288 286 286 286 289 289 292 293 295 295 293 291 290 292 293 292 291 291 291 289 287 288 282 277 275 283 282 277 284 285 286 287 287
308 307 306 304 303 303 303 304 304 303 300 291 290 289 284 281 283 285 286 288 290 292 293 296 296 291 294 296 295 293 291 291 291 290 291 286 284 279 275 278 270 282 290 289 288 289 289
309 308 306 305 304 303 303 303 304 303 302 292 292 288 284 279 283 284 285 287 289 293 292 294 296 297 296 294 288 288 288 289 289 289 289 289 289 278 276 275 280 284 287 287 286 286 291
310 309 307 306 305 304 302 302 303 303 302 293 291 292 287 283 279 285 284 285 282 286 290 295 299 299 296 292 290 282 281 283 284 287 289 289 290 281 281 274 275 286 289 293 292 285 293
312 310 308 307 306 305 303 302 302 303 302 294 292 293 287 282 284 284 283 284 289 288 287 293 296 294 296 289 288 281 282 286 280 283 284 284 285 281 279 278 281 290 293 294 285 285 294
312 311 310 308 306 305 305 304 303 303 302 296 292 296 289 283 284 288 288 284 284 284 284 290 291 294 291 287 286 286 283 287 283 284 283 282 283 280 280 280 275 292 291 288 293 295 296
312 312 310 309 308 307 306 304 303 303 303 302 294 298 298 290 286 291 291 291 290 288 286 288 290 289 295 289 287 287 284 283 282 280 285 281 285 282 283 282 290 292 292 295 296 298 297

GFSGBSN_sfc_thetae_072.txt.gz
Theta_e
316 316 316 315 314 314 313 314 315 315 315 316 315 314 313 313 313 312 310 310 310 310 310 310 310 310 306 296 296 307 316 313 316 314 312 308 301 305 298 301 303 300 302 304 305 307 307
316 315 316 315 315 314 313 314 314 315 314 315 314 313 312 313 312 311 309 308 309 309 310 310 310 309 300 289 304 309 310 309 311 312 311 309 301 304 301 302 301 304 304 303 303 303 304
315 315 315 315 314 313 312 312 313 314 314 314 314 313 312 313 312 311 309 308 309 308 309 310 310 306 298 294 304 306 306 309 312 312 309 311 307 304 302 297 304 303 299 301 302 302 301
315 315 315 314 314 313 312 311 311 312 313 313 313 313 311 313 312 311 309 308 309 308 309 310 309 303 291 305 303 304 307 306 309 313 313 314 311 303 300 301 300 298 297 292 299 301 302
314 314 314 314 314 313 312 311 311 311 312 313 313 313 312 312 311 311 310 309 309 309 309 309 303 297 290 307 300 302 302 301 306 310 312 314 309 300 300 295 291 294 288 290 294 301 300
313 314 314 314 314 313 312 311 311 311 311 312 312 311 312 312 312 312 310 309 309 307 306 307 304 291 296 294 301 304 309 307 304 307 306 305 303 293 293 290 284 287 287 288 289 297 299
313 313 313 313 313 313 312 311 310 310 310 311 311 310 312 312 312 312 305 298 293 291 296 292 293 293 296 302 306 303 307 304 304 302 296 301 294 289 290 293 292 292 290 289 293 297 296
312 313 313 313 313 312 312 311 310 310 310 310 311 311 311 312 312 311 301 294 295 296 289 298 299 298 300 301 295 300 305 297 297 292 298 296 290 294 297 297 295 293 289 288 291 295 294
312 312 312 312 312 312 311 311 310 310 310 309 310 311 310 311 312 302 298 298 304 301 290 294 298 296 297 300 294 295 301 299 295 290 294 292 294 298 296 294 292 291 287 287 288 291 292
311 311 311 312 311 312 311 310 310 310 309 309 309 310 310 311 301 299 296 303 303 300 282 289 292 296 300 297 294 303 305 300 295 289 293 294 297 295 294 293 293 289 293 293 289 287 282
310 311 311 311 311 311 311 310 310 309 309 308 309 310 310 310 298 295 299 303 301 296 274 290 293 304 302 295 296 297 306 301 293 292 294 289 294 292 292 293 294 291 297 292 289 286 284
309 310 310 310 311 311 310 310 310 309 308 308 309 310 310 304 302 304 307 303 297 277 274 287 294 295 295 296 297 299 298 302 301 294 294 292 296 294 292 295 296 297 291 290 289 287 278
309 309 310 310 310 310 310 310 310 309 308 308 309 310 307 305 297 305 305 294 276 274 286 287 290 294 293 293 294 294 292 293 290 284 285 289 290 293 294 289 293 293 286 280 280 280 277
308 308 309 309 310 310 310 310 309 309 308 309 310 311 307 305 304 304 300 283 274 283 284 290 292 294 290 294 292 294 292 287 292 288 285 282 282 291 293 289 287 288 288 278 275 275 276
307 307 308 309 309 309 310 309 309 308 309 309 308 301 299 303 305 302 289 276 277 279 286 289 290 287 289 293 292 291 291 288 290 290 283 283 283 292 293 295 293 289 286 289 278 276 273
307 307 308 308 309 309 309 309 308 308 308 309 297 296 298 305 304 297 285 280 284 292 293 292 285 287 284 288 289 288 288 293 291 293 292 287 282 290 293 295 295 292 294 283 277 271 272
306 306 307 308 308 308 308 308 308 307 309 307 296 294 301 305 301 289 279 279 291 297 295 291 287 287 286 285 287 286 287 291 294 294 293 291 285 286 291 289 288 289 287 287 284 279 273
306 306 306 307 307 307 308 308 307 307 307 300 292 287 302 303 289 285 280 288 296 294 295 293 291 290 287 287 285 286 287 289 293 293 289 292 285 282 286 294 295 293 290 287 279 279 276
306 306 305 306 306 307 307 307 307 306 307 294 290 290 301 299 283 282 290 294 295 292 292 291 290 292 291 287 283 287 289 294 294 292 289 291 281 280 282 285 291 288 290 292 286 280 272
307 306 304 305 305 306 306 306 306 306 307 296 289 283 289 292 292 287 288 289 292 295 293 293 291 291 289 287 288 286 287 292 294 293 298 294 285 280 277 279 283 280 285 289 288 280 278
307 306 305 304 305 305 306 306 305 306 306 294 288 285 287 279 284 287 289 290 289 289 294 293 290 290 288 285 285 286 289 289 292 296 291 289 281 283 284 286 286 284 284 285 281 285 281
308 307 305 304 304 304 305 305 305 305 303 290 284 283 286 283 287 286 288 288 290 292 292 289 288 291 290 286 290 285 289 287 287 289 288 288 278 279 275 284 284 282 285 285 285 284 285
309 307 306 304 303 304 304 305 304 304 299 287 287 288 287 283 283 283 284 284 288 291 293 296 293 290 289 291 293 294 292 291 289 289 287 286 280 276 274 282 281 278 283 285 285 286 287
309 308 307 304 303 303 303 304 304 303 298 290 289 287 282 279 281 282 284 285 287 287 288 294 296 291 294 295 293 292 291 290 290 289 289 285 282 278 274 278 268 282 288 288 287 288 288
310 309 307 306 304 303 302 303 304 303 302 291 290 286 283 277 281 280 283 284 285 285 287 291 295 297 295 294 287 286 287 287 288 289 288 288 285 278 275 275 279 282 286 286 284 285 290
311 310 308 307 306 304 303 302 303 303 302 292 290 290 285 280 279 284 281 283 281 283 288 291 297 299 295 291 288 282 280 281 283 287 288 288 290 282 280 274 274 282 288 290 290 282 291
312 311 310 308 306 305 304 303 302 302 302 293 291 291 286 280 283 283 281 280 285 283 282 286 291 294 297 288 286 281 280 285 281 282 284 285 285 282 280 280 280 287 291 293 281 284 293
313 312 311 309 308 307 305 305 303 303 302 295 291 293 288 282 283 287 287 283 282 282 279 283 284 293 292 288 286 286 282 284 281 283 282 282 283 282 282 280 276 291 290 287 291 293 294
313 312 311 310 309 308 307 306 305 303 303 302 293 297 297 290 288 290 290 291 289 288 284 284 284 286 289 288 288 286 282 282 281 278 283 281 284 282 283 282 289 291 290 293 296 296 296

GFSGBSN_sfc_thetae_075.txt.gz
Theta_e
315 316 315 315 314 314 313 312 313 314 315 315 315 314 314 314 313 312 309 310 310 310 310 310 309 310 306 295 295 307 315 313 314 314 308 305 301 301 297 302 304 296 301 305 308 307 305
315 315 315 315 314 313 313 312 312 313 314 314 315 313 313 314 313 311 309 309 310 309 310 310 310 309 299 287 304 307 306 310 313 311 308 307 302 304 301 300 301 302 302 304 305 306 306
315 315 315 315 314 313 312 312 311 311 313 313 314 313 312 313 313 311 310 309 310 309 310 310 310 306 297 291 304 307 306 307 311 311 307 311 306 304 301 299 303 302 299 300 302 302 302
314 314 314 314 313 313 312 311 311 311 311 312 313 312 313 312 312 311 310 309 310 309 309 310 309 301 289 303 302 304 305 305 309 314 312 314 311 303 299 300 300 296 296 291 299 301 302
313 314 314 314 314 313 312 311 311 311 311 311 312 311 312 312 312 312 310 310 310 309 309 309 301 295 289 306 300 302 303 302 305 311 313 314 309 299 299 293 290 292 285 290 294 301 300
313 313 313 313 313 313 312 312 311 311 311 311 311 311 311 312 312 312 311 310 310 307 306 306 303 289 294 294 300 305 308 307 304 306 305 306 302 293 292 290 284 285 283 289 291 297 299
312 313 313 313 313 313 312 312 311 311 310 310 311 311 310 311 312 312 304 297 292 290 295 292 294 292 295 301 305 303 306 303 304 302 294 301 293 288 289 292 291 291 287 288 292 297 296
311 312 312 312 312 312 312 311 311 310 310 309 309 311 310 311 312 310 299 293 296 296 289 298 298 298 300 300 294 299 304 297 297 292 296 294 289 293 296 295 293 291 288 286 291 295 295
311 311 312 312 312 312 312 311 311 310 310 309 309 309 310 310 311 301 297 297 302 300 290 294 298 297 297 299 294 294 301 299 294 292 291 290 293 297 296 293 291 288 285 286 288 291 292
310 310 311 311 311 312 311 311 311 311 310 309 309 309 310 311 300 298 295 301 301 299 283 288 293 296 300 297 293 301 304 300 294 290 291 294 297 295 293 292 292 286 292 291 289 287 282
309 310 310 311 311 311 311 311 311 311 309 309 309 310 310 309 297 294 298 302 300 295 270 291 294 304 301 295 294 296 305 301 292 292 291 289 293 292 291 292 294 289 295 291 290 286 284
309 309 310 310 310 311 311 311 311 310 309 309 310 310 309 303 301 302 306 301 295 276 270 287 295 294 294 296 296 298 298 302 301 293 294 292 295 293 292 295 295 297 291 290 289 285 276
308 308 309 310 310 310 311 311 310 310 309 309 310 310 307 304 297 304 305 293 276 274 285 284 290 293 293 292 293 293 291 292 289 284 285 290 290 294 294 289 294 292 287 282 279 279 276
308 308 308 309 310 310 310 310 310 309 308 310 310 310 308 304 303 305 300 282 273 281 281 289 291 293 290 293 292 293 292 289 292 288 286 282 283 290 293 288 288 287 285 278 274 275 276
308 307 307 309 309 309 310 310 309 309 309 309 307 299 299 302 304 300 289 276 275 277 284 288 289 286 289 293 292 292 291 289 291 290 282 280 281 292 294 294 291 287 286 286 277 275 272
308 307 307 308 309 309 309 309 309 308 309 308 296 296 298 304 303 295 284 281 284 290 291 291 283 286 282 288 289 289 287 291 290 293 291 285 280 290 293 296 294 291 292 283 278 273 271
308 307 306 307 308 308 308 309 308 308 308 306 296 294 300 304 299 289 280 279 289 295 294 290 286 286 285 285 289 286 287 290 293 292 292 289 284 286 291 289 288 289 288 288 286 278 274
308 307 305 306 307 307 307 308 308 307 309 299 291 286 300 301 288 284 280 287 295 293 294 292 290 288 286 286 284 285 285 289 294 294 288 290 285 282 285 292 293 292 289 289 277 277 274
308 307 305 305 306 306 307 307 307 307 308 294 289 290 299 298 281 281 288 292 293 292 291 290 289 291 289 286 283 286 288 293 294 292 290 291 285 280 282 286 292 289 291 292 287 280 271
308 307 305 304 305 305 306 307 306 306 307 295 288 281 286 290 289 285 286 288 289 294 292 292 290 290 288 286 288 285 287 291 293 293 297 295 284 282 278 281 284 285 287 290 288 277 277
308 307 305 304 304 305 306 306 305 305 304 291 286 283 284 277 281 285 286 288 288 288 293 292 289 289 287 283 284 284 287 288 291 295 291 289 282 283 283 284 284 283 284 286 285 287 281
309 307 306 304 304 304 305 305 305 304 300 288 282 282 284 281 284 283 285 285 288 288 290 289 288 290 289 285 287 284 288 286 286 287 287 287 278 279 276 284 284 282 284 285 287 287 287
309 308 307 305 304 303 304 305 305 304 296 285 286 287 284 282 281 279 282 282 284 288 291 294 293 291 288 290 292 294 292 291 288 288 286 285 280 276 274 281 281 277 283 284 285 286 287
309 308 307 305 304 303 303 304 304 303 297 289 287 286 280 279 280 280 283 283 284 286 284 287 287 289 293 295 293 293 290 289 288 288 289 283 281 278 273 277 269 282 286 287 286 288 288
310 309 308 306 305 303 303 303 304 303 301 291 289 285 281 277 279 280 281 281 283 284 283 285 288 292 297 294 288 286 285 286 287 288 286 287 283 279 275 275 278 282 284 285 284 284 289
311 310 309 307 306 304 303 303 303 303 301 291 289 289 284 279 279 282 280 281 280 280 284 288 291 293 294 293 288 281 278 280 280 283 286 286 287 282 275 274 273 280 287 289 288 280 290
312 311 310 308 307 305 304 303 303 302 302 292 289 290 285 280 282 282 279 279 282 280 278 282 286 284 296 290 285 282 280 284 279 280 281 284 285 281 279 279 280 285 287 290 279 282 292
313 312 311 310 308 307 306 305 304 303 303 295 290 292 288 286 286 287 286 283 282 281 278 281 281 286 289 287 286 286 282 283 280 282 282 281 282 281 281 279 276 288 289 285 289 291 293
313 312 311 310 309 309 308 306 305 304 303 301 289 294 296 290 288 290 291 292 289 287 286 285 281 283 286 283 282 282 285 282 280 277 282 280 284 281 282 282 288 289 291 292 294 294 294

GFSGBSN_sfc_thetae_078.txt.gz
Theta_e
316 315 315 315 314 314 313 313 312 313 314 314 314 313 313 314 313 311 310 311 311 311 311 311 311 311 304 293 294 307 313 311 312 313 308 304 301 299 299 303 302 299 303 306 307 306 305
315 315 315 314 314 314 313 312 312 312 313 313 314 312 312 313 312 311 310 310 310 310 311 312 311 309 298 286 303 306 307 307 310 311 307 308 302 303 300 302 301 301 303 305 305 305 305
314 315 315 314 314 314 313 312 311 311 313 312 313 312 313 312 312 311 310 310 309 310 310 311 311 306 295 290 303 306 305 307 310 311 306 310 306 302 301 299 305 304 299 299 301 303 302
314 314 314 314 313 313 313 312 311 311 311 312 312 311 312 312 312 312 311 310 309 309 310 310 310 300 288 301 301 303 304 304 309 313 312 313 310 303 300 300 300 298 298 292 298 302 303
313 314 314 314 313 313 312 312 311 311 311 311 311 311 311 312 312 312 312 310 309 309 308 309 300 295 287 305 299 302 305 302 307 310 312 313 308 298 300 293 290 294 289 289 292 302 302
313 313 313 313 313 313 313 312 311 311 311 310 311 310 310 311 312 313 311 310 309 306 305 305 303 288 293 293 301 303 307 307 303 305 304 304 300 292 294 290 284 288 288 290 288 296 299
312 312 313 313 313 313 313 312 311 311 311 310 310 310 310 311 312 312 302 296 292 289 295 291 293 291 295 300 304 301 306 303 303 300 293 297 292 287 288 291 290 290 287 287 290 296 295
311 312 312 312 312 313 312 312 312 311 311 310 309 310 310 310 312 308 298 292 293 294 288 298 297 297 299 299 293 298 305 297 295 292 295 293 289 291 295 294 292 291 287 284 289 295 294
311 312 312 312 312 312 312 312 311 311 311 310 309 309 310 310 311 300 296 296 301 298 288 295 298 297 297 298 294 294 301 298 294 291 291 288 292 296 295 292 290 287 285 284 286 290 292
311 311 311 312 311 312 312 311 311 311 311 310 309 309 310 310 299 297 294 300 300 298 278 289 293 295 299 297 291 301 304 298 294 290 290 292 297 294 293 291 291 285 291 290 289 287 283
311 311 310 311 311 311 311 311 311 311 310 309 309 309 309 309 296 293 298 302 299 293 269 290 294 304 301 293 292 296 304 300 291 291 291 289 293 291 290 292 293 288 293 290 288 284 283
310 310 310 310 310 311 311 311 311 311 310 309 309 309 309 304 300 301 305 300 294 276 270 287 294 294 293 294 294 298 297 301 299 294 294 292 296 293 291 294 294 296 290 289 286 283 280
310 310 309 310 310 310 310 311 311 310 309 309 310 310 306 303 296 305 304 292 276 272 284 285 290 293 292 290 291 293 292 290 286 281 285 290 291 294 294 289 293 292 288 277 275 279 277
310 309 308 309 309 310 310 310 310 310 309 309 309 310 307 303 302 305 299 281 273 281 281 289 291 293 290 292 291 292 291 287 292 289 287 284 283 291 294 288 288 287 286 277 273 274 275
310 309 308 308 309 309 310 310 310 309 309 309 307 298 298 301 303 302 289 275 276 277 283 287 288 288 288 292 291 291 290 288 289 289 282 281 283 292 294 293 291 287 283 285 280 274 271
310 308 307 307 308 309 309 309 309 309 309 307 296 295 297 303 301 294 282 281 282 288 290 290 283 285 282 287 287 288 289 291 290 291 290 285 279 290 292 296 293 291 290 282 281 273 272
310 308 307 306 307 307 308 308 308 308 309 306 296 292 299 302 298 287 278 277 288 294 293 288 285 284 283 285 287 285 286 289 292 291 292 287 283 286 291 288 288 289 287 286 283 279 272
310 308 307 306 306 307 307 308 308 308 308 299 291 286 298 300 286 282 279 286 294 292 293 292 289 287 285 287 287 284 285 289 294 294 288 290 283 278 284 291 293 292 289 289 282 277 275
310 308 307 305 305 306 306 307 307 307 306 293 289 289 296 295 280 279 286 290 292 291 290 289 288 290 289 286 285 285 287 292 294 293 289 290 282 278 282 287 291 288 290 290 288 282 272
310 308 307 305 304 305 306 306 306 306 305 293 287 281 285 289 286 283 284 286 288 293 292 292 289 289 287 285 287 284 286 291 292 292 298 296 285 280 276 279 284 285 286 289 288 283 282
310 308 307 305 304 304 305 306 305 305 302 290 284 282 283 277 280 282 283 286 286 287 291 291 288 288 286 282 284 284 286 287 290 294 292 291 282 284 284 284 285 284 285 287 286 287 283
310 308 307 305 304 303 305 305 305 304 299 287 283 281 281 280 282 280 284 284 284 286 287 288 286 289 288 285 286 283 286 286 286 287 287 289 283 280 277 283 283 282 284 285 287 287 288
310 308 307 305 304 303 304 305 304 303 294 284 284 287 284 281 280 278 281 282 283 285 286 290 286 284 286 291 292 293 292 290 288 287 285 284 282 278 275 281 280 276 282 284 284 286 288
310 309 308 306 304 303 303 304 304 303 296 288 286 285 280 279 280 280 282 281 281 283 284 286 286 284 288 297 295 293 292 289 287 288 288 283 281 279 275 277 270 281 285 286 285 287 288
310 309 308 306 305 304 303 304 304 302 300 289 287 284 281 278 279 280 280 280 281 283 282 284 287 288 291 293 286 286 286 286 286 286 286 287 283 281 279 275 278 282 282 283 283 283 287
311 309 308 307 306 304 303 303 303 303 300 290 288 288 283 279 278 281 279 279 279 277 280 284 287 291 289 289 287 282 280 281 280 282 284 286 287 285 278 276 272 279 286 288 287 280 288
311 310 309 308 306 305 304 303 303 303 301 291 288 288 285 280 281 281 278 279 281 279 278 280 283 282 287 286 283 282 281 284 279 279 280 283 284 281 280 279 279 285 287 289 278 281 290
312 311 310 309 308 306 305 304 303 303 302 293 289 290 287 282 283 286 285 281 281 280 280 282 280 284 284 283 285 284 283 284 281 282 281 282 280 281 281 280 276 287 288 284 287 290 291
312 311 310 309 309 307 306 305 305 304 303 297 288 293 294 289 286 289 289 290 288 287 285 286 280 280 283 281 281 281 283 284 282 278 281 280 283 281 282 282 287 288 290 291 292 292 293

GFSGBSN_sfc_thetae_081.txt.gz
Theta_e
315 315 315 315 314 314 314 313 312 312 313 314 315 312 313 313 312 311 310 311 311 311 312 312 311 310 304 294 294 307 312 311 311 313 309 306 302 301 299 302 302 300 304 307 307 305 304
315 315 315 315 314 314 313 313 312 312 312 313 314 313 313 312 312 311 310 311 310 311 311 312 311 309 298 287 301 307 306 307 309 310 308 308 304 304 302 302 301 303 305 305 305 304 305
315 315 315 315 314 314 313 313 312 312 311 312 313 312 312 313 313 312 311 311 310 310 310 312 311 304 295 291 303 304 304 304 309 311 306 310 308 305 304 301 306 304 299 301 303 303 303
315 315 315 314 314 313 313 312 312 312 312 312 312 312 310 311 313 312 312 311 310 310 310 311 310 299 289 301 303 303 303 304 309 313 311 313 310 304 302 303 302 300 299 293 299 302 303
315 314 314 314 314 314 313 313 312 312 312 311 311 311 311 311 312 313 312 311 310 310 310 309 300 295 289 304 299 303 307 302 306 311 312 313 309 301 301 296 294 295 289 291 295 302 301
314 314 314 314 313 313 313 313 312 312 311 311 310 311 311 310 311 313 310 309 309 305 304 304 302 289 294 294 301 303 307 306 303 305 304 304 300 295 295 292 285 288 290 291 291 298 300
314 313 313 313 313 313 313 312 312 312 312 311 310 310 310 310 311 312 301 296 291 290 296 292 292 291 295 300 304 301 305 302 302 301 291 298 292 289 291 293 292 292 292 290 293 298 298
314 313 313 313 313 312 313 312 312 312 311 311 310 309 310 309 311 308 298 292 293 295 289 298 297 296 299 300 293 297 305 296 296 291 294 292 289 292 295 295 293 292 289 289 293 296 297
314 313 313 312 312 312 312 312 311 311 311 311 310 309 310 309 311 300 295 295 300 299 289 295 298 297 297 298 294 294 302 299 293 290 291 287 292 295 295 293 291 290 288 288 289 293 295
314 312 312 312 312 311 312 312 311 312 311 310 310 309 309 310 299 296 293 300 300 297 282 289 293 296 299 297 291 302 303 298 294 290 291 292 296 294 292 291 292 287 292 291 290 289 286
314 312 312 311 311 311 311 311 312 311 311 310 309 309 308 309 295 293 297 303 298 292 272 291 294 305 300 291 293 295 304 299 291 290 291 289 293 292 290 292 293 289 294 291 289 287 287
314 312 311 310 311 311 311 311 311 311 310 309 309 308 310 303 299 301 304 299 293 277 271 288 295 294 293 294 294 297 297 300 300 293 293 292 297 295 293 294 295 295 291 290 287 285 280
314 311 310 309 310 310 311 311 311 311 310 309 309 310 304 302 296 305 303 291 276 273 284 284 288 293 291 290 291 293 292 289 287 283 285 290 291 295 294 290 294 294 287 280 277 279 278
313 311 310 309 309 310 310 310 311 310 310 310 309 310 305 302 302 305 298 284 274 281 281 290 291 292 288 291 290 290 290 286 290 289 287 284 282 291 294 290 289 289 288 280 274 275 277
313 311 310 308 308 309 309 310 310 310 309 308 307 297 298 300 303 303 287 276 276 278 283 287 288 288 287 292 291 289 290 288 290 289 285 284 284 293 295 294 292 288 286 287 281 277 276
313 311 309 308 308 308 308 309 309 309 309 307 295 295 296 301 303 296 282 282 282 287 289 289 283 285 283 288 287 288 286 290 290 291 290 287 281 291 293 295 294 291 290 283 283 274 274
313 310 309 308 307 306 307 308 308 308 309 306 295 291 298 301 300 286 278 278 287 292 292 288 284 284 283 285 288 285 285 289 292 291 291 288 284 286 291 289 288 289 287 287 285 281 276
313 310 309 307 306 305 306 307 308 308 307 299 290 285 297 299 285 282 278 285 293 291 292 291 289 287 285 286 288 284 284 287 293 293 288 289 285 282 286 292 294 293 289 289 283 279 277
313 310 309 307 306 305 305 306 307 307 305 293 289 289 294 294 278 277 285 288 291 290 289 288 287 289 288 285 284 286 286 292 294 292 289 290 284 279 282 287 291 289 290 291 286 284 274
312 310 309 307 305 305 305 306 306 306 305 293 286 281 284 287 285 283 282 284 286 291 291 291 289 288 286 285 288 286 285 291 293 294 298 295 286 281 278 280 284 284 287 289 288 282 281
312 310 308 307 305 304 304 305 305 304 304 291 284 282 282 277 280 281 283 284 284 286 289 290 289 286 286 284 283 284 287 288 290 294 295 293 285 284 285 284 286 285 285 286 284 286 282
312 310 308 307 305 304 304 305 304 302 300 287 283 282 281 279 281 279 283 283 283 284 285 285 285 284 288 286 288 284 287 288 287 288 289 290 284 283 280 285 283 282 285 286 286 287 287
312 310 308 307 305 304 304 304 303 301 295 285 283 285 283 281 278 277 279 282 282 283 284 287 284 282 282 286 292 291 291 291 292 288 285 285 283 281 279 282 281 276 283 285 286 287 288
311 310 308 307 305 304 304 304 303 301 294 287 285 284 281 279 280 279 281 281 281 281 281 285 285 281 285 289 291 292 291 291 288 288 289 284 283 283 280 279 272 282 286 287 286 288 289
311 310 308 307 306 305 304 304 302 302 299 288 286 284 281 278 279 279 280 280 280 281 281 283 285 286 289 286 284 281 285 286 288 287 286 288 284 281 279 276 278 283 283 283 283 283 287
311 310 309 307 306 305 304 304 303 301 299 289 287 286 283 280 278 281 279 278 277 276 278 282 285 287 285 286 284 278 278 280 281 283 285 286 289 285 279 274 273 280 286 288 287 281 288
311 310 309 308 306 305 304 304 303 302 300 291 287 288 285 281 281 281 278 278 280 279 277 279 281 281 285 282 280 277 277 286 280 281 281 283 284 282 280 278 280 285 287 289 280 281 290
311 310 309 308 307 305 305 304 304 302 300 292 288 289 287 282 282 284 285 281 280 279 278 281 279 281 280 280 277 280 281 281 281 282 282 283 281 280 282 279 277 288 287 284 287 290 292
310 310 309 308 308 306 305 305 304 304 301 296 288 292 292 286 285 288 288 289 288 286 286 285 281 279 280 275 276 274 278 281 282 279 285 282 282 281 282 282 288 288 289 291 292 291 293

GFSGBSN_sfc_thetae_084.txt.gz
Theta_e
317 316 316 316 315 315 314 314 313 312 313 314 314 313 314 313 311 312 311 311 311 312 313 313 312 311 306 297 297 308 313 311 312 311 310 308 306 304 300 304 307 304 307 309 309 310 310
316 316 316 315 315 315 314 314 313 312 312 313 314 313 312 314 313 312 311 311 311 311 311 312 312 310 300 291 305 307 306 309 310 311 310 309 306 307 304 305 304 306 308 308 309 307 308
316 316 316 315 315 315 314 314 313 312 312 312 313 313 312 312 313 313 313 311 311 310 311 312 311 305 299 296 307 308 306 306 308 312 308 310 310 307 306 303 308 307 303 306 306 308 306
317 315 315 315 315 314 314 314 313 312 312 312 312 312 312 311 312 313 313 312 311 311 310 311 310 303 295 304 309 307 309 306 312 314 311 313 312 307 306 308 305 301 302 297 304 306 306
317 315 315 315 314 314 314 314 313 313 312 312 311 311 311 311 311 312 313 311 311 311 310 309 304 300 293 307 302 307 309 304 309 312 312 313 309 304 305 300 297 299 293 295 298 306 305
318 315 314 314 314 314 314 314 312 313 312 311 311 310 311 310 311 312 310 310 309 306 306 306 304 295 299 297 303 305 309 307 306 307 305 303 304 300 300 298 289 291 293 295 295 301 303
318 316 314 313 314 313 313 313 313 312 312 312 310 310 310 310 310 312 305 305 299 298 302 295 296 294 297 303 306 304 306 304 305 302 293 296 294 292 295 298 297 297 295 294 297 302 300
319 316 314 313 313 313 313 313 313 312 311 311 310 310 310 310 310 308 305 298 298 300 294 300 299 299 301 303 295 301 306 298 297 292 296 291 290 297 298 299 296 296 294 293 296 300 300
319 317 314 313 312 313 312 312 312 312 311 310 309 310 310 308 310 305 302 300 305 304 296 296 300 298 299 301 295 298 303 299 295 292 293 289 292 298 297 296 294 295 293 293 293 297 301
319 317 314 313 312 312 312 312 312 312 311 310 309 310 309 309 304 303 299 304 306 304 290 291 294 298 300 299 294 304 305 300 295 290 293 293 297 296 295 294 296 291 297 296 294 294 289
319 317 314 313 311 311 311 311 311 312 311 310 309 309 308 309 304 301 302 305 305 301 280 292 296 306 301 294 296 298 306 301 293 292 294 290 293 293 293 295 297 293 297 296 295 294 292
319 316 314 312 311 311 311 311 311 311 311 310 309 308 310 307 307 305 307 305 302 287 279 288 296 295 294 296 295 298 299 303 302 296 295 293 299 297 296 298 298 298 295 295 294 292 285
319 316 314 312 311 310 310 310 311 311 310 310 309 310 307 307 302 307 305 300 287 284 288 287 290 294 293 291 292 294 294 293 291 286 286 291 292 297 298 295 297 297 293 284 283 283 282
318 316 313 312 310 310 310 310 310 310 309 309 310 310 306 306 309 307 303 293 284 286 287 292 292 293 290 292 292 292 291 290 294 293 287 286 283 293 297 295 293 293 292 285 277 279 283
318 315 313 311 310 310 309 309 309 309 309 310 307 307 306 307 308 306 296 288 286 288 290 290 292 289 289 292 292 291 291 290 293 295 289 288 285 294 296 296 296 292 288 292 286 284 283
317 315 312 311 310 310 308 308 308 308 308 309 305 304 304 307 306 302 294 287 289 291 292 293 287 290 286 289 288 288 290 293 293 296 296 292 284 292 294 296 296 294 296 286 288 279 278
317 315 312 311 310 309 308 307 307 307 308 308 305 300 304 307 305 297 290 290 291 295 296 292 290 289 290 289 290 288 289 293 296 295 295 293 290 288 292 290 290 290 289 290 290 287 282
316 315 312 310 309 308 307 307 306 306 308 304 302 295 304 305 296 293 293 291 295 295 297 295 294 292 290 290 290 289 290 293 298 296 291 293 290 285 287 294 297 295 291 292 285 283 286
316 314 312 310 308 307 307 306 306 306 307 302 298 298 301 302 291 291 291 291 294 294 294 293 292 294 293 291 287 291 292 296 298 296 293 292 289 282 284 289 292 290 292 293 292 289 284
315 314 312 309 308 307 306 306 305 305 306 302 296 293 293 296 293 291 288 289 290 295 295 295 293 294 292 290 292 289 290 294 297 297 299 297 290 287 283 285 290 287 290 292 290 285 285
315 313 311 309 307 307 306 305 304 304 306 299 293 290 290 291 289 289 289 289 288 288 294 294 292 291 290 287 288 288 291 292 294 297 297 293 286 288 288 288 289 288 289 290 287 289 285
314 313 311 308 307 306 306 305 304 303 302 295 292 290 289 287 287 288 287 288 288 288 288 289 289 290 288 287 289 287 287 290 291 292 294 293 286 287 285 289 288 286 289 290 290 290 290
313 312 310 308 307 306 305 304 303 303 299 294 292 293 293 285 286 286 286 287 286 286 288 289 288 286 285 287 290 292 292 290 287 289 290 290 287 285 283 286 285 282 286 288 289 291 291
312 311 310 308 306 306 305 304 303 301 298 295 293 294 291 285 286 286 285 286 285 285 284 287 288 285 288 292 292 292 291 291 289 289 289 288 288 288 284 283 277 287 289 291 290 291 293
312 311 310 308 306 306 305 304 303 301 298 295 293 293 292 285 286 284 284 284 286 286 285 285 288 290 291 287 285 284 284 284 287 289 290 292 289 285 282 281 285 287 288 287 287 287 293
312 311 310 308 307 306 305 304 303 301 299 294 292 293 294 288 285 287 285 285 284 284 284 285 289 291 289 287 285 280 279 283 283 284 286 289 291 287 283 279 277 286 291 292 292 285 293
311 310 309 308 307 306 305 304 303 302 299 295 293 293 294 289 287 287 286 285 286 285 283 284 285 285 290 285 283 282 281 286 281 282 282 284 286 284 283 282 285 291 292 294 283 287 296
311 310 309 308 307 306 305 304 303 301 300 297 293 295 294 290 288 288 289 286 285 286 283 285 284 285 285 281 281 281 281 285 284 286 285 285 284 283 284 281 279 292 291 287 293 297 297
310 309 308 307 307 306 306 305 303 302 301 299 293 296 297 293 290 292 292 293 292 291 287 288 284 283 286 283 283 282 281 283 283 281 289 284 288 287 288 287 292 294 295 297 298 297 299

GFSGBSN_sfc_thetae_087.txt.gz
Theta_e
318 317 316 317 316 316 316 315 314 313 313 313 315 314 313 314 314 313 313 312 312 312 312 313 313 312 307 298 297 307 313 311 312 312 311 310 306 304 301 304 306 305 305 309 311 312 311
320 318 317 316 316 316 315 315 314 313 313 313 314 314 313 312 313 314 314 313 312 311 311 313 313 311 303 292 307 309 307 309 309 312 311 311 306 307 303 303 304 307 308 308 310 309 311
320 318 317 316 316 315 315 315 314 313 313 312 312 313 313 312 312 313 314 314 312 311 311 312 313 307 300 297 308 309 308 306 310 312 309 311 311 306 305 302 308 306 302 305 306 308 307
321 319 317 316 315 315 315 315 314 314 314 312 311 312 312 312 311 312 313 313 312 312 311 312 311 306 295 306 310 308 309 307 312 314 312 313 314 309 306 308 306 301 302 297 304 307 308
322 320 318 316 315 315 314 314 314 313 314 313 312 311 311 311 310 312 313 312 312 311 311 311 306 302 294 309 303 308 309 305 310 312 313 313 311 304 306 300 297 299 293 295 299 307 305
323 321 318 316 315 315 314 314 313 313 314 313 312 310 311 311 310 311 312 310 311 310 309 307 305 297 300 297 304 306 309 309 306 307 303 302 303 299 300 297 287 292 293 295 296 302 304
324 321 319 316 315 314 314 313 313 313 312 312 310 309 311 311 310 312 308 306 302 301 303 297 297 296 299 304 306 304 307 307 307 303 293 296 294 292 296 298 297 296 295 294 297 302 301
324 322 319 316 315 314 314 313 313 312 312 312 311 310 310 311 309 311 307 301 300 303 296 301 300 300 302 304 297 302 308 300 299 294 297 294 293 297 299 299 298 297 294 294 297 301 300
324 322 319 317 315 314 314 313 312 312 312 311 310 309 310 309 310 307 303 302 307 306 297 297 301 299 300 302 296 299 304 301 297 294 294 290 295 299 298 297 295 295 294 294 294 298 300
325 322 319 317 315 314 313 312 312 312 311 310 309 309 309 309 306 306 302 306 308 306 291 292 295 299 301 301 295 304 306 301 296 292 294 293 298 296 296 294 296 291 298 296 295 294 289
324 322 320 317 314 313 313 312 312 312 311 310 309 309 308 309 306 304 304 308 308 304 282 293 297 307 302 297 297 299 307 302 294 293 295 292 294 294 294 295 297 293 299 296 296 293 293
324 322 320 316 314 313 312 312 311 311 311 310 309 308 309 307 309 307 309 307 304 288 280 289 297 295 294 296 296 299 300 304 301 296 296 294 300 298 297 299 299 300 296 296 295 293 285
324 321 319 317 314 312 312 311 311 311 310 309 309 309 310 310 304 310 309 303 287 286 290 288 291 295 293 292 293 295 294 293 292 287 287 291 294 298 299 295 298 297 292 285 282 282 282
323 321 319 316 314 312 312 311 310 310 309 309 310 311 307 309 311 310 306 295 285 289 289 295 294 294 290 293 293 293 292 290 296 294 289 286 284 294 298 296 292 293 292 286 278 281 284
322 320 318 316 313 312 311 311 310 309 308 311 311 310 309 309 311 310 299 287 288 291 293 292 293 290 291 293 293 292 291 291 294 296 289 287 287 296 298 298 297 292 290 295 287 288 284
321 319 317 315 313 312 311 310 310 309 309 311 308 307 306 310 310 305 297 289 292 295 295 295 289 292 288 291 290 291 290 294 293 296 299 293 285 293 295 298 298 295 297 287 288 279 278
322 319 317 315 313 312 311 310 309 309 309 311 307 302 306 310 308 300 288 292 294 298 297 294 291 290 291 290 292 289 290 294 296 296 297 295 291 289 293 291 290 291 290 291 290 287 281
320 318 316 315 312 312 310 309 309 308 310 307 306 298 307 309 299 299 295 293 295 296 299 296 296 294 292 292 291 290 290 294 299 298 292 295 292 286 288 295 297 295 291 291 285 283 287
320 318 316 314 312 311 309 309 309 309 310 307 301 301 304 305 294 294 294 293 296 296 296 295 293 295 295 291 287 291 292 298 299 297 294 294 289 283 285 290 294 291 293 293 292 291 285
319 317 315 313 311 310 309 308 308 308 310 306 300 294 296 299 297 293 290 290 290 297 296 296 295 296 293 290 293 289 290 295 297 297 300 298 290 287 283 286 291 287 290 292 291 285 286
318 316 314 312 311 309 308 308 307 307 308 304 298 295 296 292 291 292 291 290 288 288 295 296 292 293 291 287 287 286 289 292 295 297 296 291 286 289 290 289 291 290 290 290 288 290 286
317 315 313 312 310 309 308 307 307 306 307 298 295 294 293 292 290 291 289 290 289 289 290 287 289 290 290 285 285 283 287 287 289 293 292 294 286 288 285 289 290 287 290 291 291 290 290
315 314 312 310 310 309 308 307 306 308 305 299 296 297 297 289 290 289 289 289 288 289 289 290 289 287 285 287 289 290 291 291 290 286 287 287 286 285 283 288 286 283 288 290 291 293 292
314 313 312 311 310 309 308 306 305 307 304 300 299 299 294 288 290 289 288 289 288 288 286 289 289 286 290 293 292 291 290 290 290 289 289 285 284 287 283 285 278 288 292 294 292 293 295
314 312 311 310 309 308 306 305 304 306 301 299 297 299 295 290 290 288 287 287 288 288 287 287 289 291 292 289 285 284 285 284 287 289 288 288 286 285 282 281 286 288 288 288 288 288 294
313 312 311 310 308 308 306 305 304 304 301 298 295 298 299 292 289 290 288 288 287 287 287 287 291 292 291 288 284 279 280 283 283 284 288 288 288 286 285 280 277 287 291 294 294 285 296
313 311 310 309 308 307 306 304 303 302 301 299 295 297 299 292 291 291 289 288 289 288 286 287 287 287 291 285 283 282 282 287 282 283 282 284 284 282 284 282 286 293 294 295 283 288 298
312 310 309 308 308 307 306 305 303 302 301 300 295 298 298 294 291 291 291 289 288 289 286 287 287 287 287 282 282 283 283 285 284 287 286 285 284 284 285 282 279 294 293 288 294 298 298
311 309 308 308 307 306 306 304 303 302 301 301 295 298 302 296 292 294 295 295 294 293 290 289 287 285 288 285 285 284 283 285 283 282 290 284 288 286 288 287 294 295 296 298 299 298 299

GFSGBSN_sfc_thetae_090.txt.gz
Theta_e
322 321 319 318 317 317 316 315 315 315 314 313 314 315 314 314 313 315 314 314 313 313 312 313 314 313 308 297 296 308 311 311 310 309 307 309 305 304 299 303 303 301 302 308 310 311 310
324 322 320 318 317 317 316 315 314 314 314 313 313 313 314 314 312 313 314 314 314 312 312 312 314 313 303 291 306 308 307 307 308 310 310 310 306 306 302 302 302 303 302 305 309 310 309
325 323 321 319 317 316 316 315 315 314 314 314 313 312 312 313 311 312 314 314 314 312 313 312 313 308 298 295 307 309 308 307 308 311 308 312 311 307 305 300 307 304 298 304 306 307 307
327 325 322 320 317 316 315 315 315 313 314 314 313 312 312 312 311 312 313 314 313 313 313 313 313 306 294 306 308 307 309 307 311 314 312 312 312 308 305 306 303 300 301 293 301 305 307
329 326 323 321 318 316 315 315 315 314 313 314 313 311 310 311 311 311 312 314 312 313 313 312 306 302 293 311 302 307 309 306 310 311 310 311 310 304 304 296 293 296 290 292 296 305 304
330 327 324 321 318 316 316 315 314 314 313 313 312 311 310 311 311 311 313 313 311 311 311 307 305 297 299 297 303 306 309 310 306 305 303 302 301 297 296 295 286 289 290 293 293 300 302
330 329 324 321 319 317 316 315 314 314 313 313 312 310 310 311 311 311 310 307 301 300 302 296 296 296 298 303 307 305 308 307 305 301 293 296 293 290 293 296 295 295 292 291 296 302 300
329 329 325 322 319 317 315 315 314 313 313 312 311 309 310 311 310 311 308 301 300 303 295 301 300 300 302 304 298 302 309 300 299 292 295 293 290 296 298 298 296 293 290 290 296 300 299
329 329 326 322 320 317 315 314 314 313 312 311 310 309 310 310 309 309 304 302 308 307 297 297 300 298 299 302 297 299 304 301 296 293 294 289 294 299 297 296 294 294 291 291 292 296 296
328 328 326 323 320 317 315 314 313 312 312 311 310 309 309 309 305 306 302 306 308 308 289 291 295 298 301 301 295 304 306 302 296 292 294 294 298 296 295 294 295 290 297 296 294 291 284
328 328 325 323 320 317 315 314 313 312 312 311 309 308 308 308 307 303 305 308 309 304 278 294 296 306 302 297 297 299 307 302 293 293 295 291 293 293 293 293 296 293 297 295 295 290 288
327 327 325 322 320 317 315 313 313 312 312 311 309 309 309 307 308 307 309 308 304 288 275 289 297 295 295 296 296 299 300 304 302 295 295 293 299 297 295 298 297 300 295 294 292 289 280
320 326 324 322 319 317 315 313 312 312 311 310 309 309 309 310 303 310 309 302 288 282 291 288 291 294 293 292 293 294 294 292 290 285 284 290 292 297 299 293 296 295 290 281 279 280 276
319 325 324 322 318 316 314 313 312 311 311 309 310 310 308 309 310 309 305 294 282 288 287 294 294 294 289 293 293 292 291 288 293 292 287 280 282 292 297 294 290 290 289 282 276 276 278
318 318 324 321 317 315 314 313 312 311 310 310 311 309 307 309 311 309 298 287 287 289 292 292 293 289 290 293 292 291 289 289 292 293 287 285 284 295 297 298 296 289 284 292 285 284 277
318 317 322 320 317 315 314 312 312 311 310 312 307 306 305 310 310 304 294 289 291 296 295 294 287 291 287 290 289 289 289 293 291 295 297 292 284 292 295 297 296 293 294 284 282 272 274
314 317 322 319 317 315 314 313 311 311 310 312 306 301 305 310 308 298 285 290 294 298 297 293 291 289 289 289 290 288 289 293 294 294 296 294 289 288 292 289 288 290 289 290 288 283 274
313 317 321 318 316 314 313 313 311 310 310 309 305 296 306 308 295 298 293 294 296 296 298 295 295 293 290 290 288 287 288 291 298 297 291 294 289 284 287 294 296 294 291 290 284 281 282
315 317 320 318 315 313 313 312 311 310 311 305 300 298 304 304 292 293 293 292 295 295 295 294 293 294 293 290 285 288 289 297 298 296 292 293 286 282 285 289 293 290 291 292 290 288 280
313 314 320 316 314 312 312 311 311 311 312 306 300 291 294 298 296 291 290 290 290 296 295 296 293 294 291 288 290 287 288 293 296 295 300 296 289 284 280 284 288 285 289 291 289 284 282
313 313 319 315 313 312 311 311 311 311 312 305 297 294 295 288 290 291 290 290 288 288 294 295 291 291 288 285 285 284 285 286 290 294 293 290 283 287 288 290 290 288 288 290 287 288 283
312 312 315 315 313 312 311 310 310 310 311 298 294 291 290 289 290 289 289 288 288 290 290 287 287 288 287 284 284 281 284 284 284 289 289 289 284 285 285 289 288 286 289 290 290 290 289
311 311 316 315 313 311 310 309 309 309 307 296 296 296 294 290 288 286 287 289 289 289 289 290 288 285 284 285 287 288 287 287 286 286 284 284 284 283 281 286 285 282 286 288 290 291 291
310 311 315 314 312 310 309 309 309 309 306 300 297 296 292 285 286 287 289 289 288 289 286 288 288 285 288 291 290 288 287 286 286 286 288 283 281 282 282 284 275 286 290 292 290 292 293
308 310 315 313 311 310 309 309 308 309 307 299 298 296 293 287 287 287 287 287 287 287 286 287 288 289 290 288 283 282 284 282 285 287 286 287 283 281 281 279 284 285 287 288 287 286 292
309 309 312 312 310 309 309 308 308 309 306 298 296 297 297 289 285 290 287 287 283 283 285 287 290 290 289 286 283 276 275 278 282 283 287 287 286 283 282 278 277 284 288 291 290 280 293
308 312 313 311 309 309 308 308 307 308 304 299 295 297 297 289 288 289 286 286 287 285 282 285 285 286 289 284 280 280 278 284 278 280 281 283 283 278 281 280 284 289 290 292 279 283 295
308 308 311 310 309 308 308 307 307 307 304 301 295 298 297 290 289 291 292 287 286 286 282 285 284 285 284 281 281 281 280 282 280 283 283 282 280 281 282 278 278 290 290 284 290 293 294
307 310 310 308 308 307 307 306 305 304 303 303 294 298 300 293 289 294 293 294 293 291 288 286 284 284 285 281 280 279 277 278 279 275 286 281 285 283 287 285 291 292 291 293 294 293 294

GFSGBSN_sfc_thetae_093.txt.gz
Theta_e
327 325 323 321 319 318 317 317 316 315 315 314 314 313 314 314 314 313 314 315 315 314 313 313 313 314 308 296 294 307 311 311 310 311 307 306 302 301 298 300 303 301 302 307 309 311 310
330 328 325 323 320 318 318 316 316 315 315 315 314 313 312 313 312 312 313 313 315 314 313 313 313 314 302 289 305 308 307 307 307 308 308 308 305 306 300 301 300 303 303 302 306 308 309
331 330 327 325 322 319 317 316 315 315 314 315 315 313 312 312 312 312 312 314 315 314 313 314 314 309 298 294 306 307 309 306 308 309 307 311 311 306 301 300 306 304 298 301 302 306 306
332 331 329 326 323 320 317 316 315 315 315 314 315 313 312 311 311 311 312 313 314 313 314 314 314 305 292 306 304 308 308 307 312 314 312 312 311 307 302 304 303 300 299 292 301 305 306
331 331 330 328 324 321 318 316 315 315 315 314 314 312 311 310 311 311 312 313 314 313 314 314 304 299 292 310 302 305 307 308 309 310 308 310 308 301 301 294 293 296 290 291 295 303 303
330 330 330 329 325 322 319 317 315 315 314 314 313 312 310 311 312 311 312 313 313 311 309 309 304 292 298 296 303 305 309 310 305 304 301 299 298 293 292 290 283 288 290 292 291 298 301
326 328 329 329 326 322 319 317 315 315 314 313 313 311 310 310 311 311 309 302 297 295 299 294 295 295 298 303 307 304 307 307 305 299 289 294 290 285 289 292 293 293 292 291 295 301 298
320 325 327 328 326 323 320 317 315 314 313 313 312 311 309 310 311 311 306 297 298 299 292 300 300 300 303 304 298 302 307 299 297 290 294 290 286 293 297 295 294 292 289 290 295 301 299
317 319 323 327 327 323 320 317 316 314 313 312 311 310 309 310 310 307 301 300 304 303 292 297 300 298 299 302 296 298 303 300 294 292 293 286 292 298 296 294 292 290 289 290 291 297 298
315 316 317 321 327 324 320 318 315 314 313 312 311 310 309 309 304 302 299 304 304 303 280 289 296 298 301 301 294 303 305 300 294 290 292 290 297 295 293 292 293 288 296 295 293 291 284
313 316 317 319 326 323 320 317 315 314 313 312 311 309 309 309 303 301 302 305 304 298 268 291 296 306 303 296 296 299 306 301 291 292 291 287 292 291 291 293 295 292 297 294 294 289 286
311 312 315 315 319 322 320 317 315 314 313 312 311 309 309 306 304 304 306 303 299 280 268 287 297 296 295 295 295 299 299 302 300 293 293 291 297 295 293 297 296 297 294 292 291 288 277
310 312 312 315 317 322 319 316 315 313 312 312 310 310 308 309 302 305 304 297 281 272 287 284 290 293 292 291 292 293 293 290 287 283 284 286 289 295 297 291 295 293 289 280 275 274 275
310 311 310 314 313 321 318 315 314 313 312 311 310 310 309 308 306 305 300 286 272 285 282 291 293 292 288 291 291 291 289 288 292 290 285 276 274 290 296 292 289 289 288 279 274 274 276
308 310 310 312 313 315 318 315 314 313 312 310 311 305 303 306 308 304 293 277 279 284 289 291 292 286 287 291 290 290 288 286 290 292 286 280 281 294 296 296 294 288 283 289 282 281 274
308 310 309 311 311 315 317 315 314 313 311 312 303 302 302 308 307 301 290 284 286 294 294 293 284 288 283 287 287 286 286 290 289 292 293 289 280 290 293 296 295 292 293 283 283 277 274
308 309 309 310 310 315 316 314 314 312 311 312 303 297 304 308 304 296 277 285 292 296 295 291 288 287 286 284 287 285 287 290 292 292 294 293 288 287 292 288 287 289 287 288 286 282 274
306 309 309 309 311 314 316 314 314 312 312 308 300 291 305 305 293 291 283 290 295 294 295 293 292 290 287 287 285 283 286 289 295 295 289 293 289 283 288 294 295 293 290 289 278 279 279
306 308 309 311 315 316 314 313 313 312 312 302 297 295 304 302 287 286 290 291 293 293 293 293 291 292 291 286 283 285 286 294 294 294 291 293 286 280 283 288 292 289 291 291 289 285 275
306 308 308 313 314 315 313 313 312 312 312 304 296 288 290 297 293 288 288 287 289 294 293 294 291 291 288 286 287 284 284 290 291 292 298 294 285 283 279 283 288 286 288 291 288 282 279
305 308 309 312 314 315 313 312 312 312 312 302 295 290 290 285 287 288 286 288 287 288 292 292 289 289 285 282 283 282 282 284 288 292 291 289 282 286 286 288 288 288 288 289 286 287 282
308 309 309 313 313 315 312 311 311 311 312 297 290 288 288 286 288 287 288 284 286 288 288 285 286 285 284 280 281 278 281 280 281 285 286 287 282 284 281 288 288 285 289 289 290 289 288
307 307 309 312 312 314 312 311 310 311 307 296 294 293 289 286 284 283 284 285 288 287 287 288 285 282 281 284 285 285 285 284 282 281 282 281 281 276 278 287 285 281 285 288 289 291 290
306 308 309 310 312 314 311 310 310 311 307 297 294 293 287 281 282 284 287 287 286 286 284 286 286 282 285 288 287 285 284 284 283 284 286 279 278 277 276 283 275 285 291 292 290 291 293
306 306 309 310 312 313 311 310 310 311 309 296 295 294 290 282 283 284 285 285 285 285 283 285 286 286 286 285 281 280 278 280 284 285 284 283 279 275 276 280 282 285 287 288 286 287 292
305 306 309 310 313 312 310 310 310 310 307 296 293 295 293 284 281 285 283 283 280 280 281 285 287 288 287 284 281 273 272 276 277 284 284 284 283 280 279 277 276 284 287 290 289 281 292
305 306 308 309 310 311 309 309 309 309 308 296 293 295 291 284 285 285 282 282 284 281 280 282 283 283 286 280 276 274 276 281 277 279 280 281 282 278 279 279 282 289 289 291 279 280 293
304 305 308 307 312 310 308 309 309 309 306 297 293 294 292 284 285 289 289 284 284 283 280 282 282 283 282 276 273 273 275 278 277 280 282 281 279 279 281 276 275 291 289 283 288 291 292
304 305 307 309 310 309 308 308 309 308 305 300 291 295 296 288 286 292 291 291 290 288 285 284 282 282 282 279 275 273 275 273 275 272 283 278 283 283 286 284 291 292 291 292 291 291 293

GFSGBSN_sfc_thetae_096.txt.gz
Theta_e
331 331 330 327 325 322 319 318 317 316 316 315 316 315 314 313 314 313 313 313 314 315 315 314 314 315 307 294 294 306 314 310 310 311 306 304 303 302 296 301 302 301 304 306 308 309 309
332 331 331 330 326 324 321 319 317 316 316 315 315 315 313 313 314 312 312 313 314 315 314 314 314 314 300 288 304 307 307 306 307 308 306 304 304 305 300 302 299 303 303 303 306 308 310
330 331 331 330 329 326 322 320 318 316 316 315 315 315 313 312 312 312 313 313 314 315 315 314 314 309 298 294 305 306 309 306 307 311 306 309 308 304 301 299 305 303 298 300 303 306 306
326 327 329 331 330 328 323 320 318 316 316 315 314 313 312 312 312 312 312 313 313 314 314 315 315 304 291 304 306 307 307 310 311 314 312 312 311 305 301 303 302 298 297 291 300 304 306
323 323 325 326 330 329 325 321 318 317 316 315 314 313 312 311 312 312 312 313 314 314 314 314 302 298 291 309 302 304 305 306 308 308 307 311 308 301 301 294 292 295 288 291 295 303 303
318 319 321 322 325 329 327 322 319 317 316 315 314 312 311 311 311 312 312 313 313 312 308 309 304 291 296 296 303 305 307 308 304 303 300 299 296 292 292 289 284 287 288 290 291 298 301
315 316 317 320 320 323 328 323 320 318 316 315 313 312 309 310 311 311 308 301 297 294 297 292 293 294 297 302 306 303 306 306 303 297 289 294 288 285 288 290 291 292 292 291 294 299 298
311 312 313 315 318 319 323 324 321 318 316 314 313 311 309 309 311 311 305 297 297 298 290 299 299 299 301 303 297 300 307 298 295 289 292 288 284 293 296 295 292 291 289 288 294 299 296
310 310 311 313 316 318 319 324 321 318 316 314 313 311 309 309 310 306 300 299 303 302 290 296 298 297 298 301 295 296 302 299 293 291 290 284 290 297 295 293 290 288 287 289 292 297 298
309 309 309 311 313 315 316 319 320 318 316 315 313 311 309 309 303 302 298 303 303 301 277 287 295 297 301 300 292 302 304 299 292 289 291 289 295 294 292 291 291 286 294 294 294 292 286
308 308 308 310 311 313 316 316 320 317 315 314 312 311 309 309 302 300 302 304 302 295 268 288 295 304 302 295 295 297 304 300 290 291 289 286 290 290 290 291 293 289 295 294 293 288 286
307 307 307 308 309 312 314 315 320 317 315 314 312 311 310 306 303 304 305 302 298 278 268 286 296 295 294 294 294 298 297 300 298 292 291 289 295 293 292 295 295 296 293 292 292 287 281
307 307 307 307 309 311 311 314 318 317 314 314 312 310 308 308 301 305 304 296 278 269 285 283 288 292 291 289 291 292 291 288 284 277 276 284 287 294 296 290 294 294 290 281 279 280 279
307 306 306 307 307 308 310 312 316 316 314 313 311 310 309 308 306 305 300 285 269 282 282 290 291 291 286 290 289 290 287 285 290 288 282 275 274 289 294 290 287 289 288 280 274 275 277
307 306 306 306 306 308 310 312 313 315 313 312 311 304 303 305 306 304 293 275 276 282 288 289 290 285 285 290 288 288 286 284 288 290 284 279 280 291 294 295 292 287 284 290 281 279 274
307 307 307 306 306 307 309 311 312 314 313 312 301 300 301 307 306 301 290 282 284 292 293 291 283 286 281 285 285 285 285 288 288 290 292 287 282 288 293 296 295 290 292 284 283 276 274
307 306 306 306 308 309 310 310 311 313 312 312 301 296 303 307 303 295 282 281 290 294 294 290 286 285 284 283 286 283 285 289 291 290 291 289 287 284 291 288 286 289 286 287 286 283 275
306 305 305 306 308 308 310 310 311 313 312 308 299 293 304 304 292 293 286 289 295 293 294 292 290 288 286 285 283 283 284 287 294 293 287 290 289 283 285 293 294 292 289 289 281 278 278
306 305 305 305 307 309 309 309 313 312 312 302 295 296 304 301 286 287 290 289 292 291 291 291 289 291 290 285 282 284 284 291 293 291 288 292 285 280 282 287 291 289 290 290 287 284 275
305 305 305 305 307 309 309 312 313 311 313 303 295 288 292 297 295 289 287 286 287 293 292 293 290 290 287 285 286 283 282 287 290 291 296 293 285 282 277 281 287 285 289 290 288 281 279
304 305 305 306 308 310 310 313 312 311 312 302 294 289 291 286 288 288 287 287 287 287 291 291 287 286 284 280 281 281 281 282 287 290 289 289 278 283 285 287 287 286 287 288 286 286 280
304 304 305 308 309 309 313 313 311 312 312 297 292 289 289 287 289 288 287 285 285 287 288 286 285 284 282 280 281 278 280 279 279 284 284 286 280 276 278 285 286 284 288 289 289 289 288
304 305 307 308 310 310 312 312 310 310 309 296 293 293 290 287 285 283 284 284 287 287 286 287 285 282 280 282 284 284 284 283 280 279 280 278 276 271 271 282 284 279 284 287 288 290 290
305 306 306 307 307 310 312 312 310 311 309 297 294 293 287 283 283 284 286 286 286 285 283 284 284 281 284 286 285 283 282 282 282 285 284 278 275 276 270 281 275 286 289 291 289 290 292
305 306 306 306 310 310 311 311 310 311 310 295 294 293 288 282 283 284 284 283 284 284 283 284 285 285 286 284 281 279 277 279 284 284 282 281 278 273 274 277 282 284 285 287 286 287 290
305 305 305 306 308 309 312 311 309 311 306 295 293 296 292 285 281 285 282 282 279 279 281 284 286 286 286 283 280 273 271 275 277 281 283 283 284 279 278 276 275 282 287 289 289 281 292
305 305 305 306 306 309 312 310 309 310 306 296 293 296 291 285 285 284 282 282 283 280 279 281 282 282 285 279 276 273 276 279 276 279 277 278 277 273 273 272 280 287 288 289 277 279 292
304 304 305 305 306 308 311 310 309 310 306 297 293 295 292 285 286 288 288 283 283 281 279 282 281 281 281 276 273 273 274 277 275 279 280 280 276 275 279 274 274 290 289 282 285 289 292
304 304 304 304 307 308 311 309 308 310 305 299 292 295 294 288 287 291 290 289 288 287 284 282 281 280 282 278 273 273 275 270 273 271 280 280 282 282 282 280 289 291 289 290 291 290 290

GFSGBSN_sfc_thetae_099.txt.gz
Theta_e
329 330 330 331 331 329 326 323 320 319 318 317 317 316 316 313 313 314 313 314 314 315 315 315 315 316 305 293 294 306 315 310 308 311 306 304 303 300 297 298 298 295 300 306 308 309 309
326 326 328 328 330 330 328 325 321 320 318 317 316 316 315 313 312 313 313 314 314 315 315 315 315 314 297 288 305 306 306 307 306 307 306 305 302 304 300 299 294 300 303 302 306 306 308
321 322 324 324 326 326 329 327 323 320 318 317 317 316 315 313 312 312 313 314 314 314 315 315 315 308 296 293 305 306 308 306 307 309 304 308 308 303 303 297 303 303 295 299 302 305 304
317 319 320 321 323 324 325 328 323 320 319 317 317 315 314 312 312 312 313 313 314 314 315 315 315 302 290 303 306 306 307 310 311 312 311 312 311 304 301 304 302 297 294 289 300 303 304
314 315 316 318 318 320 322 324 324 321 319 318 316 315 314 313 312 312 313 313 314 314 315 315 301 296 290 307 302 304 304 304 308 307 305 311 307 299 299 295 291 294 288 288 293 303 301
312 312 312 313 314 316 320 321 323 322 320 318 316 315 314 311 311 312 312 313 313 311 306 307 303 289 295 295 301 304 306 307 303 301 298 298 294 294 291 289 283 285 288 291 290 298 299
311 311 311 311 312 313 317 319 321 324 320 318 316 314 313 310 310 311 307 300 297 293 296 291 292 293 296 301 305 302 306 304 301 296 288 293 288 288 286 290 290 291 291 290 294 299 297
310 311 310 310 310 311 314 315 318 319 321 318 316 315 312 310 311 310 304 296 296 296 289 297 297 297 300 301 296 299 306 296 294 287 292 287 284 291 295 294 292 290 289 287 294 299 296
310 309 309 309 309 309 310 313 316 318 322 318 316 314 312 310 310 305 300 299 302 301 289 294 297 296 296 299 294 295 301 297 292 289 288 282 288 295 294 291 289 287 285 286 290 296 297
310 310 309 309 309 308 309 310 311 316 320 317 315 313 311 310 304 302 298 303 302 299 276 285 293 296 299 298 291 300 303 297 291 288 289 287 293 292 291 290 291 285 292 291 293 290 284
310 309 309 309 308 308 308 309 310 314 316 316 314 313 311 310 302 299 302 303 302 294 267 287 293 303 300 293 293 296 303 298 289 290 288 284 289 289 289 290 292 289 294 293 293 288 286
310 309 309 309 308 307 307 308 309 311 315 316 313 313 310 306 304 304 304 302 297 278 268 284 294 293 292 293 293 296 296 299 297 290 290 288 294 292 291 294 294 294 291 291 291 288 282
310 310 311 309 308 307 307 307 310 311 313 315 311 312 308 306 300 305 303 296 281 270 284 283 287 292 290 288 289 291 290 287 283 277 274 283 286 292 294 288 292 292 286 281 279 280 276
311 310 310 310 308 307 306 307 308 311 313 313 313 311 308 308 305 305 299 288 274 281 281 288 289 290 285 289 288 288 286 283 288 285 278 276 274 287 293 289 286 287 287 278 274 275 277
310 310 310 309 308 307 306 306 307 310 313 311 311 305 302 304 306 303 294 280 279 280 286 288 289 283 283 288 287 286 285 283 286 288 280 279 279 289 292 293 292 287 281 289 283 277 274
309 310 309 308 308 307 306 306 307 311 312 311 303 301 300 306 306 300 289 285 283 291 291 290 282 285 280 283 284 283 283 287 287 290 289 284 277 287 291 295 294 289 291 283 282 276 273
309 309 307 308 307 308 306 306 307 309 311 310 302 296 303 306 303 294 283 284 288 294 293 288 285 284 283 283 284 282 284 287 291 289 290 287 285 283 289 287 285 287 284 286 285 283 274
308 308 306 307 307 307 305 306 307 309 311 307 300 292 304 304 291 291 286 287 294 291 292 291 289 287 285 285 282 281 284 285 291 291 285 288 286 281 282 291 294 292 289 288 282 278 276
308 307 306 305 306 305 305 306 307 309 310 303 296 295 304 301 286 288 291 290 291 291 290 289 288 289 288 284 280 283 284 289 290 289 286 289 283 277 277 287 291 289 289 290 287 284 276
307 306 306 305 305 305 305 307 307 310 311 304 294 288 294 296 295 290 288 286 286 292 291 292 289 289 286 283 285 282 282 286 289 289 295 291 284 279 274 280 285 284 288 290 287 280 278
306 305 305 305 305 305 306 306 308 310 311 304 295 289 293 287 289 290 288 287 286 286 289 290 286 286 285 280 280 280 280 281 285 289 286 288 280 283 283 285 286 285 286 288 285 286 280
305 305 304 304 304 305 308 309 310 310 310 300 291 288 290 289 291 289 288 284 286 287 287 285 283 283 283 281 281 277 279 278 277 282 282 284 272 279 272 282 284 283 286 287 288 288 288
304 304 305 306 307 307 308 308 310 310 309 299 294 292 291 288 287 287 285 284 285 286 285 286 286 281 279 280 283 283 282 282 280 278 279 278 277 276 269 278 278 275 283 285 287 289 289
304 305 305 306 307 306 309 311 311 309 309 299 295 292 288 283 284 285 286 286 285 283 282 283 283 280 282 285 285 283 282 281 280 282 282 277 275 278 270 279 271 283 289 288 287 289 291
304 304 306 306 306 307 308 310 310 310 310 295 294 292 288 282 284 285 285 284 283 284 282 283 284 284 285 284 280 279 276 278 282 283 279 279 276 273 273 274 278 283 284 285 286 286 289
304 304 305 306 305 307 307 311 310 309 310 296 293 295 290 285 282 286 283 281 280 279 280 282 285 285 285 282 280 273 272 274 277 279 281 282 282 279 277 272 272 280 286 288 288 281 288
304 304 305 305 305 306 307 311 310 309 310 295 293 295 291 284 285 285 282 281 282 280 279 281 282 282 284 279 276 273 275 278 274 274 276 278 278 273 271 270 277 286 289 289 277 278 288
304 303 304 305 305 305 308 309 310 309 308 296 293 295 291 285 286 288 287 283 282 281 279 281 280 280 280 275 273 272 273 276 274 276 276 276 277 277 276 273 271 288 287 282 286 289 289
304 303 304 305 305 305 307 311 310 310 304 299 291 295 295 288 286 290 289 289 287 286 283 281 279 280 281 277 273 272 274 269 272 270 279 277 281 279 278 278 287 287 287 289 290 289 289

GFSGBSN_sfc_thetae_102.txt.gz
Theta_e
321 322 322 323 325 325 327 326 326 324 322 320 318 317 316 316 315 314 314 314 314 314 315 315 316 316 304 292 292 305 314 310 308 311 305 304 302 300 295 297 297 293 295 302 307 309 308
317 319 320 321 322 322 323 323 325 325 322 320 318 317 316 315 315 314 314 314 314 314 315 315 316 316 297 287 303 305 306 306 306 306 306 305 302 303 299 295 294 296 298 298 304 306 307
314 314 315 316 317 319 319 321 323 324 323 321 319 317 316 315 314 313 314 314 314 314 315 315 316 309 296 293 302 305 307 309 306 306 305 307 308 303 301 295 299 299 293 293 301 304 303
313 314 313 313 313 314 315 318 321 322 325 322 319 317 316 315 314 313 313 314 314 314 315 315 316 301 290 302 303 306 306 308 311 312 309 310 310 303 301 303 300 295 291 285 296 302 303
312 312 312 312 312 312 312 314 319 320 322 323 319 317 316 314 314 313 313 314 314 314 315 314 301 295 289 306 301 303 303 304 306 307 306 310 305 298 300 295 293 294 286 286 289 301 301
312 312 312 311 311 311 311 312 314 315 319 321 319 317 316 314 313 312 313 313 313 311 305 306 303 289 294 295 300 303 304 305 303 301 299 300 295 293 291 289 283 288 287 289 287 296 298
313 312 311 310 310 311 310 310 311 313 315 319 321 317 315 313 311 311 309 300 296 293 296 291 292 292 295 300 303 301 304 302 299 296 291 294 291 289 290 289 290 291 290 289 292 298 294
312 311 311 310 310 310 310 309 310 310 312 315 318 316 312 313 310 311 305 296 296 296 289 296 296 296 299 300 295 298 304 295 293 287 289 287 286 293 294 293 291 290 289 288 294 298 296
311 311 311 310 310 310 310 309 309 309 311 315 313 315 314 311 310 306 301 299 302 301 289 293 296 295 295 298 293 294 300 296 291 288 287 283 287 295 293 289 288 286 285 287 290 296 296
313 312 311 310 310 310 309 308 309 309 311 312 313 315 312 310 303 303 298 303 302 298 278 284 292 295 298 297 290 299 302 296 291 287 288 286 292 291 289 289 288 283 290 291 292 290 284
313 313 312 311 311 310 309 309 308 308 310 311 313 312 312 310 302 298 302 303 301 295 269 286 292 301 299 292 292 295 302 297 288 289 287 283 287 287 287 289 291 287 293 291 292 287 285
312 312 312 311 311 310 310 309 308 308 309 311 313 312 311 307 304 304 304 302 298 281 271 284 293 292 291 292 291 295 295 298 295 289 287 286 291 290 289 293 292 293 290 290 288 287 280
311 311 311 311 311 310 310 309 308 307 309 310 312 311 309 307 299 305 303 297 282 276 285 283 286 291 288 287 288 290 288 286 282 276 273 282 284 289 293 287 291 290 285 280 279 280 276
310 309 310 310 310 310 310 309 307 307 308 311 313 310 309 307 305 304 298 289 276 282 281 287 288 289 284 288 287 287 284 282 286 283 277 275 274 285 291 288 285 285 284 277 273 274 274
309 309 309 309 309 310 309 308 307 308 308 311 310 305 304 306 305 303 292 281 281 282 286 287 288 282 283 287 285 285 283 282 285 287 279 278 278 287 290 292 290 286 280 287 278 276 272
308 308 309 308 309 309 309 308 306 306 308 310 303 301 301 306 306 299 288 285 284 288 290 289 281 283 279 283 282 281 281 285 285 289 287 283 276 284 290 293 292 290 290 282 284 276 274
308 308 308 309 309 308 307 307 306 305 307 310 301 294 303 306 303 294 283 285 287 293 292 288 283 282 281 282 283 280 281 286 289 287 289 287 285 280 287 284 284 288 287 286 285 281 274
308 309 309 308 304 304 307 306 305 305 307 306 298 289 304 304 291 291 286 289 294 291 292 290 288 286 283 283 281 280 282 284 288 290 284 287 286 278 281 288 293 292 288 287 281 277 276
308 308 307 305 304 305 306 305 305 305 307 302 293 295 303 301 285 287 291 291 292 290 289 288 287 288 287 284 279 282 283 287 288 287 284 287 280 275 274 285 289 288 289 289 287 282 273
307 307 306 305 305 305 304 305 305 306 307 303 296 288 294 297 295 289 289 288 288 292 290 290 288 288 285 282 284 281 281 285 287 288 293 290 281 274 271 274 283 279 285 286 287 281 277
307 306 306 305 305 304 305 305 305 306 307 303 296 290 293 286 289 290 289 287 286 286 289 289 285 286 284 280 279 279 279 280 285 287 285 284 270 278 282 282 284 284 284 284 284 286 279
307 305 305 305 305 305 305 304 305 306 307 301 292 289 292 289 291 290 289 285 286 287 286 285 283 284 283 280 280 278 279 277 276 281 280 282 269 276 271 279 280 280 284 285 286 285 287
306 306 305 305 306 307 305 306 308 308 308 300 297 293 292 289 288 287 287 286 287 286 284 284 285 281 280 280 282 281 281 281 279 277 277 277 277 271 270 277 281 273 281 284 285 288 288
305 306 305 305 306 307 306 305 307 309 308 302 297 293 287 284 286 287 287 287 286 283 283 283 283 280 282 284 284 283 281 281 281 281 281 276 274 277 272 277 267 280 287 287 286 287 290
305 305 305 304 306 307 307 307 309 311 310 304 296 292 287 283 285 284 285 284 284 283 282 283 283 282 284 282 280 279 275 277 282 283 278 278 276 271 273 273 276 282 284 282 285 285 288
304 305 305 304 306 307 307 307 311 310 306 297 294 294 289 284 282 285 283 283 280 278 280 282 284 284 284 282 280 272 271 273 277 279 280 281 280 274 272 271 270 278 287 288 286 280 288
304 304 305 305 305 306 307 306 310 311 309 298 292 294 290 284 284 284 282 282 282 280 279 280 281 282 283 280 276 273 274 277 274 273 276 275 275 272 270 269 275 283 289 288 279 278 288
303 304 304 305 305 306 306 305 309 310 310 299 292 294 291 285 285 287 286 282 282 281 279 280 280 280 280 275 273 272 273 276 273 275 275 275 275 276 275 273 269 286 286 281 285 287 288
303 303 304 305 305 306 306 305 307 310 310 300 291 294 295 288 286 289 288 288 287 285 282 280 278 279 281 276 272 272 274 268 272 270 277 275 278 276 277 277 284 290 285 287 288 288 288

GFSGBSN_sfc_thetae_105.txt.gz
Theta_e
315 315 315 316 316 317 318 318 320 322 322 325 324 321 318 317 317 316 315 314 315 315 315 315 316 316 307 293 293 304 313 311 308 311 306 304 301 300 294 297 297 295 296 299 300 302 308
315 315 315 314 314 314 314 314 315 317 320 323 325 321 318 317 316 315 314 314 315 316 315 315 315 316 299 288 303 305 306 308 306 306 306 305 302 303 298 296 295 296 297 297 299 300 302
314 314 313 314 314 313 313 313 313 316 318 320 323 322 317 317 316 315 314 314 315 315 315 315 315 308 297 293 303 304 307 307 307 306 304 308 308 303 299 295 299 298 293 295 298 297 299
315 314 313 312 312 312 312 312 313 312 315 316 320 322 317 317 316 315 314 313 314 315 315 316 314 301 292 302 304 306 306 307 310 310 308 311 310 304 302 301 299 293 293 287 295 296 296
314 314 313 313 311 311 312 311 311 311 312 313 315 318 318 316 315 314 313 313 314 315 315 315 301 296 290 306 301 303 304 303 306 307 307 308 306 300 301 296 292 293 286 286 290 296 296
314 314 314 313 312 312 312 311 311 310 310 311 313 315 318 314 314 313 313 313 313 312 307 306 301 290 294 295 300 302 305 305 303 301 301 301 298 296 294 290 284 287 287 289 288 292 296
314 313 312 311 312 312 312 311 311 310 310 310 313 315 315 313 311 312 309 302 295 294 297 292 292 291 294 300 303 301 304 303 300 298 292 295 292 289 291 291 291 292 290 288 291 294 294
315 315 314 313 312 312 311 311 310 310 310 310 311 313 315 310 311 311 305 297 297 297 290 296 296 296 298 300 295 298 304 296 294 288 291 289 288 293 295 293 291 292 290 289 293 296 294
313 313 314 314 313 312 312 310 310 310 310 309 310 313 314 312 310 307 302 299 303 301 290 293 296 294 295 299 293 294 300 296 291 289 288 285 289 295 293 291 289 289 289 289 290 295 297
311 312 312 313 313 313 312 312 310 310 309 309 309 312 311 310 303 303 299 303 303 299 280 286 292 295 298 297 290 299 302 297 292 288 289 288 293 291 291 290 290 287 292 292 293 291 285
311 311 311 311 312 312 312 312 311 310 310 310 309 309 310 309 303 299 302 303 301 296 271 287 292 301 298 292 292 294 302 297 289 289 288 286 289 288 288 289 291 288 294 293 293 288 288
309 309 310 310 311 311 311 311 311 310 310 310 309 309 311 308 305 305 304 302 298 282 272 284 293 291 291 292 291 295 295 297 296 289 288 287 292 291 290 293 293 294 291 290 290 288 282
309 310 309 309 310 309 310 310 310 310 309 309 309 308 310 308 300 305 303 297 282 276 285 283 286 290 288 287 288 290 288 286 283 276 275 282 285 290 293 289 292 292 287 280 280 280 278
309 309 309 309 309 309 309 309 310 310 308 308 310 311 309 307 307 303 298 288 277 284 281 287 289 288 284 287 286 287 285 282 286 284 278 277 273 285 292 290 288 288 286 279 273 276 278
308 308 309 309 309 309 309 309 310 309 308 308 309 306 304 306 306 302 292 281 282 284 285 287 287 283 283 286 285 285 283 282 284 286 280 279 278 287 290 292 292 287 285 288 279 278 277
308 308 309 309 309 309 309 309 309 308 307 308 303 301 300 307 305 299 289 284 286 288 290 289 281 283 279 282 282 282 281 285 286 288 287 283 277 285 290 293 293 290 291 284 285 275 274
307 307 308 309 308 306 307 308 307 305 304 308 301 293 302 307 304 293 285 285 288 292 292 287 283 282 280 281 282 279 281 286 288 288 288 287 284 281 286 285 284 288 287 287 286 283 277
307 308 308 307 306 304 306 306 306 304 305 304 298 288 303 305 290 290 286 289 293 291 292 290 287 285 282 283 281 280 281 283 287 289 284 287 285 278 280 289 292 290 287 286 282 279 278
306 307 307 307 306 305 306 305 304 304 304 301 293 294 303 302 285 286 290 291 292 290 289 289 286 288 286 282 279 282 282 287 287 288 285 288 279 269 274 281 288 285 285 285 285 283 275
306 307 307 306 305 305 305 305 304 304 305 299 294 287 294 297 295 289 288 288 288 292 290 290 287 288 284 282 283 280 281 285 287 288 292 289 279 274 271 272 282 279 283 286 283 282 279
306 306 307 306 305 304 305 303 304 305 305 300 293 289 293 285 289 290 289 288 286 286 289 290 286 286 284 279 279 279 279 280 284 286 284 282 270 277 280 280 282 282 282 283 278 282 282
306 305 306 307 306 306 306 305 304 305 306 295 291 290 292 290 292 290 288 287 286 287 287 286 284 285 282 279 278 278 279 277 277 280 280 281 270 272 269 279 279 279 281 282 283 284 284
305 305 306 306 306 306 307 305 305 307 305 293 298 293 294 290 289 287 287 287 287 288 285 284 285 281 281 280 281 280 280 280 279 277 277 277 274 270 269 277 278 273 282 283 284 286 287
304 305 305 306 306 306 306 306 305 306 305 298 300 293 289 285 287 287 288 289 286 285 283 283 282 280 281 283 283 283 281 281 281 281 281 276 274 278 273 273 266 282 286 288 286 286 287
304 305 305 305 305 306 307 307 306 306 307 301 300 292 288 283 287 285 286 284 284 284 282 282 282 282 283 282 280 278 275 277 281 282 278 277 276 272 272 273 275 281 284 283 283 285 288
304 304 304 304 305 307 306 307 307 307 310 305 297 295 290 284 282 284 284 282 281 280 280 281 284 284 284 282 280 272 271 273 276 278 280 281 279 272 271 269 270 279 286 288 286 280 289
304 304 304 304 304 305 306 307 306 309 310 301 294 295 289 284 285 283 282 281 283 281 279 280 281 282 283 280 276 273 274 277 272 273 276 276 276 271 271 270 274 281 287 288 279 280 288
304 304 304 304 304 305 305 306 306 308 308 301 293 295 291 284 284 286 285 281 282 281 279 280 280 280 279 276 273 272 273 275 273 274 274 274 271 272 275 273 269 286 285 282 285 288 289
303 304 304 304 304 304 305 306 306 307 305 300 292 294 294 287 284 288 287 287 286 285 281 280 278 279 281 277 273 272 274 268 272 270 276 274 277 276 277 277 282 288 286 288 288 288 288

GFSGBSN_sfc_thetae_108.txt.gz
Theta_e
316 315 315 315 315 315 315 314 314 314 315 319 321 323 325 319 318 317 317 315 315 316 315 315 316 316 309 298 298 309 312 313 310 311 308 306 303 301 297 300 301 299 300 300 302 302 301
316 315 315 315 314 314 313 314 313 313 313 315 317 319 323 318 315 316 316 315 315 316 315 315 316 315 303 293 308 309 309 310 308 308 307 307 304 306 300 299 300 301 300 300 301 299 300
315 315 315 315 314 313 312 312 312 312 312 313 313 316 319 318 316 316 316 315 315 315 315 314 316 311 301 298 307 309 310 309 310 308 305 309 309 304 302 296 301 301 296 299 299 299 297
315 315 315 315 314 313 312 312 312 312 312 312 312 314 316 318 316 316 314 314 313 314 315 315 315 308 296 306 309 309 310 309 312 313 310 311 311 306 303 303 300 296 297 291 296 298 298
316 315 315 314 313 313 313 312 312 311 312 311 311 313 315 317 315 314 313 313 313 314 315 314 309 301 295 309 304 308 308 306 308 310 308 308 307 302 301 296 294 294 289 290 292 298 297
316 316 316 315 314 313 312 312 312 311 311 311 311 311 312 313 315 312 313 313 313 312 308 308 304 296 299 298 304 306 309 308 304 304 302 303 300 297 295 295 288 289 289 291 291 294 296
315 314 314 314 315 314 314 313 311 312 311 311 310 310 310 313 313 312 310 307 299 298 300 296 296 295 297 303 306 305 307 306 304 299 295 297 297 291 293 296 296 295 293 291 293 296 294
314 313 313 313 313 314 314 314 313 311 311 310 310 309 314 315 312 311 308 300 300 301 293 299 298 298 301 303 297 302 307 300 298 294 295 295 293 296 297 297 295 295 293 292 295 296 295
312 312 312 313 312 312 313 313 313 312 312 311 309 308 311 312 310 308 303 301 306 304 294 295 298 297 298 302 296 298 303 299 296 292 293 292 294 297 296 294 293 294 293 292 292 295 296
312 311 310 310 310 311 311 312 312 312 312 311 309 308 309 310 304 304 300 306 306 304 289 290 294 297 300 300 294 302 304 300 296 292 293 293 296 294 294 293 294 290 295 295 294 292 287
310 310 311 311 311 310 310 311 311 311 312 312 310 308 308 310 304 300 303 306 306 300 279 291 294 303 300 296 296 297 305 300 293 293 293 290 292 292 291 292 295 292 297 295 295 291 290
310 310 310 310 310 310 310 310 310 310 311 311 310 308 309 308 306 306 307 306 302 287 278 288 294 292 293 295 294 298 298 301 300 293 293 292 295 295 294 296 296 297 296 295 295 292 284
309 309 309 309 309 310 310 310 310 310 311 310 309 308 308 308 300 308 306 300 287 281 287 287 289 293 291 290 291 293 291 291 289 285 285 288 289 293 296 293 296 295 292 284 282 282 282
308 309 309 309 310 311 310 310 309 310 310 309 308 309 311 308 308 307 302 292 282 285 285 290 291 291 288 291 290 291 290 288 291 289 287 283 281 289 294 293 291 292 291 285 277 279 283
308 308 309 309 310 309 308 308 309 309 308 307 308 306 305 307 307 305 296 285 285 286 288 289 290 287 287 290 290 290 289 288 290 291 285 284 282 291 292 295 294 289 287 292 285 284 284
308 308 309 309 308 308 307 307 308 307 306 307 304 301 300 308 307 301 291 286 288 291 291 291 285 288 285 288 287 288 287 290 289 292 293 288 282 289 292 295 295 292 293 285 287 279 277
307 308 308 309 308 307 307 308 307 305 305 307 303 294 302 307 305 295 286 288 290 294 294 291 287 287 286 287 288 287 286 290 291 292 293 291 287 286 289 288 286 289 287 288 286 286 281
307 307 307 308 307 306 307 306 307 305 306 306 301 289 304 306 290 292 288 290 294 293 295 293 291 290 288 289 287 287 287 288 291 293 289 292 288 282 284 290 293 291 287 287 283 281 283
307 307 307 307 307 305 305 306 306 306 306 303 293 294 304 302 287 288 291 291 293 292 293 292 290 291 291 288 284 287 288 289 292 292 289 290 285 279 279 286 289 286 287 287 286 286 283
306 306 307 307 307 306 305 304 305 305 306 304 294 287 294 296 295 291 289 288 289 294 293 292 291 292 290 287 289 286 286 287 290 292 291 291 285 281 277 280 284 282 284 286 285 281 282
305 306 306 306 307 307 306 306 305 304 305 303 294 290 293 287 290 292 291 290 288 288 293 293 290 290 288 285 286 285 285 285 287 288 288 287 280 281 282 283 283 282 282 283 282 284 281
305 305 306 306 306 306 306 306 305 304 304 299 291 289 294 292 292 291 290 289 288 289 290 289 289 290 289 285 284 283 285 285 283 286 285 285 280 278 277 282 283 280 283 284 285 285 285
305 305 305 306 306 306 306 306 305 306 306 297 298 297 290 292 290 289 289 289 288 290 287 287 289 289 287 285 287 287 287 287 286 284 283 282 281 279 278 281 281 279 285 286 287 288 287
305 305 305 305 305 305 306 306 305 305 305 302 301 297 289 288 290 290 290 291 289 287 286 286 287 287 286 290 290 290 289 287 287 286 286 281 280 281 280 280 275 285 290 291 287 287 288
304 304 304 305 305 305 306 307 307 306 306 303 301 296 291 287 291 290 290 288 287 286 285 285 286 286 290 289 286 283 284 283 284 285 284 285 283 280 278 278 281 285 288 287 286 286 289
304 304 304 304 305 305 305 306 306 307 307 304 302 300 293 288 288 286 289 287 286 284 284 284 288 290 290 288 285 279 279 279 279 279 285 285 285 282 279 274 275 286 289 292 291 284 290
303 303 304 304 304 305 305 306 307 306 308 306 301 303 293 288 288 287 287 286 287 285 284 285 286 287 289 286 283 282 281 283 280 278 278 279 280 278 279 278 280 286 290 292 282 284 291
303 303 304 304 304 304 304 306 307 307 309 304 297 298 295 290 288 288 288 286 287 287 285 285 285 285 285 283 284 284 282 283 281 282 280 280 279 279 279 277 276 289 290 286 290 292 292
303 303 303 304 304 304 304 305 306 306 306 302 295 297 298 292 288 290 290 290 289 288 288 286 284 286 289 286 284 284 282 281 282 280 284 280 284 284 283 284 288 293 292 293 293 292 291

GFSGBSN_sfc_thetae_111.txt.gz
Theta_e
316 316 315 316 316 314 314 314 314 313 314 314 314 314 318 319 321 318 316 316 315 315 316 316 315 316 312 300 300 311 311 313 313 312 310 307 303 301 297 300 301 298 299 302 303 303 302
316 315 316 315 315 315 314 313 313 313 313 313 313 313 316 318 320 317 316 316 316 315 316 316 315 316 307 295 310 312 312 311 312 311 309 309 305 305 301 299 299 301 301 301 302 301 301
317 317 316 316 315 315 314 314 313 313 313 313 313 312 314 317 320 317 317 316 315 315 315 316 315 312 304 300 310 311 312 311 312 309 306 309 310 304 303 297 302 301 297 300 300 300 299
316 317 317 317 316 315 314 313 313 313 313 312 312 312 311 313 315 317 316 315 314 314 315 315 315 310 299 308 311 309 312 310 313 313 311 312 312 306 304 303 299 296 298 292 300 299 300
315 315 315 315 315 315 315 314 313 313 313 313 312 312 311 311 313 315 315 314 314 314 315 315 310 305 296 309 304 310 310 306 308 310 311 309 307 304 302 295 293 295 290 291 294 301 299
315 315 314 314 314 314 314 315 315 314 313 313 312 311 310 312 313 313 314 313 314 312 312 310 307 297 301 298 305 307 310 309 306 306 303 303 300 298 296 293 287 291 290 292 291 297 297
314 313 313 313 312 314 314 314 313 314 314 313 312 311 310 313 316 314 311 307 301 300 301 297 298 297 298 304 308 306 308 307 306 302 296 299 294 292 294 296 297 295 294 292 294 298 295
313 313 313 312 312 312 312 312 312 313 313 313 312 311 309 311 313 311 308 299 301 303 294 300 300 299 302 304 299 303 308 301 300 295 299 296 291 298 298 298 297 296 294 293 296 297 296
313 312 311 312 312 312 312 311 311 312 312 312 312 311 309 309 310 308 304 301 307 306 295 297 299 298 299 302 298 299 304 301 297 295 296 293 295 299 296 295 293 295 294 293 293 296 298
312 312 311 311 311 311 311 311 311 311 311 311 311 311 309 308 305 305 301 307 308 307 291 292 294 298 300 302 296 303 305 302 297 294 295 294 298 295 295 293 295 290 297 296 294 293 289
312 310 310 310 310 310 311 311 311 311 311 311 310 310 308 307 303 301 304 309 308 303 281 292 295 304 301 297 297 299 306 301 294 294 295 292 293 293 292 293 296 292 298 296 295 293 292
311 309 310 310 311 311 310 310 310 310 310 310 310 310 308 306 307 306 309 308 303 287 280 289 295 293 294 296 295 299 299 302 301 294 295 293 297 295 295 297 297 298 296 295 295 292 285
310 309 309 310 311 311 310 308 309 309 309 309 308 308 306 306 300 308 308 302 287 283 289 288 290 293 292 291 292 294 293 292 290 287 286 290 290 294 297 293 297 296 292 284 282 284 283
309 308 309 309 310 309 308 310 309 309 309 307 307 307 307 308 309 307 303 293 282 287 287 292 293 293 289 292 292 292 291 289 293 291 288 284 283 290 294 293 291 292 291 284 278 280 284
309 308 308 309 309 309 308 309 308 308 307 307 308 306 305 308 308 306 296 285 287 288 289 291 291 288 289 291 292 291 290 289 292 293 286 284 284 292 294 296 294 290 288 293 286 287 283
309 307 308 309 309 308 308 308 308 307 307 308 303 300 301 308 307 302 292 287 289 292 293 293 286 289 286 289 289 289 288 292 291 294 295 290 283 290 292 295 295 292 293 285 287 278 277
309 308 308 308 308 308 307 307 308 307 307 308 303 294 302 307 306 295 287 289 292 295 295 292 289 288 288 288 289 288 288 291 293 294 295 292 287 287 290 288 287 288 286 287 285 285 280
309 307 307 308 308 307 307 307 307 307 307 307 301 290 303 306 290 293 291 292 293 294 296 294 293 291 290 290 288 288 288 290 294 295 289 293 288 283 284 290 293 291 287 287 283 281 285
309 307 307 307 307 307 307 306 305 306 307 303 295 293 304 302 287 289 293 292 294 293 294 293 291 293 293 290 286 289 289 291 294 293 290 291 286 280 282 287 290 286 288 288 287 286 284
309 306 306 307 307 307 306 306 307 305 306 304 295 288 294 297 294 292 290 290 290 295 294 294 292 293 291 289 290 287 288 289 291 292 291 292 286 282 278 280 285 282 284 286 285 282 282
309 306 306 306 307 307 306 306 306 304 305 303 295 290 293 288 291 293 293 291 290 289 294 295 292 291 289 286 287 286 288 288 289 289 290 289 281 283 283 284 284 283 283 284 283 284 281
309 307 305 306 306 307 306 306 306 304 304 300 292 290 290 292 294 293 292 290 290 290 292 291 290 291 291 287 286 284 287 287 285 288 287 288 282 281 279 284 284 281 283 284 285 286 286
309 306 305 305 306 306 306 306 305 305 306 298 299 298 292 291 291 291 291 291 290 292 290 290 291 291 289 287 289 290 290 290 288 287 285 284 283 281 279 284 282 280 285 286 288 289 288
308 306 304 305 305 306 306 307 305 306 307 303 302 298 291 289 291 291 292 292 291 289 288 289 290 289 289 293 293 292 290 290 290 288 288 283 282 283 282 282 277 286 291 291 288 288 289
308 305 304 305 305 305 305 306 306 306 306 305 304 298 294 289 291 292 292 291 290 289 287 287 288 290 293 291 288 284 286 285 286 287 286 287 285 282 280 280 283 286 288 288 287 287 290
308 306 303 304 305 305 305 305 306 306 307 305 304 304 298 291 290 290 292 291 290 289 287 286 290 293 292 289 287 281 281 282 282 281 286 286 286 283 282 277 276 287 291 293 292 284 292
308 306 304 304 304 305 305 306 305 307 308 305 303 305 299 289 292 290 290 290 291 289 288 287 287 288 291 288 285 284 283 285 281 280 281 281 282 280 281 280 282 291 292 294 282 285 293
308 306 304 304 304 304 305 306 305 307 307 306 301 305 300 293 292 291 291 289 290 290 287 288 288 288 287 284 286 286 284 285 283 285 283 282 280 281 282 279 278 292 291 287 291 294 294
308 306 304 304 305 304 305 305 305 306 305 304 297 304 305 297 292 293 292 292 291 291 291 290 288 289 291 288 288 289 285 286 284 282 287 281 286 285 285 286 291 294 294 295 295 294 294

GFSGBSN_sfc_thetae_114.txt.gz
Theta_e
318 318 318 317 317 316 316 315 315 314 314 314 314 314 313 314 318 321 319 317 317 316 316 316 316 316 312 301 299 312 315 315 313 311 309 307 303 301 296 298 300 296 297 300 302 302 302
318 318 318 318 318 317 317 316 315 315 314 314 314 313 313 312 315 317 317 317 317 317 316 316 316 315 307 295 309 312 311 311 312 310 308 308 304 305 300 299 298 301 300 300 301 301 301
317 317 316 316 316 316 316 316 316 315 315 315 314 313 312 312 312 314 319 318 317 316 315 316 316 312 303 300 309 311 311 311 312 310 306 310 309 303 303 298 302 300 296 299 300 301 299
315 316 316 315 315 314 315 315 315 315 316 315 314 313 312 312 312 313 314 318 315 315 314 315 316 310 298 310 309 308 310 309 313 313 311 312 311 305 302 304 300 295 295 289 298 300 301
315 315 314 315 314 313 313 313 314 314 315 315 315 314 313 312 311 315 315 316 315 314 315 315 309 305 295 309 302 307 311 306 308 310 312 311 307 302 302 295 292 293 286 289 293 300 299
316 315 314 313 313 313 314 313 313 313 313 313 314 314 313 311 312 315 315 314 314 313 312 311 308 297 301 298 305 307 310 309 306 307 305 303 300 297 296 292 286 289 289 291 290 296 297
316 314 313 312 313 313 313 313 312 313 312 312 313 313 312 310 311 313 311 307 301 299 303 296 298 297 299 304 308 305 309 306 305 302 294 300 294 290 293 295 294 294 291 290 293 297 295
314 313 313 312 312 312 312 312 312 312 312 312 312 312 311 310 310 311 308 300 300 302 293 300 299 300 302 303 298 303 308 300 300 294 298 295 289 296 298 297 294 293 291 292 295 297 293
313 312 312 311 311 312 312 312 312 311 311 311 311 311 310 310 308 308 304 302 308 306 294 297 300 298 299 301 298 300 304 302 296 293 294 290 293 299 296 294 292 292 291 292 291 296 295
312 312 311 311 311 311 311 311 309 309 310 310 310 310 310 308 303 304 301 307 308 308 288 291 294 298 300 302 296 304 306 302 297 292 294 292 297 294 293 292 293 288 295 294 293 291 286
312 312 310 310 310 311 311 309 310 310 310 309 309 309 308 308 302 300 304 309 308 303 278 293 294 304 302 297 298 298 307 302 293 293 293 289 292 291 290 292 294 290 296 293 292 290 288
312 311 310 309 310 310 310 309 310 310 309 309 308 307 307 305 305 305 309 309 303 286 277 288 294 293 293 295 295 299 299 302 300 293 293 291 295 293 293 294 295 296 292 292 291 290 278
312 311 310 309 310 310 309 309 309 309 309 308 307 307 306 305 300 308 308 301 285 281 288 287 289 292 293 290 292 294 293 291 287 281 283 289 289 293 296 290 294 293 287 277 275 274 275
312 311 309 309 310 309 309 309 309 308 308 308 308 308 307 306 308 307 302 291 281 287 286 293 292 292 289 291 292 292 291 287 291 289 284 279 276 288 292 290 288 288 287 281 277 278 281
312 311 310 309 309 309 308 308 308 309 309 309 309 305 305 307 309 307 295 284 284 287 290 291 291 288 288 290 291 291 288 287 290 290 282 281 280 291 293 292 292 287 282 290 284 284 279
311 311 309 308 309 309 308 308 308 308 309 309 303 301 300 307 308 302 291 287 289 293 294 293 285 288 286 288 288 287 286 290 290 293 292 288 279 289 291 293 294 290 292 282 283 272 274
311 310 309 308 308 308 308 308 308 307 308 310 304 294 302 308 305 296 286 288 292 296 295 291 288 287 288 287 288 285 286 290 292 293 293 290 286 283 289 285 284 287 283 285 284 282 278
311 310 308 307 308 308 308 307 308 307 307 306 301 288 302 306 291 293 289 292 295 294 297 294 293 291 288 289 287 286 286 287 294 294 288 290 285 276 282 290 291 289 286 283 278 276 281
310 310 308 307 307 308 308 307 307 306 306 302 294 293 303 302 287 289 293 292 294 293 293 293 291 292 292 289 284 287 288 291 292 291 286 288 281 271 276 285 287 285 286 286 283 283 276
310 309 308 306 307 308 307 307 306 305 306 303 296 288 294 296 295 292 290 290 291 296 294 294 292 292 290 288 288 285 287 289 291 290 292 291 281 276 270 275 281 278 282 284 281 277 274
310 309 308 306 306 307 307 307 306 305 306 302 294 289 291 288 291 293 292 292 290 289 294 294 291 291 288 284 285 284 286 287 288 289 287 286 273 280 282 283 283 281 281 283 274 280 273
310 309 307 305 306 306 307 307 306 306 307 299 292 290 291 291 293 293 292 290 289 290 289 290 289 290 289 284 284 282 285 284 282 285 285 285 275 275 272 283 283 279 283 283 284 284 284
311 309 306 305 305 306 307 307 306 306 306 298 298 298 294 291 291 290 290 291 290 291 290 290 290 289 286 286 287 286 287 287 284 283 282 281 276 274 273 280 278 273 283 285 287 288 287
311 309 306 304 304 305 306 307 307 306 306 303 300 297 292 288 290 290 292 292 291 288 287 289 288 287 287 290 289 288 287 287 287 285 286 280 277 278 273 275 268 283 290 290 287 288 288
312 310 306 304 304 304 305 305 306 306 306 303 303 297 293 288 290 291 292 291 290 288 287 287 287 288 290 288 283 281 280 280 284 285 283 284 280 275 272 273 279 283 286 287 285 284 289
312 310 307 304 304 306 305 305 305 306 306 305 303 303 296 290 287 291 289 291 287 286 285 286 289 290 289 286 282 277 275 276 278 279 282 284 283 276 276 272 272 284 289 292 290 279 290
312 310 308 305 304 305 305 306 305 306 307 305 301 305 298 290 291 289 287 287 289 286 284 284 285 285 287 283 280 278 277 281 276 275 276 274 275 273 275 273 279 288 290 291 277 281 291
312 310 308 305 304 304 304 305 306 306 307 303 300 304 299 292 292 291 292 288 287 287 284 286 284 284 283 280 280 279 278 280 277 281 278 278 274 274 276 273 271 289 288 283 287 290 292
312 310 309 306 305 304 304 305 305 306 307 304 297 304 304 296 290 293 292 292 291 290 288 287 285 286 287 283 282 282 279 278 279 274 282 276 281 280 280 280 288 291 289 291 292 290 291

GFSGBSN_sfc_thetae_117.txt.gz
Theta_e
318 318 317 318 317 316 316 316 316 317 317 316 316 315 314 313 313 313 316 319 317 317 316 316 316 315 311 301 299 313 318 317 312 313 308 306 303 301 295 296 299 295 297 298 299 300 299
317 317 317 316 316 316 315 316 316 316 316 316 316 315 314 313 313 312 314 316 318 317 316 315 315 314 305 294 308 312 311 309 311 310 308 308 305 305 300 297 296 300 299 298 299 299 300
317 317 316 315 316 315 314 314 314 314 315 315 315 316 315 313 313 312 314 315 318 315 315 315 315 311 303 298 309 309 310 308 311 308 304 309 308 301 301 295 300 299 294 297 299 299 299
316 318 316 315 314 314 314 314 314 314 314 314 314 314 315 314 313 312 315 316 315 315 314 314 314 308 297 310 309 306 307 306 312 312 309 310 310 304 301 301 299 295 294 287 297 299 300
316 316 315 315 314 314 313 313 313 313 313 313 313 313 314 314 312 312 315 316 315 315 315 314 308 304 295 311 302 303 304 306 308 309 309 310 305 299 301 295 291 291 283 287 291 298 298
315 315 315 314 312 313 313 313 313 313 313 313 313 312 312 312 311 311 314 314 314 312 311 311 308 296 299 297 304 306 307 308 304 305 304 302 297 292 296 290 282 287 287 290 290 296 297
314 314 314 313 312 312 313 313 312 312 311 311 311 311 311 311 310 311 309 302 298 296 301 294 297 295 299 303 306 304 307 305 304 300 291 296 291 287 291 294 293 292 290 289 293 297 295
314 314 314 312 312 312 312 312 311 310 311 310 310 310 311 309 310 308 308 297 297 299 290 301 300 299 301 302 297 302 307 298 297 291 294 294 286 293 296 296 293 292 290 290 295 297 294
314 314 313 312 311 312 312 311 311 311 311 310 310 310 309 308 309 304 303 302 308 304 292 297 300 297 298 301 297 299 303 300 294 290 291 287 290 297 294 291 290 289 289 290 290 294 294
314 314 313 311 311 311 311 310 310 311 310 309 309 308 307 308 301 303 301 307 308 306 287 290 293 297 300 301 295 303 305 300 295 290 291 289 295 293 291 289 291 285 293 292 290 287 282
315 313 313 311 311 311 310 310 310 309 309 308 308 308 307 307 298 297 304 308 305 299 275 292 294 303 301 296 296 297 305 300 291 291 289 285 289 288 287 290 292 288 293 290 290 287 284
315 313 312 311 310 310 310 309 310 310 309 310 308 308 308 305 303 303 308 308 300 283 274 288 293 293 292 294 294 298 297 299 297 292 290 289 293 291 290 292 293 294 290 289 288 287 275
315 312 312 310 310 310 310 309 309 309 309 310 309 309 305 305 299 305 305 298 284 275 286 286 288 292 291 289 291 292 292 288 283 277 277 285 287 290 293 287 292 291 285 272 274 271 274
314 312 312 310 309 309 309 309 309 309 309 310 310 308 308 305 305 304 301 291 278 284 283 292 291 290 287 289 289 290 287 284 289 286 277 274 274 287 291 288 285 286 286 280 275 277 277
313 312 311 309 309 309 309 309 308 308 308 309 309 303 301 306 306 305 294 283 283 283 289 289 290 284 285 288 288 287 285 284 287 288 280 277 278 290 291 292 291 285 280 289 283 284 280
312 311 310 308 308 309 309 308 308 309 309 309 299 299 299 307 306 301 291 286 286 292 293 292 282 285 282 284 284 283 284 287 288 291 289 285 276 287 290 291 290 288 290 279 279 273 276
312 311 310 308 308 308 309 308 308 308 308 310 298 294 300 305 304 294 286 286 291 295 294 289 286 284 284 284 284 282 283 287 290 290 290 286 282 281 286 284 282 284 281 283 278 280 278
312 311 310 308 307 308 308 308 308 307 308 302 293 289 301 302 287 288 283 290 295 293 294 292 290 288 285 285 284 283 282 284 290 291 284 286 282 272 282 287 289 286 283 280 273 274 282
312 311 309 307 307 308 308 308 308 307 307 299 294 293 299 297 286 283 289 291 293 292 291 291 288 290 289 285 281 284 285 289 289 288 283 286 277 265 274 278 282 281 283 284 281 280 273
313 310 309 307 307 308 308 307 307 307 308 300 290 285 290 291 291 286 286 288 289 294 292 292 290 290 287 284 285 283 284 288 289 288 293 289 278 272 268 273 278 276 280 283 278 269 277
313 310 309 306 306 307 307 307 307 307 308 299 290 288 290 280 286 288 288 289 287 286 289 291 288 287 285 280 281 281 284 284 286 289 286 283 270 277 279 281 282 280 280 281 272 278 272
314 311 308 306 305 306 306 307 307 308 307 293 287 284 287 287 289 288 289 287 287 287 286 286 286 286 284 281 281 279 282 281 279 284 283 283 271 272 271 281 281 279 281 281 282 283 282
315 311 308 305 304 305 306 307 308 307 304 292 293 293 289 288 286 285 286 288 287 288 288 287 285 285 283 283 284 283 284 284 282 279 280 278 273 271 271 279 275 271 282 283 285 285 285
315 312 309 306 304 304 306 306 307 308 304 297 296 293 288 284 286 287 290 291 288 286 285 286 285 284 285 288 287 286 285 285 284 283 284 278 274 275 270 272 265 280 289 288 286 286 287
315 313 310 307 304 305 304 305 305 307 307 298 298 294 292 283 286 288 290 288 287 286 284 285 285 286 288 285 281 279 277 279 282 283 282 282 277 273 270 269 277 282 285 286 283 282 288
314 314 311 307 305 306 305 305 305 305 307 298 297 299 295 287 284 288 286 287 284 282 282 284 287 288 287 283 280 274 272 275 276 277 280 282 281 274 272 271 271 281 287 290 288 278 289
314 314 312 308 306 306 306 305 305 305 306 300 296 300 296 288 287 286 284 284 286 283 281 281 283 283 285 280 278 275 276 279 274 274 276 271 272 271 272 270 277 286 289 290 275 277 289
313 314 312 309 307 306 306 306 306 306 306 300 295 299 295 291 290 288 289 285 285 283 280 283 282 282 280 278 277 276 275 278 275 278 277 276 272 271 273 271 270 288 287 282 285 289 291
313 313 312 309 307 306 306 305 305 305 306 303 297 303 303 295 290 291 291 290 289 288 285 284 283 283 283 280 278 277 277 273 275 272 280 276 279 278 278 277 284 288 287 290 290 289 290